<?xml version="1.0" encoding="UTF-8" standalone="no" ?>
<gpx xmlns="http://www.topografix.com/GPX/1/1" xmlns:xsi="http://www.w3.org/2001/XMLSchema-instance" xsi:schemaLocation="http://www.topografix.com/GPX/1/1 http://www.topografix.com/GPX/1/1/gpx.xsd" version="1.1" creator="VisuGPX - https://www.visugpx.com">
  <metadata>
    <name>08/05/2022 sortie vtt ligueux</name>
    <desc><![CDATA[Rando ligueux 8 mai  2022]]></desc>
  </metadata>
  <trk>
    <name><![CDATA[08/05/2022 08:22]]></name>
    <trkseg>
      <trkpt lat="44.7852" lon="0.268">
        <ele>71.400001525879</ele>
        <time>2022-05-08T06:22:13Z</time>
      </trkpt>
      <trkpt lat="44.78514" lon="0.26809">
        <ele>71.400001525879</ele>
        <time>2022-05-08T06:22:23Z</time>
      </trkpt>
      <trkpt lat="44.78517" lon="0.26831">
        <ele>70.800003051758</ele>
        <time>2022-05-08T06:22:59Z</time>
      </trkpt>
      <trkpt lat="44.78518" lon="0.26854">
        <ele>70.599998474121</ele>
        <time>2022-05-08T06:23:05Z</time>
      </trkpt>
      <trkpt lat="44.78505" lon="0.26862">
        <ele>69.099998474121</ele>
        <time>2022-05-08T06:23:11Z</time>
      </trkpt>
      <trkpt lat="44.7849" lon="0.26856">
        <ele>69.099998474121</ele>
        <time>2022-05-08T06:23:15Z</time>
      </trkpt>
      <trkpt lat="44.78475" lon="0.26856">
        <ele>69.099998474121</ele>
        <time>2022-05-08T06:23:19Z</time>
      </trkpt>
      <trkpt lat="44.78452" lon="0.26865">
        <ele>69.099998474121</ele>
        <time>2022-05-08T06:23:25Z</time>
      </trkpt>
      <trkpt lat="44.78438" lon="0.26872">
        <ele>68.800003051758</ele>
        <time>2022-05-08T06:23:29Z</time>
      </trkpt>
      <trkpt lat="44.78424" lon="0.26878">
        <ele>68.800003051758</ele>
        <time>2022-05-08T06:23:33Z</time>
      </trkpt>
      <trkpt lat="44.78403" lon="0.26888">
        <ele>68.800003051758</ele>
        <time>2022-05-08T06:23:39Z</time>
      </trkpt>
      <trkpt lat="44.7839" lon="0.2689">
        <ele>68.650001525879</ele>
        <time>2022-05-08T06:23:43Z</time>
      </trkpt>
      <trkpt lat="44.78378" lon="0.26886">
        <ele>69.150001525879</ele>
        <time>2022-05-08T06:23:51Z</time>
      </trkpt>
      <trkpt lat="44.78376" lon="0.26855">
        <ele>69.199996948242</ele>
        <time>2022-05-08T06:24:01Z</time>
      </trkpt>
      <trkpt lat="44.78374" lon="0.26835">
        <ele>69.199996948242</ele>
        <time>2022-05-08T06:24:05Z</time>
      </trkpt>
      <trkpt lat="44.78372" lon="0.26816">
        <ele>70.150001525879</ele>
        <time>2022-05-08T06:24:09Z</time>
      </trkpt>
      <trkpt lat="44.7837" lon="0.26795">
        <ele>71.150001525879</ele>
        <time>2022-05-08T06:24:13Z</time>
      </trkpt>
      <trkpt lat="44.78368" lon="0.26773">
        <ele>71.150001525879</ele>
        <time>2022-05-08T06:24:17Z</time>
      </trkpt>
      <trkpt lat="44.78366" lon="0.26752">
        <ele>71.550003051758</ele>
        <time>2022-05-08T06:24:21Z</time>
      </trkpt>
      <trkpt lat="44.78364" lon="0.26733">
        <ele>71.550003051758</ele>
        <time>2022-05-08T06:24:25Z</time>
      </trkpt>
      <trkpt lat="44.78365" lon="0.26718">
        <ele>71.550003051758</ele>
        <time>2022-05-08T06:24:29Z</time>
      </trkpt>
      <trkpt lat="44.78371" lon="0.26708">
        <ele>76.050003051758</ele>
        <time>2022-05-08T06:24:33Z</time>
      </trkpt>
      <trkpt lat="44.7837" lon="0.26687">
        <ele>76.050003051758</ele>
        <time>2022-05-08T06:24:39Z</time>
      </trkpt>
      <trkpt lat="44.7837" lon="0.26674">
        <ele>76.050003051758</ele>
        <time>2022-05-08T06:24:43Z</time>
      </trkpt>
      <trkpt lat="44.78368" lon="0.26652">
        <ele>78.550003051758</ele>
        <time>2022-05-08T06:24:51Z</time>
      </trkpt>
      <trkpt lat="44.78366" lon="0.26634">
        <ele>81.050003051758</ele>
        <time>2022-05-08T06:24:59Z</time>
      </trkpt>
      <trkpt lat="44.7836" lon="0.26616">
        <ele>81.050003051758</ele>
        <time>2022-05-08T06:25:05Z</time>
      </trkpt>
      <trkpt lat="44.78356" lon="0.26596">
        <ele>80.550003051758</ele>
        <time>2022-05-08T06:25:09Z</time>
      </trkpt>
      <trkpt lat="44.78356" lon="0.26578">
        <ele>79.800003051758</ele>
        <time>2022-05-08T06:25:13Z</time>
      </trkpt>
      <trkpt lat="44.78356" lon="0.26551">
        <ele>80.300003051758</ele>
        <time>2022-05-08T06:25:19Z</time>
      </trkpt>
      <trkpt lat="44.78358" lon="0.26533">
        <ele>80.300003051758</ele>
        <time>2022-05-08T06:25:23Z</time>
      </trkpt>
      <trkpt lat="44.78357" lon="0.26518">
        <ele>80.699996948242</ele>
        <time>2022-05-08T06:25:27Z</time>
      </trkpt>
      <trkpt lat="44.78359" lon="0.26505">
        <ele>80.699996948242</ele>
        <time>2022-05-08T06:25:35Z</time>
      </trkpt>
      <trkpt lat="44.78366" lon="0.26488">
        <ele>84.550003051758</ele>
        <time>2022-05-08T06:26:05Z</time>
      </trkpt>
      <trkpt lat="44.78362" lon="0.26475">
        <ele>84.550003051758</ele>
        <time>2022-05-08T06:26:09Z</time>
      </trkpt>
      <trkpt lat="44.78361" lon="0.26462">
        <ele>84.050003051758</ele>
        <time>2022-05-08T06:26:13Z</time>
      </trkpt>
      <trkpt lat="44.78369" lon="0.26451">
        <ele>83.949996948242</ele>
        <time>2022-05-08T06:26:17Z</time>
      </trkpt>
      <trkpt lat="44.78373" lon="0.26438">
        <ele>84.449996948242</ele>
        <time>2022-05-08T06:26:21Z</time>
      </trkpt>
      <trkpt lat="44.78374" lon="0.26424">
        <ele>84.449996948242</ele>
        <time>2022-05-08T06:26:25Z</time>
      </trkpt>
      <trkpt lat="44.78376" lon="0.2641">
        <ele>84.75</ele>
        <time>2022-05-08T06:26:29Z</time>
      </trkpt>
      <trkpt lat="44.78369" lon="0.26392">
        <ele>84.75</ele>
        <time>2022-05-08T06:26:39Z</time>
      </trkpt>
      <trkpt lat="44.78374" lon="0.26376">
        <ele>82.849998474121</ele>
        <time>2022-05-08T06:26:47Z</time>
      </trkpt>
      <trkpt lat="44.78364" lon="0.26367">
        <ele>82.849998474121</ele>
        <time>2022-05-08T06:26:55Z</time>
      </trkpt>
      <trkpt lat="44.78362" lon="0.26348">
        <ele>82.349998474121</ele>
        <time>2022-05-08T06:26:59Z</time>
      </trkpt>
      <trkpt lat="44.78362" lon="0.26329">
        <ele>82.349998474121</ele>
        <time>2022-05-08T06:27:03Z</time>
      </trkpt>
      <trkpt lat="44.78358" lon="0.26308">
        <ele>79.099998474121</ele>
        <time>2022-05-08T06:27:07Z</time>
      </trkpt>
      <trkpt lat="44.78355" lon="0.26281">
        <ele>79.099998474121</ele>
        <time>2022-05-08T06:27:11Z</time>
      </trkpt>
      <trkpt lat="44.78362" lon="0.2626">
        <ele>79.099998474121</ele>
        <time>2022-05-08T06:27:15Z</time>
      </trkpt>
      <trkpt lat="44.7837" lon="0.26244">
        <ele>79.349998474121</ele>
        <time>2022-05-08T06:27:19Z</time>
      </trkpt>
      <trkpt lat="44.78378" lon="0.26231">
        <ele>81.349998474121</ele>
        <time>2022-05-08T06:27:23Z</time>
      </trkpt>
      <trkpt lat="44.78383" lon="0.26218">
        <ele>81.349998474121</ele>
        <time>2022-05-08T06:27:27Z</time>
      </trkpt>
      <trkpt lat="44.78389" lon="0.26204">
        <ele>82.849998474121</ele>
        <time>2022-05-08T06:27:31Z</time>
      </trkpt>
      <trkpt lat="44.78396" lon="0.26189">
        <ele>82.849998474121</ele>
        <time>2022-05-08T06:27:35Z</time>
      </trkpt>
      <trkpt lat="44.78405" lon="0.26174">
        <ele>83.349998474121</ele>
        <time>2022-05-08T06:27:39Z</time>
      </trkpt>
      <trkpt lat="44.78416" lon="0.26159">
        <ele>83.949996948242</ele>
        <time>2022-05-08T06:27:43Z</time>
      </trkpt>
      <trkpt lat="44.78431" lon="0.26139">
        <ele>84.449996948242</ele>
        <time>2022-05-08T06:27:49Z</time>
      </trkpt>
      <trkpt lat="44.7844" lon="0.26125">
        <ele>84.949996948242</ele>
        <time>2022-05-08T06:27:53Z</time>
      </trkpt>
      <trkpt lat="44.78451" lon="0.26119">
        <ele>84.75</ele>
        <time>2022-05-08T06:27:57Z</time>
      </trkpt>
      <trkpt lat="44.78463" lon="0.26134">
        <ele>84.75</ele>
        <time>2022-05-08T06:28:01Z</time>
      </trkpt>
      <trkpt lat="44.78472" lon="0.26148">
        <ele>84.75</ele>
        <time>2022-05-08T06:28:05Z</time>
      </trkpt>
      <trkpt lat="44.7848" lon="0.26162">
        <ele>85.849998474121</ele>
        <time>2022-05-08T06:28:09Z</time>
      </trkpt>
      <trkpt lat="44.78488" lon="0.26177">
        <ele>86.349998474121</ele>
        <time>2022-05-08T06:28:13Z</time>
      </trkpt>
      <trkpt lat="44.78496" lon="0.26194">
        <ele>86.349998474121</ele>
        <time>2022-05-08T06:28:17Z</time>
      </trkpt>
      <trkpt lat="44.78503" lon="0.26215">
        <ele>88.550003051758</ele>
        <time>2022-05-08T06:28:21Z</time>
      </trkpt>
      <trkpt lat="44.78511" lon="0.26241">
        <ele>88.550003051758</ele>
        <time>2022-05-08T06:28:25Z</time>
      </trkpt>
      <trkpt lat="44.78524" lon="0.26287">
        <ele>88.550003051758</ele>
        <time>2022-05-08T06:28:31Z</time>
      </trkpt>
      <trkpt lat="44.78534" lon="0.26319">
        <ele>85.5</ele>
        <time>2022-05-08T06:28:35Z</time>
      </trkpt>
      <trkpt lat="44.78543" lon="0.26345">
        <ele>85.5</ele>
        <time>2022-05-08T06:28:39Z</time>
      </trkpt>
      <trkpt lat="44.78559" lon="0.26366">
        <ele>84.5</ele>
        <time>2022-05-08T06:28:43Z</time>
      </trkpt>
      <trkpt lat="44.7858" lon="0.26375">
        <ele>84.550003051758</ele>
        <time>2022-05-08T06:28:47Z</time>
      </trkpt>
      <trkpt lat="44.78601" lon="0.26381">
        <ele>85.050003051758</ele>
        <time>2022-05-08T06:28:51Z</time>
      </trkpt>
      <trkpt lat="44.7862" lon="0.26392">
        <ele>85.050003051758</ele>
        <time>2022-05-08T06:28:55Z</time>
      </trkpt>
      <trkpt lat="44.78635" lon="0.26392">
        <ele>85.349998474121</ele>
        <time>2022-05-08T06:28:59Z</time>
      </trkpt>
      <trkpt lat="44.78646" lon="0.26362">
        <ele>85.349998474121</ele>
        <time>2022-05-08T06:29:05Z</time>
      </trkpt>
      <trkpt lat="44.78657" lon="0.26329">
        <ele>86.800003051758</ele>
        <time>2022-05-08T06:29:11Z</time>
      </trkpt>
      <trkpt lat="44.78663" lon="0.26308">
        <ele>86.800003051758</ele>
        <time>2022-05-08T06:29:15Z</time>
      </trkpt>
      <trkpt lat="44.7867" lon="0.26287">
        <ele>86.800003051758</ele>
        <time>2022-05-08T06:29:19Z</time>
      </trkpt>
      <trkpt lat="44.78683" lon="0.26255">
        <ele>87</ele>
        <time>2022-05-08T06:29:25Z</time>
      </trkpt>
      <trkpt lat="44.78701" lon="0.26229">
        <ele>88</ele>
        <time>2022-05-08T06:29:31Z</time>
      </trkpt>
      <trkpt lat="44.7871" lon="0.26209">
        <ele>88.75</ele>
        <time>2022-05-08T06:29:35Z</time>
      </trkpt>
      <trkpt lat="44.78718" lon="0.26174">
        <ele>88.75</ele>
        <time>2022-05-08T06:29:41Z</time>
      </trkpt>
      <trkpt lat="44.78725" lon="0.26151">
        <ele>88.75</ele>
        <time>2022-05-08T06:29:45Z</time>
      </trkpt>
      <trkpt lat="44.78734" lon="0.26128">
        <ele>90.300003051758</ele>
        <time>2022-05-08T06:29:49Z</time>
      </trkpt>
      <trkpt lat="44.78742" lon="0.26106">
        <ele>90.300003051758</ele>
        <time>2022-05-08T06:29:53Z</time>
      </trkpt>
      <trkpt lat="44.78751" lon="0.26085">
        <ele>90.300003051758</ele>
        <time>2022-05-08T06:29:57Z</time>
      </trkpt>
      <trkpt lat="44.7876" lon="0.26063">
        <ele>91.099998474121</ele>
        <time>2022-05-08T06:30:01Z</time>
      </trkpt>
      <trkpt lat="44.78768" lon="0.26043">
        <ele>92.099998474121</ele>
        <time>2022-05-08T06:30:05Z</time>
      </trkpt>
      <trkpt lat="44.78776" lon="0.26023">
        <ele>92.099998474121</ele>
        <time>2022-05-08T06:30:09Z</time>
      </trkpt>
      <trkpt lat="44.78784" lon="0.26003">
        <ele>93.800003051758</ele>
        <time>2022-05-08T06:30:13Z</time>
      </trkpt>
      <trkpt lat="44.78792" lon="0.25985">
        <ele>93.800003051758</ele>
        <time>2022-05-08T06:30:17Z</time>
      </trkpt>
      <trkpt lat="44.78799" lon="0.25967">
        <ele>95.300003051758</ele>
        <time>2022-05-08T06:30:21Z</time>
      </trkpt>
      <trkpt lat="44.78805" lon="0.2595">
        <ele>96.349998474121</ele>
        <time>2022-05-08T06:30:25Z</time>
      </trkpt>
      <trkpt lat="44.7881" lon="0.25932">
        <ele>96.849998474121</ele>
        <time>2022-05-08T06:30:29Z</time>
      </trkpt>
      <trkpt lat="44.78816" lon="0.25915">
        <ele>96.849998474121</ele>
        <time>2022-05-08T06:30:33Z</time>
      </trkpt>
      <trkpt lat="44.78821" lon="0.25898">
        <ele>101.34999847412</ele>
        <time>2022-05-08T06:30:37Z</time>
      </trkpt>
      <trkpt lat="44.78826" lon="0.25882">
        <ele>101.34999847412</ele>
        <time>2022-05-08T06:30:41Z</time>
      </trkpt>
      <trkpt lat="44.7883" lon="0.25867">
        <ele>101.34999847412</ele>
        <time>2022-05-08T06:30:45Z</time>
      </trkpt>
      <trkpt lat="44.78836" lon="0.25848">
        <ele>102.59999847412</ele>
        <time>2022-05-08T06:30:51Z</time>
      </trkpt>
      <trkpt lat="44.78847" lon="0.25831">
        <ele>103.09999847412</ele>
        <time>2022-05-08T06:30:59Z</time>
      </trkpt>
      <trkpt lat="44.78861" lon="0.25826">
        <ele>105.09999847412</ele>
        <time>2022-05-08T06:31:11Z</time>
      </trkpt>
      <trkpt lat="44.78871" lon="0.25822">
        <ele>106.05000305176</ele>
        <time>2022-05-08T06:31:15Z</time>
      </trkpt>
      <trkpt lat="44.78883" lon="0.25825">
        <ele>107.05000305176</ele>
        <time>2022-05-08T06:31:19Z</time>
      </trkpt>
      <trkpt lat="44.789" lon="0.25814">
        <ele>107.05000305176</ele>
        <time>2022-05-08T06:31:25Z</time>
      </trkpt>
      <trkpt lat="44.78909" lon="0.25813">
        <ele>110.09999847412</ele>
        <time>2022-05-08T06:31:29Z</time>
      </trkpt>
      <trkpt lat="44.7892" lon="0.25811">
        <ele>110.09999847412</ele>
        <time>2022-05-08T06:31:33Z</time>
      </trkpt>
      <trkpt lat="44.78932" lon="0.25815">
        <ele>111.09999847412</ele>
        <time>2022-05-08T06:31:37Z</time>
      </trkpt>
      <trkpt lat="44.78947" lon="0.25814">
        <ele>112.40000152588</ele>
        <time>2022-05-08T06:31:41Z</time>
      </trkpt>
      <trkpt lat="44.78956" lon="0.258">
        <ele>112.40000152588</ele>
        <time>2022-05-08T06:31:45Z</time>
      </trkpt>
      <trkpt lat="44.78966" lon="0.25786">
        <ele>112.40000152588</ele>
        <time>2022-05-08T06:31:49Z</time>
      </trkpt>
      <trkpt lat="44.78983" lon="0.25774">
        <ele>112.44999694824</ele>
        <time>2022-05-08T06:31:53Z</time>
      </trkpt>
      <trkpt lat="44.78991" lon="0.25752">
        <ele>112.44999694824</ele>
        <time>2022-05-08T06:31:57Z</time>
      </trkpt>
      <trkpt lat="44.7899" lon="0.25738">
        <ele>112.44999694824</ele>
        <time>2022-05-08T06:32:01Z</time>
      </trkpt>
      <trkpt lat="44.7898" lon="0.25732">
        <ele>113.65000152588</ele>
        <time>2022-05-08T06:32:21Z</time>
      </trkpt>
      <trkpt lat="44.78975" lon="0.25712">
        <ele>113.94999694824</ele>
        <time>2022-05-08T06:32:31Z</time>
      </trkpt>
      <trkpt lat="44.7898" lon="0.25701">
        <ele>113.44999694824</ele>
        <time>2022-05-08T06:32:35Z</time>
      </trkpt>
      <trkpt lat="44.78981" lon="0.25683">
        <ele>115.75</ele>
        <time>2022-05-08T06:32:43Z</time>
      </trkpt>
      <trkpt lat="44.78984" lon="0.2567">
        <ele>115.75</ele>
        <time>2022-05-08T06:32:47Z</time>
      </trkpt>
      <trkpt lat="44.78986" lon="0.25656">
        <ele>115.75</ele>
        <time>2022-05-08T06:32:51Z</time>
      </trkpt>
      <trkpt lat="44.78985" lon="0.25642">
        <ele>119.34999847412</ele>
        <time>2022-05-08T06:32:55Z</time>
      </trkpt>
      <trkpt lat="44.7898" lon="0.25627">
        <ele>119.34999847412</ele>
        <time>2022-05-08T06:32:59Z</time>
      </trkpt>
      <trkpt lat="44.78979" lon="0.25613">
        <ele>119.34999847412</ele>
        <time>2022-05-08T06:33:03Z</time>
      </trkpt>
      <trkpt lat="44.7899" lon="0.25606">
        <ele>121.19999694824</ele>
        <time>2022-05-08T06:33:09Z</time>
      </trkpt>
      <trkpt lat="44.78998" lon="0.25592">
        <ele>121.19999694824</ele>
        <time>2022-05-08T06:33:15Z</time>
      </trkpt>
      <trkpt lat="44.79008" lon="0.25579">
        <ele>121.80000305176</ele>
        <time>2022-05-08T06:33:19Z</time>
      </trkpt>
      <trkpt lat="44.79016" lon="0.25551">
        <ele>121.80000305176</ele>
        <time>2022-05-08T06:33:25Z</time>
      </trkpt>
      <trkpt lat="44.79023" lon="0.25537">
        <ele>122.30000305176</ele>
        <time>2022-05-08T06:33:29Z</time>
      </trkpt>
      <trkpt lat="44.79018" lon="0.25521">
        <ele>122.5</ele>
        <time>2022-05-08T06:33:33Z</time>
      </trkpt>
      <trkpt lat="44.79011" lon="0.2551">
        <ele>122.5</ele>
        <time>2022-05-08T06:33:37Z</time>
      </trkpt>
      <trkpt lat="44.79012" lon="0.25492">
        <ele>122.5</ele>
        <time>2022-05-08T06:33:43Z</time>
      </trkpt>
      <trkpt lat="44.79015" lon="0.2548">
        <ele>122.55000305176</ele>
        <time>2022-05-08T06:33:47Z</time>
      </trkpt>
      <trkpt lat="44.79022" lon="0.25459">
        <ele>122.55000305176</ele>
        <time>2022-05-08T06:33:53Z</time>
      </trkpt>
      <trkpt lat="44.79025" lon="0.25443">
        <ele>122.55000305176</ele>
        <time>2022-05-08T06:33:57Z</time>
      </trkpt>
      <trkpt lat="44.79033" lon="0.25433">
        <ele>123.94999694824</ele>
        <time>2022-05-08T06:34:01Z</time>
      </trkpt>
      <trkpt lat="44.79045" lon="0.25426">
        <ele>123.94999694824</ele>
        <time>2022-05-08T06:34:05Z</time>
      </trkpt>
      <trkpt lat="44.79051" lon="0.25414">
        <ele>123.94999694824</ele>
        <time>2022-05-08T06:34:09Z</time>
      </trkpt>
      <trkpt lat="44.79055" lon="0.25394">
        <ele>122.19999694824</ele>
        <time>2022-05-08T06:34:15Z</time>
      </trkpt>
      <trkpt lat="44.79057" lon="0.25378">
        <ele>124.19999694824</ele>
        <time>2022-05-08T06:34:19Z</time>
      </trkpt>
      <trkpt lat="44.7906" lon="0.25365">
        <ele>124.19999694824</ele>
        <time>2022-05-08T06:34:23Z</time>
      </trkpt>
      <trkpt lat="44.79062" lon="0.2535">
        <ele>125.05000305176</ele>
        <time>2022-05-08T06:34:27Z</time>
      </trkpt>
      <trkpt lat="44.79058" lon="0.25338">
        <ele>125.05000305176</ele>
        <time>2022-05-08T06:34:31Z</time>
      </trkpt>
      <trkpt lat="44.79058" lon="0.25325">
        <ele>125.05000305176</ele>
        <time>2022-05-08T06:34:35Z</time>
      </trkpt>
      <trkpt lat="44.79065" lon="0.25313">
        <ele>125.69999694824</ele>
        <time>2022-05-08T06:34:39Z</time>
      </trkpt>
      <trkpt lat="44.79065" lon="0.25299">
        <ele>125.19999694824</ele>
        <time>2022-05-08T06:34:43Z</time>
      </trkpt>
      <trkpt lat="44.79066" lon="0.25283">
        <ele>125.19999694824</ele>
        <time>2022-05-08T06:34:47Z</time>
      </trkpt>
      <trkpt lat="44.79064" lon="0.25267">
        <ele>126.44999694824</ele>
        <time>2022-05-08T06:34:51Z</time>
      </trkpt>
      <trkpt lat="44.79066" lon="0.25251">
        <ele>126.44999694824</ele>
        <time>2022-05-08T06:34:55Z</time>
      </trkpt>
      <trkpt lat="44.79076" lon="0.25233">
        <ele>126.44999694824</ele>
        <time>2022-05-08T06:35:01Z</time>
      </trkpt>
      <trkpt lat="44.79084" lon="0.2522">
        <ele>126.69999694824</ele>
        <time>2022-05-08T06:35:05Z</time>
      </trkpt>
      <trkpt lat="44.79095" lon="0.25205">
        <ele>125.69999694824</ele>
        <time>2022-05-08T06:35:15Z</time>
      </trkpt>
      <trkpt lat="44.79115" lon="0.25216">
        <ele>125.09999847412</ele>
        <time>2022-05-08T06:35:35Z</time>
      </trkpt>
      <trkpt lat="44.79129" lon="0.25217">
        <ele>125.09999847412</ele>
        <time>2022-05-08T06:35:41Z</time>
      </trkpt>
      <trkpt lat="44.79142" lon="0.25222">
        <ele>124.65000152588</ele>
        <time>2022-05-08T06:35:45Z</time>
      </trkpt>
      <trkpt lat="44.79166" lon="0.25227">
        <ele>124.65000152588</ele>
        <time>2022-05-08T06:35:55Z</time>
      </trkpt>
      <trkpt lat="44.79185" lon="0.25231">
        <ele>124.69999694824</ele>
        <time>2022-05-08T06:36:03Z</time>
      </trkpt>
      <trkpt lat="44.79197" lon="0.25227">
        <ele>124.69999694824</ele>
        <time>2022-05-08T06:36:07Z</time>
      </trkpt>
      <trkpt lat="44.79205" lon="0.25219">
        <ele>125.75</ele>
        <time>2022-05-08T06:36:11Z</time>
      </trkpt>
      <trkpt lat="44.79217" lon="0.25223">
        <ele>125.75</ele>
        <time>2022-05-08T06:36:15Z</time>
      </trkpt>
      <trkpt lat="44.79229" lon="0.25231">
        <ele>125.25</ele>
        <time>2022-05-08T06:36:19Z</time>
      </trkpt>
      <trkpt lat="44.79242" lon="0.25222">
        <ele>125.69999694824</ele>
        <time>2022-05-08T06:36:23Z</time>
      </trkpt>
      <trkpt lat="44.79248" lon="0.25203">
        <ele>125.69999694824</ele>
        <time>2022-05-08T06:36:27Z</time>
      </trkpt>
      <trkpt lat="44.79267" lon="0.25189">
        <ele>125.69999694824</ele>
        <time>2022-05-08T06:36:33Z</time>
      </trkpt>
      <trkpt lat="44.79282" lon="0.25196">
        <ele>126.55000305176</ele>
        <time>2022-05-08T06:36:37Z</time>
      </trkpt>
      <trkpt lat="44.79293" lon="0.2523">
        <ele>126.55000305176</ele>
        <time>2022-05-08T06:36:43Z</time>
      </trkpt>
      <trkpt lat="44.79295" lon="0.25251">
        <ele>127.05000305176</ele>
        <time>2022-05-08T06:36:47Z</time>
      </trkpt>
      <trkpt lat="44.79305" lon="0.25263">
        <ele>125.55000305176</ele>
        <time>2022-05-08T06:36:51Z</time>
      </trkpt>
      <trkpt lat="44.79318" lon="0.25262">
        <ele>125.55000305176</ele>
        <time>2022-05-08T06:36:55Z</time>
      </trkpt>
      <trkpt lat="44.79323" lon="0.25286">
        <ele>124.65000152588</ele>
        <time>2022-05-08T06:37:03Z</time>
      </trkpt>
      <trkpt lat="44.79336" lon="0.25291">
        <ele>124.65000152588</ele>
        <time>2022-05-08T06:37:07Z</time>
      </trkpt>
      <trkpt lat="44.79349" lon="0.25294">
        <ele>124.65000152588</ele>
        <time>2022-05-08T06:37:11Z</time>
      </trkpt>
      <trkpt lat="44.79358" lon="0.25305">
        <ele>124.90000152588</ele>
        <time>2022-05-08T06:37:15Z</time>
      </trkpt>
      <trkpt lat="44.79364" lon="0.25321">
        <ele>124.90000152588</ele>
        <time>2022-05-08T06:37:19Z</time>
      </trkpt>
      <trkpt lat="44.79373" lon="0.25332">
        <ele>125.40000152588</ele>
        <time>2022-05-08T06:37:23Z</time>
      </trkpt>
      <trkpt lat="44.79393" lon="0.25351">
        <ele>121.75</ele>
        <time>2022-05-08T06:37:31Z</time>
      </trkpt>
      <trkpt lat="44.79406" lon="0.25359">
        <ele>121.75</ele>
        <time>2022-05-08T06:37:35Z</time>
      </trkpt>
      <trkpt lat="44.7943" lon="0.25374">
        <ele>121.69999694824</ele>
        <time>2022-05-08T06:37:41Z</time>
      </trkpt>
      <trkpt lat="44.7945" lon="0.25385">
        <ele>121.69999694824</ele>
        <time>2022-05-08T06:37:45Z</time>
      </trkpt>
      <trkpt lat="44.79477" lon="0.25398">
        <ele>121.69999694824</ele>
        <time>2022-05-08T06:37:51Z</time>
      </trkpt>
      <trkpt lat="44.79504" lon="0.25407">
        <ele>122.09999847412</ele>
        <time>2022-05-08T06:37:57Z</time>
      </trkpt>
      <trkpt lat="44.79523" lon="0.25416">
        <ele>122.59999847412</ele>
        <time>2022-05-08T06:38:01Z</time>
      </trkpt>
      <trkpt lat="44.79539" lon="0.25428">
        <ele>122.59999847412</ele>
        <time>2022-05-08T06:38:05Z</time>
      </trkpt>
      <trkpt lat="44.79555" lon="0.2544">
        <ele>118.94999694824</ele>
        <time>2022-05-08T06:38:09Z</time>
      </trkpt>
      <trkpt lat="44.79576" lon="0.25454">
        <ele>118.94999694824</ele>
        <time>2022-05-08T06:38:15Z</time>
      </trkpt>
      <trkpt lat="44.79592" lon="0.2546">
        <ele>118.44999694824</ele>
        <time>2022-05-08T06:38:19Z</time>
      </trkpt>
      <trkpt lat="44.79612" lon="0.25464">
        <ele>117.5</ele>
        <time>2022-05-08T06:38:23Z</time>
      </trkpt>
      <trkpt lat="44.7963" lon="0.25469">
        <ele>116.5</ele>
        <time>2022-05-08T06:38:27Z</time>
      </trkpt>
      <trkpt lat="44.79638" lon="0.25476">
        <ele>116.5</ele>
        <time>2022-05-08T06:38:31Z</time>
      </trkpt>
      <trkpt lat="44.79638" lon="0.25499">
        <ele>115.59999847412</ele>
        <time>2022-05-08T06:38:35Z</time>
      </trkpt>
      <trkpt lat="44.79639" lon="0.25525">
        <ele>115.59999847412</ele>
        <time>2022-05-08T06:38:39Z</time>
      </trkpt>
      <trkpt lat="44.79638" lon="0.25548">
        <ele>113.09999847412</ele>
        <time>2022-05-08T06:38:43Z</time>
      </trkpt>
      <trkpt lat="44.79637" lon="0.25574">
        <ele>112.59999847412</ele>
        <time>2022-05-08T06:38:47Z</time>
      </trkpt>
      <trkpt lat="44.79637" lon="0.25613">
        <ele>112.59999847412</ele>
        <time>2022-05-08T06:38:53Z</time>
      </trkpt>
      <trkpt lat="44.79636" lon="0.25651">
        <ele>111.09999847412</ele>
        <time>2022-05-08T06:38:59Z</time>
      </trkpt>
      <trkpt lat="44.79657" lon="0.2567">
        <ele>109.90000152588</ele>
        <time>2022-05-08T06:39:05Z</time>
      </trkpt>
      <trkpt lat="44.79684" lon="0.25673">
        <ele>108.90000152588</ele>
        <time>2022-05-08T06:39:11Z</time>
      </trkpt>
      <trkpt lat="44.79707" lon="0.25676">
        <ele>108.59999847412</ele>
        <time>2022-05-08T06:39:17Z</time>
      </trkpt>
      <trkpt lat="44.79723" lon="0.25673">
        <ele>108.59999847412</ele>
        <time>2022-05-08T06:39:21Z</time>
      </trkpt>
      <trkpt lat="44.79736" lon="0.25677">
        <ele>109.09999847412</ele>
        <time>2022-05-08T06:39:25Z</time>
      </trkpt>
      <trkpt lat="44.79754" lon="0.25678">
        <ele>108.19999694824</ele>
        <time>2022-05-08T06:39:29Z</time>
      </trkpt>
      <trkpt lat="44.79772" lon="0.25676">
        <ele>108.69999694824</ele>
        <time>2022-05-08T06:39:35Z</time>
      </trkpt>
      <trkpt lat="44.79784" lon="0.25675">
        <ele>108.19999694824</ele>
        <time>2022-05-08T06:39:39Z</time>
      </trkpt>
      <trkpt lat="44.79798" lon="0.2566">
        <ele>108.44999694824</ele>
        <time>2022-05-08T06:39:43Z</time>
      </trkpt>
      <trkpt lat="44.79819" lon="0.2564">
        <ele>107.94999694824</ele>
        <time>2022-05-08T06:39:49Z</time>
      </trkpt>
      <trkpt lat="44.79834" lon="0.25628">
        <ele>107.94999694824</ele>
        <time>2022-05-08T06:39:53Z</time>
      </trkpt>
      <trkpt lat="44.79847" lon="0.25627">
        <ele>109.80000305176</ele>
        <time>2022-05-08T06:39:57Z</time>
      </trkpt>
      <trkpt lat="44.79856" lon="0.25624">
        <ele>109.30000305176</ele>
        <time>2022-05-08T06:40:01Z</time>
      </trkpt>
      <trkpt lat="44.79858" lon="0.25605">
        <ele>109.30000305176</ele>
        <time>2022-05-08T06:40:05Z</time>
      </trkpt>
      <trkpt lat="44.79864" lon="0.25585">
        <ele>107.05000305176</ele>
        <time>2022-05-08T06:40:09Z</time>
      </trkpt>
      <trkpt lat="44.79874" lon="0.2555">
        <ele>107.05000305176</ele>
        <time>2022-05-08T06:40:15Z</time>
      </trkpt>
      <trkpt lat="44.7988" lon="0.25529">
        <ele>106.55000305176</ele>
        <time>2022-05-08T06:40:19Z</time>
      </trkpt>
      <trkpt lat="44.7989" lon="0.25518">
        <ele>106.5</ele>
        <time>2022-05-08T06:40:23Z</time>
      </trkpt>
      <trkpt lat="44.79907" lon="0.25527">
        <ele>105.5</ele>
        <time>2022-05-08T06:40:27Z</time>
      </trkpt>
      <trkpt lat="44.79925" lon="0.25529">
        <ele>105.5</ele>
        <time>2022-05-08T06:40:31Z</time>
      </trkpt>
      <trkpt lat="44.79937" lon="0.25505">
        <ele>101.55000305176</ele>
        <time>2022-05-08T06:40:35Z</time>
      </trkpt>
      <trkpt lat="44.79947" lon="0.25482">
        <ele>101.55000305176</ele>
        <time>2022-05-08T06:40:39Z</time>
      </trkpt>
      <trkpt lat="44.7996" lon="0.2546">
        <ele>102.55000305176</ele>
        <time>2022-05-08T06:40:43Z</time>
      </trkpt>
      <trkpt lat="44.79974" lon="0.25439">
        <ele>102.34999847412</ele>
        <time>2022-05-08T06:40:47Z</time>
      </trkpt>
      <trkpt lat="44.79988" lon="0.25418">
        <ele>101.84999847412</ele>
        <time>2022-05-08T06:40:51Z</time>
      </trkpt>
      <trkpt lat="44.80002" lon="0.25396">
        <ele>101.84999847412</ele>
        <time>2022-05-08T06:40:55Z</time>
      </trkpt>
      <trkpt lat="44.80017" lon="0.25373">
        <ele>101.75</ele>
        <time>2022-05-08T06:40:59Z</time>
      </trkpt>
      <trkpt lat="44.80032" lon="0.25349">
        <ele>101.75</ele>
        <time>2022-05-08T06:41:03Z</time>
      </trkpt>
      <trkpt lat="44.80046" lon="0.25324">
        <ele>101.25</ele>
        <time>2022-05-08T06:41:07Z</time>
      </trkpt>
      <trkpt lat="44.80059" lon="0.253">
        <ele>100.25</ele>
        <time>2022-05-08T06:41:11Z</time>
      </trkpt>
      <trkpt lat="44.80071" lon="0.25274">
        <ele>99.75</ele>
        <time>2022-05-08T06:41:15Z</time>
      </trkpt>
      <trkpt lat="44.80081" lon="0.25249">
        <ele>99.75</ele>
        <time>2022-05-08T06:41:19Z</time>
      </trkpt>
      <trkpt lat="44.8009" lon="0.25224">
        <ele>99.5</ele>
        <time>2022-05-08T06:41:23Z</time>
      </trkpt>
      <trkpt lat="44.80098" lon="0.25198">
        <ele>99.5</ele>
        <time>2022-05-08T06:41:27Z</time>
      </trkpt>
      <trkpt lat="44.80107" lon="0.25172">
        <ele>99</ele>
        <time>2022-05-08T06:41:31Z</time>
      </trkpt>
      <trkpt lat="44.80117" lon="0.25146">
        <ele>98.150001525879</ele>
        <time>2022-05-08T06:41:35Z</time>
      </trkpt>
      <trkpt lat="44.80127" lon="0.25121">
        <ele>100.15000152588</ele>
        <time>2022-05-08T06:41:39Z</time>
      </trkpt>
      <trkpt lat="44.80136" lon="0.25098">
        <ele>100.15000152588</ele>
        <time>2022-05-08T06:41:43Z</time>
      </trkpt>
      <trkpt lat="44.80146" lon="0.25075">
        <ele>97.900001525879</ele>
        <time>2022-05-08T06:41:47Z</time>
      </trkpt>
      <trkpt lat="44.80155" lon="0.25054">
        <ele>97.900001525879</ele>
        <time>2022-05-08T06:41:51Z</time>
      </trkpt>
      <trkpt lat="44.80169" lon="0.25027">
        <ele>97.900001525879</ele>
        <time>2022-05-08T06:41:57Z</time>
      </trkpt>
      <trkpt lat="44.80174" lon="0.25011">
        <ele>96.050003051758</ele>
        <time>2022-05-08T06:42:03Z</time>
      </trkpt>
      <trkpt lat="44.80158" lon="0.25006">
        <ele>96.650001525879</ele>
        <time>2022-05-08T06:42:13Z</time>
      </trkpt>
      <trkpt lat="44.80141" lon="0.25005">
        <ele>98.699996948242</ele>
        <time>2022-05-08T06:42:21Z</time>
      </trkpt>
      <trkpt lat="44.80124" lon="0.25009">
        <ele>98.699996948242</ele>
        <time>2022-05-08T06:42:27Z</time>
      </trkpt>
      <trkpt lat="44.80112" lon="0.25008">
        <ele>100.69999694824</ele>
        <time>2022-05-08T06:42:31Z</time>
      </trkpt>
      <trkpt lat="44.801" lon="0.25009">
        <ele>102.80000305176</ele>
        <time>2022-05-08T06:42:35Z</time>
      </trkpt>
      <trkpt lat="44.80088" lon="0.25005">
        <ele>103.80000305176</ele>
        <time>2022-05-08T06:42:39Z</time>
      </trkpt>
      <trkpt lat="44.80077" lon="0.25002">
        <ele>103.80000305176</ele>
        <time>2022-05-08T06:42:43Z</time>
      </trkpt>
      <trkpt lat="44.80067" lon="0.25001">
        <ele>105.69999694824</ele>
        <time>2022-05-08T06:42:47Z</time>
      </trkpt>
      <trkpt lat="44.80057" lon="0.24999">
        <ele>105.69999694824</ele>
        <time>2022-05-08T06:42:51Z</time>
      </trkpt>
      <trkpt lat="44.8004" lon="0.24994">
        <ele>104.19999694824</ele>
        <time>2022-05-08T06:42:57Z</time>
      </trkpt>
      <trkpt lat="44.80028" lon="0.2499">
        <ele>104</ele>
        <time>2022-05-08T06:43:01Z</time>
      </trkpt>
      <trkpt lat="44.80018" lon="0.24994">
        <ele>105.5</ele>
        <time>2022-05-08T06:43:05Z</time>
      </trkpt>
      <trkpt lat="44.80008" lon="0.25003">
        <ele>105.5</ele>
        <time>2022-05-08T06:43:09Z</time>
      </trkpt>
      <trkpt lat="44.79997" lon="0.25003">
        <ele>106.80000305176</ele>
        <time>2022-05-08T06:43:13Z</time>
      </trkpt>
      <trkpt lat="44.79985" lon="0.25001">
        <ele>106.80000305176</ele>
        <time>2022-05-08T06:43:17Z</time>
      </trkpt>
      <trkpt lat="44.79974" lon="0.24997">
        <ele>107.30000305176</ele>
        <time>2022-05-08T06:43:21Z</time>
      </trkpt>
      <trkpt lat="44.79958" lon="0.24988">
        <ele>108.15000152588</ele>
        <time>2022-05-08T06:43:27Z</time>
      </trkpt>
      <trkpt lat="44.79948" lon="0.24982">
        <ele>110.15000152588</ele>
        <time>2022-05-08T06:43:31Z</time>
      </trkpt>
      <trkpt lat="44.79937" lon="0.24973">
        <ele>111.59999847412</ele>
        <time>2022-05-08T06:43:35Z</time>
      </trkpt>
      <trkpt lat="44.79926" lon="0.24974">
        <ele>112.59999847412</ele>
        <time>2022-05-08T06:43:39Z</time>
      </trkpt>
      <trkpt lat="44.79915" lon="0.2497">
        <ele>112.59999847412</ele>
        <time>2022-05-08T06:43:43Z</time>
      </trkpt>
      <trkpt lat="44.79907" lon="0.24961">
        <ele>116.59999847412</ele>
        <time>2022-05-08T06:43:47Z</time>
      </trkpt>
      <trkpt lat="44.79896" lon="0.24954">
        <ele>116.59999847412</ele>
        <time>2022-05-08T06:43:51Z</time>
      </trkpt>
      <trkpt lat="44.79883" lon="0.24943">
        <ele>117.09999847412</ele>
        <time>2022-05-08T06:43:57Z</time>
      </trkpt>
      <trkpt lat="44.79866" lon="0.24938">
        <ele>118.59999847412</ele>
        <time>2022-05-08T06:44:05Z</time>
      </trkpt>
      <trkpt lat="44.79851" lon="0.24927">
        <ele>120.09999847412</ele>
        <time>2022-05-08T06:44:13Z</time>
      </trkpt>
      <trkpt lat="44.79851" lon="0.24906">
        <ele>120.59999847412</ele>
        <time>2022-05-08T06:44:19Z</time>
      </trkpt>
      <trkpt lat="44.79842" lon="0.2489">
        <ele>121.05000305176</ele>
        <time>2022-05-08T06:44:25Z</time>
      </trkpt>
      <trkpt lat="44.79842" lon="0.24878">
        <ele>121.05000305176</ele>
        <time>2022-05-08T06:44:29Z</time>
      </trkpt>
      <trkpt lat="44.79836" lon="0.24858">
        <ele>121.05000305176</ele>
        <time>2022-05-08T06:44:35Z</time>
      </trkpt>
      <trkpt lat="44.79834" lon="0.24835">
        <ele>120.90000152588</ele>
        <time>2022-05-08T06:44:43Z</time>
      </trkpt>
      <trkpt lat="44.79856" lon="0.24842">
        <ele>120.90000152588</ele>
        <time>2022-05-08T06:44:51Z</time>
      </trkpt>
      <trkpt lat="44.79876" lon="0.2485">
        <ele>120.90000152588</ele>
        <time>2022-05-08T06:44:55Z</time>
      </trkpt>
      <trkpt lat="44.79896" lon="0.24851">
        <ele>119.90000152588</ele>
        <time>2022-05-08T06:44:59Z</time>
      </trkpt>
      <trkpt lat="44.7992" lon="0.24848">
        <ele>118.19999694824</ele>
        <time>2022-05-08T06:45:03Z</time>
      </trkpt>
      <trkpt lat="44.79932" lon="0.24834">
        <ele>117.69999694824</ele>
        <time>2022-05-08T06:45:07Z</time>
      </trkpt>
      <trkpt lat="44.7994" lon="0.24813">
        <ele>117.69999694824</ele>
        <time>2022-05-08T06:45:11Z</time>
      </trkpt>
      <trkpt lat="44.79948" lon="0.24781">
        <ele>115.34999847412</ele>
        <time>2022-05-08T06:45:17Z</time>
      </trkpt>
      <trkpt lat="44.79953" lon="0.24762">
        <ele>115.34999847412</ele>
        <time>2022-05-08T06:45:21Z</time>
      </trkpt>
      <trkpt lat="44.79958" lon="0.2474">
        <ele>115.34999847412</ele>
        <time>2022-05-08T06:45:25Z</time>
      </trkpt>
      <trkpt lat="44.79962" lon="0.2472">
        <ele>115.15000152588</ele>
        <time>2022-05-08T06:45:29Z</time>
      </trkpt>
      <trkpt lat="44.79976" lon="0.24718">
        <ele>115.15000152588</ele>
        <time>2022-05-08T06:45:33Z</time>
      </trkpt>
      <trkpt lat="44.79986" lon="0.2471">
        <ele>115.65000152588</ele>
        <time>2022-05-08T06:45:37Z</time>
      </trkpt>
      <trkpt lat="44.79987" lon="0.24694">
        <ele>113.94999694824</ele>
        <time>2022-05-08T06:45:41Z</time>
      </trkpt>
      <trkpt lat="44.79988" lon="0.24678">
        <ele>113.94999694824</ele>
        <time>2022-05-08T06:45:45Z</time>
      </trkpt>
      <trkpt lat="44.79991" lon="0.24663">
        <ele>113.94999694824</ele>
        <time>2022-05-08T06:45:49Z</time>
      </trkpt>
      <trkpt lat="44.79993" lon="0.2465">
        <ele>116.84999847412</ele>
        <time>2022-05-08T06:45:53Z</time>
      </trkpt>
      <trkpt lat="44.79992" lon="0.24635">
        <ele>116.84999847412</ele>
        <time>2022-05-08T06:45:57Z</time>
      </trkpt>
      <trkpt lat="44.79995" lon="0.24613">
        <ele>116.84999847412</ele>
        <time>2022-05-08T06:46:03Z</time>
      </trkpt>
      <trkpt lat="44.79998" lon="0.246">
        <ele>117.40000152588</ele>
        <time>2022-05-08T06:46:07Z</time>
      </trkpt>
      <trkpt lat="44.80005" lon="0.24585">
        <ele>117.40000152588</ele>
        <time>2022-05-08T06:46:11Z</time>
      </trkpt>
      <trkpt lat="44.8001" lon="0.24568">
        <ele>117.40000152588</ele>
        <time>2022-05-08T06:46:15Z</time>
      </trkpt>
      <trkpt lat="44.80002" lon="0.24558">
        <ele>116.80000305176</ele>
        <time>2022-05-08T06:46:19Z</time>
      </trkpt>
      <trkpt lat="44.7999" lon="0.24553">
        <ele>116.80000305176</ele>
        <time>2022-05-08T06:46:23Z</time>
      </trkpt>
      <trkpt lat="44.79981" lon="0.24548">
        <ele>116.80000305176</ele>
        <time>2022-05-08T06:46:27Z</time>
      </trkpt>
      <trkpt lat="44.79971" lon="0.24543">
        <ele>118.15000152588</ele>
        <time>2022-05-08T06:46:31Z</time>
      </trkpt>
      <trkpt lat="44.79962" lon="0.24537">
        <ele>118.15000152588</ele>
        <time>2022-05-08T06:46:35Z</time>
      </trkpt>
      <trkpt lat="44.79953" lon="0.24532">
        <ele>118.15000152588</ele>
        <time>2022-05-08T06:46:39Z</time>
      </trkpt>
      <trkpt lat="44.79957" lon="0.24511">
        <ele>119.19999694824</ele>
        <time>2022-05-08T06:46:45Z</time>
      </trkpt>
      <trkpt lat="44.79948" lon="0.24494">
        <ele>118.69999694824</ele>
        <time>2022-05-08T06:46:53Z</time>
      </trkpt>
      <trkpt lat="44.79938" lon="0.24491">
        <ele>118.69999694824</ele>
        <time>2022-05-08T06:46:57Z</time>
      </trkpt>
      <trkpt lat="44.79928" lon="0.24487">
        <ele>118.69999694824</ele>
        <time>2022-05-08T06:47:01Z</time>
      </trkpt>
      <trkpt lat="44.79918" lon="0.24484">
        <ele>118.69999694824</ele>
        <time>2022-05-08T06:47:05Z</time>
      </trkpt>
      <trkpt lat="44.79907" lon="0.2448">
        <ele>118.34999847412</ele>
        <time>2022-05-08T06:47:09Z</time>
      </trkpt>
      <trkpt lat="44.79892" lon="0.24479">
        <ele>118.34999847412</ele>
        <time>2022-05-08T06:47:17Z</time>
      </trkpt>
      <trkpt lat="44.79887" lon="0.24499">
        <ele>117.90000152588</ele>
        <time>2022-05-08T06:47:21Z</time>
      </trkpt>
      <trkpt lat="44.79881" lon="0.24516">
        <ele>117.90000152588</ele>
        <time>2022-05-08T06:47:25Z</time>
      </trkpt>
      <trkpt lat="44.79873" lon="0.24534">
        <ele>117.90000152588</ele>
        <time>2022-05-08T06:47:29Z</time>
      </trkpt>
      <trkpt lat="44.79865" lon="0.24551">
        <ele>117.90000152588</ele>
        <time>2022-05-08T06:47:33Z</time>
      </trkpt>
      <trkpt lat="44.79857" lon="0.24568">
        <ele>117.90000152588</ele>
        <time>2022-05-08T06:47:37Z</time>
      </trkpt>
      <trkpt lat="44.79848" lon="0.24582">
        <ele>117.90000152588</ele>
        <time>2022-05-08T06:47:41Z</time>
      </trkpt>
      <trkpt lat="44.7984" lon="0.24599">
        <ele>118.40000152588</ele>
        <time>2022-05-08T06:47:45Z</time>
      </trkpt>
      <trkpt lat="44.79824" lon="0.24624">
        <ele>118.90000152588</ele>
        <time>2022-05-08T06:47:51Z</time>
      </trkpt>
      <trkpt lat="44.79812" lon="0.24642">
        <ele>118.90000152588</ele>
        <time>2022-05-08T06:47:55Z</time>
      </trkpt>
      <trkpt lat="44.79791" lon="0.24672">
        <ele>119.05000305176</ele>
        <time>2022-05-08T06:48:01Z</time>
      </trkpt>
      <trkpt lat="44.79784" lon="0.24682">
        <ele>119.05000305176</ele>
        <time>2022-05-08T06:48:03Z</time>
      </trkpt>
      <trkpt lat="44.7977" lon="0.24703">
        <ele>119.05000305176</ele>
        <time>2022-05-08T06:48:07Z</time>
      </trkpt>
      <trkpt lat="44.79758" lon="0.24719">
        <ele>118.09999847412</ele>
        <time>2022-05-08T06:48:11Z</time>
      </trkpt>
      <trkpt lat="44.79747" lon="0.24735">
        <ele>118.09999847412</ele>
        <time>2022-05-08T06:48:15Z</time>
      </trkpt>
      <trkpt lat="44.79739" lon="0.24756">
        <ele>118.09999847412</ele>
        <time>2022-05-08T06:48:19Z</time>
      </trkpt>
      <trkpt lat="44.79719" lon="0.24781">
        <ele>117.94999694824</ele>
        <time>2022-05-08T06:48:25Z</time>
      </trkpt>
      <trkpt lat="44.79711" lon="0.24797">
        <ele>118.44999694824</ele>
        <time>2022-05-08T06:48:29Z</time>
      </trkpt>
      <trkpt lat="44.79722" lon="0.24807">
        <ele>118.44999694824</ele>
        <time>2022-05-08T06:48:33Z</time>
      </trkpt>
      <trkpt lat="44.79734" lon="0.24811">
        <ele>119.15000152588</ele>
        <time>2022-05-08T06:48:37Z</time>
      </trkpt>
      <trkpt lat="44.79747" lon="0.24816">
        <ele>119.15000152588</ele>
        <time>2022-05-08T06:48:41Z</time>
      </trkpt>
      <trkpt lat="44.79767" lon="0.24824">
        <ele>119.15000152588</ele>
        <time>2022-05-08T06:48:47Z</time>
      </trkpt>
      <trkpt lat="44.79778" lon="0.24836">
        <ele>119.75</ele>
        <time>2022-05-08T06:48:51Z</time>
      </trkpt>
      <trkpt lat="44.79775" lon="0.24856">
        <ele>119.75</ele>
        <time>2022-05-08T06:48:55Z</time>
      </trkpt>
      <trkpt lat="44.79773" lon="0.24882">
        <ele>121.75</ele>
        <time>2022-05-08T06:49:01Z</time>
      </trkpt>
      <trkpt lat="44.7977" lon="0.24899">
        <ele>121.75</ele>
        <time>2022-05-08T06:49:05Z</time>
      </trkpt>
      <trkpt lat="44.79764" lon="0.24925">
        <ele>121.75</ele>
        <time>2022-05-08T06:49:11Z</time>
      </trkpt>
      <trkpt lat="44.79754" lon="0.24939">
        <ele>122.25</ele>
        <time>2022-05-08T06:49:15Z</time>
      </trkpt>
      <trkpt lat="44.79741" lon="0.24936">
        <ele>122.65000152588</ele>
        <time>2022-05-08T06:49:19Z</time>
      </trkpt>
      <trkpt lat="44.79728" lon="0.2496">
        <ele>122.65000152588</ele>
        <time>2022-05-08T06:49:25Z</time>
      </trkpt>
      <trkpt lat="44.79721" lon="0.24977">
        <ele>122.65000152588</ele>
        <time>2022-05-08T06:49:29Z</time>
      </trkpt>
      <trkpt lat="44.79706" lon="0.25001">
        <ele>123.05000305176</ele>
        <time>2022-05-08T06:49:35Z</time>
      </trkpt>
      <trkpt lat="44.79696" lon="0.25016">
        <ele>124.05000305176</ele>
        <time>2022-05-08T06:49:39Z</time>
      </trkpt>
      <trkpt lat="44.7968" lon="0.25025">
        <ele>124.05000305176</ele>
        <time>2022-05-08T06:49:43Z</time>
      </trkpt>
      <trkpt lat="44.79664" lon="0.2503">
        <ele>123.84999847412</ele>
        <time>2022-05-08T06:49:47Z</time>
      </trkpt>
      <trkpt lat="44.79649" lon="0.25035">
        <ele>123.84999847412</ele>
        <time>2022-05-08T06:49:51Z</time>
      </trkpt>
      <trkpt lat="44.79628" lon="0.25043">
        <ele>123.84999847412</ele>
        <time>2022-05-08T06:49:57Z</time>
      </trkpt>
      <trkpt lat="44.79613" lon="0.25047">
        <ele>124.55000305176</ele>
        <time>2022-05-08T06:50:01Z</time>
      </trkpt>
      <trkpt lat="44.79598" lon="0.25052">
        <ele>124.55000305176</ele>
        <time>2022-05-08T06:50:05Z</time>
      </trkpt>
      <trkpt lat="44.79583" lon="0.25056">
        <ele>124.55000305176</ele>
        <time>2022-05-08T06:50:09Z</time>
      </trkpt>
      <trkpt lat="44.79568" lon="0.25061">
        <ele>124.40000152588</ele>
        <time>2022-05-08T06:50:13Z</time>
      </trkpt>
      <trkpt lat="44.79549" lon="0.25066">
        <ele>124.40000152588</ele>
        <time>2022-05-08T06:50:17Z</time>
      </trkpt>
      <trkpt lat="44.7953" lon="0.25072">
        <ele>124.40000152588</ele>
        <time>2022-05-08T06:50:21Z</time>
      </trkpt>
      <trkpt lat="44.79509" lon="0.25079">
        <ele>124.34999847412</ele>
        <time>2022-05-08T06:50:25Z</time>
      </trkpt>
      <trkpt lat="44.79487" lon="0.25086">
        <ele>124.34999847412</ele>
        <time>2022-05-08T06:50:29Z</time>
      </trkpt>
      <trkpt lat="44.79465" lon="0.25093">
        <ele>126.84999847412</ele>
        <time>2022-05-08T06:50:33Z</time>
      </trkpt>
      <trkpt lat="44.79441" lon="0.25102">
        <ele>126.15000152588</ele>
        <time>2022-05-08T06:50:37Z</time>
      </trkpt>
      <trkpt lat="44.79421" lon="0.25108">
        <ele>125.65000152588</ele>
        <time>2022-05-08T06:50:41Z</time>
      </trkpt>
      <trkpt lat="44.79405" lon="0.25114">
        <ele>125.65000152588</ele>
        <time>2022-05-08T06:50:45Z</time>
      </trkpt>
      <trkpt lat="44.79392" lon="0.25108">
        <ele>125.05000305176</ele>
        <time>2022-05-08T06:50:49Z</time>
      </trkpt>
      <trkpt lat="44.7938" lon="0.2509">
        <ele>125.05000305176</ele>
        <time>2022-05-08T06:50:53Z</time>
      </trkpt>
      <trkpt lat="44.79367" lon="0.2507">
        <ele>125.05000305176</ele>
        <time>2022-05-08T06:50:59Z</time>
      </trkpt>
      <trkpt lat="44.79357" lon="0.25066">
        <ele>124.34999847412</ele>
        <time>2022-05-08T06:51:07Z</time>
      </trkpt>
      <trkpt lat="44.79342" lon="0.25081">
        <ele>123.90000152588</ele>
        <time>2022-05-08T06:51:17Z</time>
      </trkpt>
      <trkpt lat="44.7933" lon="0.25091">
        <ele>124.40000152588</ele>
        <time>2022-05-08T06:51:21Z</time>
      </trkpt>
      <trkpt lat="44.79317" lon="0.25099">
        <ele>124.40000152588</ele>
        <time>2022-05-08T06:51:25Z</time>
      </trkpt>
      <trkpt lat="44.79301" lon="0.25114">
        <ele>123.59999847412</ele>
        <time>2022-05-08T06:51:31Z</time>
      </trkpt>
      <trkpt lat="44.7929" lon="0.25126">
        <ele>123.59999847412</ele>
        <time>2022-05-08T06:51:35Z</time>
      </trkpt>
      <trkpt lat="44.79273" lon="0.2514">
        <ele>123.59999847412</ele>
        <time>2022-05-08T06:51:41Z</time>
      </trkpt>
      <trkpt lat="44.7926" lon="0.25149">
        <ele>124.55000305176</ele>
        <time>2022-05-08T06:51:45Z</time>
      </trkpt>
      <trkpt lat="44.79247" lon="0.25155">
        <ele>124.55000305176</ele>
        <time>2022-05-08T06:51:49Z</time>
      </trkpt>
      <trkpt lat="44.79236" lon="0.25146">
        <ele>124.05000305176</ele>
        <time>2022-05-08T06:51:53Z</time>
      </trkpt>
      <trkpt lat="44.79219" lon="0.25121">
        <ele>125</ele>
        <time>2022-05-08T06:51:59Z</time>
      </trkpt>
      <trkpt lat="44.79206" lon="0.25109">
        <ele>125.5</ele>
        <time>2022-05-08T06:52:03Z</time>
      </trkpt>
      <trkpt lat="44.79195" lon="0.25102">
        <ele>125.5</ele>
        <time>2022-05-08T06:52:07Z</time>
      </trkpt>
      <trkpt lat="44.79176" lon="0.25107">
        <ele>125.59999847412</ele>
        <time>2022-05-08T06:52:13Z</time>
      </trkpt>
      <trkpt lat="44.79167" lon="0.25098">
        <ele>126.09999847412</ele>
        <time>2022-05-08T06:52:17Z</time>
      </trkpt>
      <trkpt lat="44.79152" lon="0.25086">
        <ele>126.15000152588</ele>
        <time>2022-05-08T06:52:21Z</time>
      </trkpt>
      <trkpt lat="44.79133" lon="0.25081">
        <ele>126.15000152588</ele>
        <time>2022-05-08T06:52:27Z</time>
      </trkpt>
      <trkpt lat="44.79119" lon="0.25083">
        <ele>126.15000152588</ele>
        <time>2022-05-08T06:52:31Z</time>
      </trkpt>
      <trkpt lat="44.791" lon="0.25073">
        <ele>123.65000152588</ele>
        <time>2022-05-08T06:52:37Z</time>
      </trkpt>
      <trkpt lat="44.79083" lon="0.25068">
        <ele>123.15000152588</ele>
        <time>2022-05-08T06:52:41Z</time>
      </trkpt>
      <trkpt lat="44.79068" lon="0.25046">
        <ele>120.55000305176</ele>
        <time>2022-05-08T06:52:47Z</time>
      </trkpt>
      <trkpt lat="44.79062" lon="0.25034">
        <ele>120.05000305176</ele>
        <time>2022-05-08T06:52:51Z</time>
      </trkpt>
      <trkpt lat="44.79055" lon="0.2502">
        <ele>120.05000305176</ele>
        <time>2022-05-08T06:52:55Z</time>
      </trkpt>
      <trkpt lat="44.79046" lon="0.25006">
        <ele>119.25</ele>
        <time>2022-05-08T06:52:59Z</time>
      </trkpt>
      <trkpt lat="44.79037" lon="0.24992">
        <ele>119.25</ele>
        <time>2022-05-08T06:53:03Z</time>
      </trkpt>
      <trkpt lat="44.79023" lon="0.24989">
        <ele>116.25</ele>
        <time>2022-05-08T06:53:07Z</time>
      </trkpt>
      <trkpt lat="44.79008" lon="0.24968">
        <ele>114.65000152588</ele>
        <time>2022-05-08T06:53:13Z</time>
      </trkpt>
      <trkpt lat="44.79008" lon="0.24948">
        <ele>113.65000152588</ele>
        <time>2022-05-08T06:53:17Z</time>
      </trkpt>
      <trkpt lat="44.79021" lon="0.24929">
        <ele>113.65000152588</ele>
        <time>2022-05-08T06:53:21Z</time>
      </trkpt>
      <trkpt lat="44.79032" lon="0.24932">
        <ele>113.19999694824</ele>
        <time>2022-05-08T06:53:25Z</time>
      </trkpt>
      <trkpt lat="44.7904" lon="0.24951">
        <ele>114.19999694824</ele>
        <time>2022-05-08T06:53:33Z</time>
      </trkpt>
      <trkpt lat="44.79044" lon="0.24967">
        <ele>114.30000305176</ele>
        <time>2022-05-08T06:53:39Z</time>
      </trkpt>
      <trkpt lat="44.79056" lon="0.24967">
        <ele>114.30000305176</ele>
        <time>2022-05-08T06:53:43Z</time>
      </trkpt>
      <trkpt lat="44.79077" lon="0.24947">
        <ele>114.30000305176</ele>
        <time>2022-05-08T06:53:49Z</time>
      </trkpt>
      <trkpt lat="44.79091" lon="0.24937">
        <ele>117.90000152588</ele>
        <time>2022-05-08T06:53:53Z</time>
      </trkpt>
      <trkpt lat="44.79104" lon="0.24928">
        <ele>117.90000152588</ele>
        <time>2022-05-08T06:53:57Z</time>
      </trkpt>
      <trkpt lat="44.7911" lon="0.2491">
        <ele>118.40000152588</ele>
        <time>2022-05-08T06:54:01Z</time>
      </trkpt>
      <trkpt lat="44.79123" lon="0.24905">
        <ele>118.25</ele>
        <time>2022-05-08T06:54:05Z</time>
      </trkpt>
      <trkpt lat="44.79137" lon="0.24899">
        <ele>117.25</ele>
        <time>2022-05-08T06:54:09Z</time>
      </trkpt>
      <trkpt lat="44.79152" lon="0.24903">
        <ele>117.25</ele>
        <time>2022-05-08T06:54:13Z</time>
      </trkpt>
      <trkpt lat="44.79165" lon="0.24913">
        <ele>119.09999847412</ele>
        <time>2022-05-08T06:54:19Z</time>
      </trkpt>
      <trkpt lat="44.79177" lon="0.24926">
        <ele>119.09999847412</ele>
        <time>2022-05-08T06:54:25Z</time>
      </trkpt>
      <trkpt lat="44.79184" lon="0.24935">
        <ele>121.09999847412</ele>
        <time>2022-05-08T06:54:29Z</time>
      </trkpt>
      <trkpt lat="44.79192" lon="0.24947">
        <ele>122.30000305176</ele>
        <time>2022-05-08T06:54:33Z</time>
      </trkpt>
      <trkpt lat="44.79205" lon="0.24968">
        <ele>122.30000305176</ele>
        <time>2022-05-08T06:54:39Z</time>
      </trkpt>
      <trkpt lat="44.79211" lon="0.24984">
        <ele>122.30000305176</ele>
        <time>2022-05-08T06:54:43Z</time>
      </trkpt>
      <trkpt lat="44.79218" lon="0.24998">
        <ele>120.34999847412</ele>
        <time>2022-05-08T06:54:47Z</time>
      </trkpt>
      <trkpt lat="44.79227" lon="0.24989">
        <ele>120.34999847412</ele>
        <time>2022-05-08T06:54:51Z</time>
      </trkpt>
      <trkpt lat="44.79236" lon="0.24983">
        <ele>120.34999847412</ele>
        <time>2022-05-08T06:54:55Z</time>
      </trkpt>
      <trkpt lat="44.79245" lon="0.24974">
        <ele>122.25</ele>
        <time>2022-05-08T06:54:59Z</time>
      </trkpt>
      <trkpt lat="44.79252" lon="0.24962">
        <ele>122.25</ele>
        <time>2022-05-08T06:55:03Z</time>
      </trkpt>
      <trkpt lat="44.79258" lon="0.24938">
        <ele>122.25</ele>
        <time>2022-05-08T06:55:09Z</time>
      </trkpt>
      <trkpt lat="44.79258" lon="0.24925">
        <ele>122.09999847412</ele>
        <time>2022-05-08T06:55:15Z</time>
      </trkpt>
      <trkpt lat="44.79255" lon="0.24907">
        <ele>122.09999847412</ele>
        <time>2022-05-08T06:55:23Z</time>
      </trkpt>
      <trkpt lat="44.79242" lon="0.24897">
        <ele>119.15000152588</ele>
        <time>2022-05-08T06:55:27Z</time>
      </trkpt>
      <trkpt lat="44.79226" lon="0.24871">
        <ele>119.15000152588</ele>
        <time>2022-05-08T06:55:33Z</time>
      </trkpt>
      <trkpt lat="44.79218" lon="0.2485">
        <ele>117.80000305176</ele>
        <time>2022-05-08T06:55:37Z</time>
      </trkpt>
      <trkpt lat="44.79226" lon="0.24819">
        <ele>117.80000305176</ele>
        <time>2022-05-08T06:55:43Z</time>
      </trkpt>
      <trkpt lat="44.79235" lon="0.24793">
        <ele>117.30000305176</ele>
        <time>2022-05-08T06:55:49Z</time>
      </trkpt>
      <trkpt lat="44.79251" lon="0.24787">
        <ele>119.65000152588</ele>
        <time>2022-05-08T06:55:55Z</time>
      </trkpt>
      <trkpt lat="44.79263" lon="0.24776">
        <ele>119.65000152588</ele>
        <time>2022-05-08T06:55:59Z</time>
      </trkpt>
      <trkpt lat="44.79281" lon="0.24758">
        <ele>119.65000152588</ele>
        <time>2022-05-08T06:56:05Z</time>
      </trkpt>
      <trkpt lat="44.79292" lon="0.24746">
        <ele>120.15000152588</ele>
        <time>2022-05-08T06:56:09Z</time>
      </trkpt>
      <trkpt lat="44.79272" lon="0.24738">
        <ele>121.19999694824</ele>
        <time>2022-05-08T06:56:15Z</time>
      </trkpt>
      <trkpt lat="44.79237" lon="0.24735">
        <ele>121.19999694824</ele>
        <time>2022-05-08T06:56:21Z</time>
      </trkpt>
      <trkpt lat="44.79211" lon="0.24731">
        <ele>118.30000305176</ele>
        <time>2022-05-08T06:56:25Z</time>
      </trkpt>
      <trkpt lat="44.79174" lon="0.24737">
        <ele>118.30000305176</ele>
        <time>2022-05-08T06:56:31Z</time>
      </trkpt>
      <trkpt lat="44.79159" lon="0.24716">
        <ele>113.34999847412</ele>
        <time>2022-05-08T06:56:37Z</time>
      </trkpt>
      <trkpt lat="44.79162" lon="0.24699">
        <ele>112.34999847412</ele>
        <time>2022-05-08T06:56:41Z</time>
      </trkpt>
      <trkpt lat="44.79163" lon="0.24685">
        <ele>112.34999847412</ele>
        <time>2022-05-08T06:56:45Z</time>
      </trkpt>
      <trkpt lat="44.79168" lon="0.24672">
        <ele>111.44999694824</ele>
        <time>2022-05-08T06:56:49Z</time>
      </trkpt>
      <trkpt lat="44.79171" lon="0.24646">
        <ele>111.44999694824</ele>
        <time>2022-05-08T06:56:55Z</time>
      </trkpt>
      <trkpt lat="44.79173" lon="0.24629">
        <ele>110.94999694824</ele>
        <time>2022-05-08T06:56:59Z</time>
      </trkpt>
      <trkpt lat="44.79181" lon="0.24597">
        <ele>111.19999694824</ele>
        <time>2022-05-08T06:57:05Z</time>
      </trkpt>
      <trkpt lat="44.79182" lon="0.24576">
        <ele>111.69999694824</ele>
        <time>2022-05-08T06:57:09Z</time>
      </trkpt>
      <trkpt lat="44.79184" lon="0.24557">
        <ele>111.69999694824</ele>
        <time>2022-05-08T06:57:13Z</time>
      </trkpt>
      <trkpt lat="44.79173" lon="0.24549">
        <ele>113.15000152588</ele>
        <time>2022-05-08T06:57:17Z</time>
      </trkpt>
      <trkpt lat="44.79165" lon="0.24564">
        <ele>113.15000152588</ele>
        <time>2022-05-08T06:57:21Z</time>
      </trkpt>
      <trkpt lat="44.79143" lon="0.2457">
        <ele>113.15000152588</ele>
        <time>2022-05-08T06:57:27Z</time>
      </trkpt>
      <trkpt lat="44.79135" lon="0.24582">
        <ele>110.30000305176</ele>
        <time>2022-05-08T06:57:31Z</time>
      </trkpt>
      <trkpt lat="44.79108" lon="0.24587">
        <ele>110.30000305176</ele>
        <time>2022-05-08T06:57:37Z</time>
      </trkpt>
      <trkpt lat="44.79093" lon="0.24575">
        <ele>108.80000305176</ele>
        <time>2022-05-08T06:57:41Z</time>
      </trkpt>
      <trkpt lat="44.79083" lon="0.24537">
        <ele>105.25</ele>
        <time>2022-05-08T06:57:47Z</time>
      </trkpt>
      <trkpt lat="44.79086" lon="0.24506">
        <ele>102.75</ele>
        <time>2022-05-08T06:57:51Z</time>
      </trkpt>
      <trkpt lat="44.79084" lon="0.24479">
        <ele>102.75</ele>
        <time>2022-05-08T06:57:55Z</time>
      </trkpt>
      <trkpt lat="44.79089" lon="0.2445">
        <ele>100.15000152588</ele>
        <time>2022-05-08T06:57:59Z</time>
      </trkpt>
      <trkpt lat="44.79095" lon="0.24426">
        <ele>100.15000152588</ele>
        <time>2022-05-08T06:58:03Z</time>
      </trkpt>
      <trkpt lat="44.79103" lon="0.24402">
        <ele>100.65000152588</ele>
        <time>2022-05-08T06:58:07Z</time>
      </trkpt>
      <trkpt lat="44.79117" lon="0.24391">
        <ele>100.84999847412</ele>
        <time>2022-05-08T06:58:11Z</time>
      </trkpt>
      <trkpt lat="44.79127" lon="0.24397">
        <ele>100.84999847412</ele>
        <time>2022-05-08T06:58:15Z</time>
      </trkpt>
      <trkpt lat="44.79138" lon="0.24402">
        <ele>100.84999847412</ele>
        <time>2022-05-08T06:58:19Z</time>
      </trkpt>
      <trkpt lat="44.79148" lon="0.24406">
        <ele>103.65000152588</ele>
        <time>2022-05-08T06:58:23Z</time>
      </trkpt>
      <trkpt lat="44.7916" lon="0.24412">
        <ele>103.65000152588</ele>
        <time>2022-05-08T06:58:27Z</time>
      </trkpt>
      <trkpt lat="44.79169" lon="0.24412">
        <ele>104.15000152588</ele>
        <time>2022-05-08T06:58:31Z</time>
      </trkpt>
      <trkpt lat="44.79185" lon="0.24409">
        <ele>106.44999694824</ele>
        <time>2022-05-08T06:58:39Z</time>
      </trkpt>
      <trkpt lat="44.79198" lon="0.24411">
        <ele>109.34999847412</ele>
        <time>2022-05-08T06:58:47Z</time>
      </trkpt>
      <trkpt lat="44.79212" lon="0.24411">
        <ele>110.34999847412</ele>
        <time>2022-05-08T06:58:55Z</time>
      </trkpt>
      <trkpt lat="44.79221" lon="0.24418">
        <ele>112.84999847412</ele>
        <time>2022-05-08T06:59:01Z</time>
      </trkpt>
      <trkpt lat="44.79234" lon="0.24422">
        <ele>112.84999847412</ele>
        <time>2022-05-08T06:59:05Z</time>
      </trkpt>
      <trkpt lat="44.79244" lon="0.24422">
        <ele>113.84999847412</ele>
        <time>2022-05-08T06:59:09Z</time>
      </trkpt>
      <trkpt lat="44.79246" lon="0.24406">
        <ele>111.65000152588</ele>
        <time>2022-05-08T06:59:13Z</time>
      </trkpt>
      <trkpt lat="44.79247" lon="0.24389">
        <ele>111.65000152588</ele>
        <time>2022-05-08T06:59:17Z</time>
      </trkpt>
      <trkpt lat="44.7925" lon="0.24376">
        <ele>112.65000152588</ele>
        <time>2022-05-08T06:59:21Z</time>
      </trkpt>
      <trkpt lat="44.79253" lon="0.24355">
        <ele>113.75</ele>
        <time>2022-05-08T06:59:29Z</time>
      </trkpt>
      <trkpt lat="44.79246" lon="0.24334">
        <ele>113.75</ele>
        <time>2022-05-08T06:59:41Z</time>
      </trkpt>
      <trkpt lat="44.79227" lon="0.24302">
        <ele>113.75</ele>
        <time>2022-05-08T06:59:47Z</time>
      </trkpt>
      <trkpt lat="44.79211" lon="0.24276">
        <ele>111.15000152588</ele>
        <time>2022-05-08T06:59:51Z</time>
      </trkpt>
      <trkpt lat="44.79192" lon="0.24255">
        <ele>111.15000152588</ele>
        <time>2022-05-08T06:59:55Z</time>
      </trkpt>
      <trkpt lat="44.7918" lon="0.24225">
        <ele>111.15000152588</ele>
        <time>2022-05-08T06:59:59Z</time>
      </trkpt>
      <trkpt lat="44.79184" lon="0.24206">
        <ele>107.94999694824</ele>
        <time>2022-05-08T07:00:03Z</time>
      </trkpt>
      <trkpt lat="44.79195" lon="0.24207">
        <ele>107.94999694824</ele>
        <time>2022-05-08T07:00:07Z</time>
      </trkpt>
      <trkpt lat="44.79208" lon="0.24196">
        <ele>107.94999694824</ele>
        <time>2022-05-08T07:00:13Z</time>
      </trkpt>
      <trkpt lat="44.79217" lon="0.24178">
        <ele>108.40000152588</ele>
        <time>2022-05-08T07:00:21Z</time>
      </trkpt>
      <trkpt lat="44.79227" lon="0.24161">
        <ele>110.15000152588</ele>
        <time>2022-05-08T07:00:31Z</time>
      </trkpt>
      <trkpt lat="44.79237" lon="0.24159">
        <ele>110.15000152588</ele>
        <time>2022-05-08T07:00:35Z</time>
      </trkpt>
      <trkpt lat="44.79254" lon="0.24161">
        <ele>111.15000152588</ele>
        <time>2022-05-08T07:00:43Z</time>
      </trkpt>
      <trkpt lat="44.79271" lon="0.2416">
        <ele>112.15000152588</ele>
        <time>2022-05-08T07:00:51Z</time>
      </trkpt>
      <trkpt lat="44.79283" lon="0.24161">
        <ele>114.55000305176</ele>
        <time>2022-05-08T07:00:55Z</time>
      </trkpt>
      <trkpt lat="44.79295" lon="0.24161">
        <ele>115.05000305176</ele>
        <time>2022-05-08T07:00:59Z</time>
      </trkpt>
      <trkpt lat="44.79306" lon="0.24161">
        <ele>115.05000305176</ele>
        <time>2022-05-08T07:01:03Z</time>
      </trkpt>
      <trkpt lat="44.79317" lon="0.24162">
        <ele>117.19999694824</ele>
        <time>2022-05-08T07:01:07Z</time>
      </trkpt>
      <trkpt lat="44.79334" lon="0.24164">
        <ele>117.19999694824</ele>
        <time>2022-05-08T07:01:13Z</time>
      </trkpt>
      <trkpt lat="44.79344" lon="0.24174">
        <ele>118.19999694824</ele>
        <time>2022-05-08T07:01:17Z</time>
      </trkpt>
      <trkpt lat="44.79343" lon="0.242">
        <ele>116</ele>
        <time>2022-05-08T07:01:25Z</time>
      </trkpt>
      <trkpt lat="44.79347" lon="0.24215">
        <ele>116</ele>
        <time>2022-05-08T07:01:29Z</time>
      </trkpt>
      <trkpt lat="44.79354" lon="0.24221">
        <ele>117.30000305176</ele>
        <time>2022-05-08T07:01:33Z</time>
      </trkpt>
      <trkpt lat="44.79364" lon="0.24229">
        <ele>116.80000305176</ele>
        <time>2022-05-08T07:01:37Z</time>
      </trkpt>
      <trkpt lat="44.79375" lon="0.24241">
        <ele>116.80000305176</ele>
        <time>2022-05-08T07:01:41Z</time>
      </trkpt>
      <trkpt lat="44.79384" lon="0.24256">
        <ele>118.40000152588</ele>
        <time>2022-05-08T07:01:45Z</time>
      </trkpt>
      <trkpt lat="44.79398" lon="0.24267">
        <ele>118.40000152588</ele>
        <time>2022-05-08T07:01:49Z</time>
      </trkpt>
      <trkpt lat="44.79407" lon="0.24276">
        <ele>119.40000152588</ele>
        <time>2022-05-08T07:01:53Z</time>
      </trkpt>
      <trkpt lat="44.79422" lon="0.24286">
        <ele>118.44999694824</ele>
        <time>2022-05-08T07:01:57Z</time>
      </trkpt>
      <trkpt lat="44.79439" lon="0.24288">
        <ele>117.94999694824</ele>
        <time>2022-05-08T07:02:01Z</time>
      </trkpt>
      <trkpt lat="44.79463" lon="0.24304">
        <ele>117.94999694824</ele>
        <time>2022-05-08T07:02:07Z</time>
      </trkpt>
      <trkpt lat="44.79476" lon="0.24313">
        <ele>114.90000152588</ele>
        <time>2022-05-08T07:02:11Z</time>
      </trkpt>
      <trkpt lat="44.79486" lon="0.243">
        <ele>114.90000152588</ele>
        <time>2022-05-08T07:02:15Z</time>
      </trkpt>
      <trkpt lat="44.79496" lon="0.24284">
        <ele>114.40000152588</ele>
        <time>2022-05-08T07:02:19Z</time>
      </trkpt>
      <trkpt lat="44.79495" lon="0.24265">
        <ele>114.80000305176</ele>
        <time>2022-05-08T07:02:23Z</time>
      </trkpt>
      <trkpt lat="44.79508" lon="0.24236">
        <ele>114.30000305176</ele>
        <time>2022-05-08T07:02:29Z</time>
      </trkpt>
      <trkpt lat="44.79537" lon="0.24228">
        <ele>113.30000305176</ele>
        <time>2022-05-08T07:02:35Z</time>
      </trkpt>
      <trkpt lat="44.79551" lon="0.24206">
        <ele>108.5</ele>
        <time>2022-05-08T07:02:39Z</time>
      </trkpt>
      <trkpt lat="44.79546" lon="0.24188">
        <ele>108.5</ele>
        <time>2022-05-08T07:02:43Z</time>
      </trkpt>
      <trkpt lat="44.79547" lon="0.24169">
        <ele>108</ele>
        <time>2022-05-08T07:02:47Z</time>
      </trkpt>
      <trkpt lat="44.79547" lon="0.24149">
        <ele>108.80000305176</ele>
        <time>2022-05-08T07:02:51Z</time>
      </trkpt>
      <trkpt lat="44.79555" lon="0.24134">
        <ele>108.30000305176</ele>
        <time>2022-05-08T07:02:55Z</time>
      </trkpt>
      <trkpt lat="44.79572" lon="0.24123">
        <ele>108.30000305176</ele>
        <time>2022-05-08T07:02:59Z</time>
      </trkpt>
      <trkpt lat="44.79583" lon="0.24095">
        <ele>104.55000305176</ele>
        <time>2022-05-08T07:03:03Z</time>
      </trkpt>
      <trkpt lat="44.7959" lon="0.24066">
        <ele>104.55000305176</ele>
        <time>2022-05-08T07:03:07Z</time>
      </trkpt>
      <trkpt lat="44.79596" lon="0.24035">
        <ele>103.55000305176</ele>
        <time>2022-05-08T07:03:11Z</time>
      </trkpt>
      <trkpt lat="44.79604" lon="0.24007">
        <ele>103.90000152588</ele>
        <time>2022-05-08T07:03:15Z</time>
      </trkpt>
      <trkpt lat="44.79611" lon="0.23977">
        <ele>103.40000152588</ele>
        <time>2022-05-08T07:03:19Z</time>
      </trkpt>
      <trkpt lat="44.79613" lon="0.23961">
        <ele>103.40000152588</ele>
        <time>2022-05-08T07:03:23Z</time>
      </trkpt>
      <trkpt lat="44.79618" lon="0.2395">
        <ele>101.80000305176</ele>
        <time>2022-05-08T07:03:27Z</time>
      </trkpt>
      <trkpt lat="44.7962" lon="0.23929">
        <ele>101.80000305176</ele>
        <time>2022-05-08T07:03:31Z</time>
      </trkpt>
      <trkpt lat="44.79617" lon="0.23896">
        <ele>101.80000305176</ele>
        <time>2022-05-08T07:03:37Z</time>
      </trkpt>
      <trkpt lat="44.79603" lon="0.23898">
        <ele>99.25</ele>
        <time>2022-05-08T07:03:41Z</time>
      </trkpt>
      <trkpt lat="44.79586" lon="0.23895">
        <ele>99.25</ele>
        <time>2022-05-08T07:03:45Z</time>
      </trkpt>
      <trkpt lat="44.7957" lon="0.23893">
        <ele>99.75</ele>
        <time>2022-05-08T07:03:49Z</time>
      </trkpt>
      <trkpt lat="44.79556" lon="0.23894">
        <ele>98.349998474121</ele>
        <time>2022-05-08T07:03:53Z</time>
      </trkpt>
      <trkpt lat="44.79541" lon="0.23891">
        <ele>99.349998474121</ele>
        <time>2022-05-08T07:03:57Z</time>
      </trkpt>
      <trkpt lat="44.79529" lon="0.23888">
        <ele>99.349998474121</ele>
        <time>2022-05-08T07:04:01Z</time>
      </trkpt>
      <trkpt lat="44.79513" lon="0.23882">
        <ele>100.90000152588</ele>
        <time>2022-05-08T07:04:07Z</time>
      </trkpt>
      <trkpt lat="44.79503" lon="0.23876">
        <ele>100.90000152588</ele>
        <time>2022-05-08T07:04:11Z</time>
      </trkpt>
      <trkpt lat="44.79494" lon="0.23873">
        <ele>101.90000152588</ele>
        <time>2022-05-08T07:04:15Z</time>
      </trkpt>
      <trkpt lat="44.79478" lon="0.23868">
        <ele>101.94999694824</ele>
        <time>2022-05-08T07:04:23Z</time>
      </trkpt>
      <trkpt lat="44.79469" lon="0.23866">
        <ele>102.44999694824</ele>
        <time>2022-05-08T07:04:29Z</time>
      </trkpt>
      <trkpt lat="44.79453" lon="0.23858">
        <ele>103.5</ele>
        <time>2022-05-08T07:04:37Z</time>
      </trkpt>
      <trkpt lat="44.79444" lon="0.23854">
        <ele>104</ele>
        <time>2022-05-08T07:04:41Z</time>
      </trkpt>
      <trkpt lat="44.79427" lon="0.23847">
        <ele>105.25</ele>
        <time>2022-05-08T07:04:49Z</time>
      </trkpt>
      <trkpt lat="44.79413" lon="0.2384">
        <ele>106.65000152588</ele>
        <time>2022-05-08T07:04:57Z</time>
      </trkpt>
      <trkpt lat="44.79397" lon="0.23832">
        <ele>106.65000152588</ele>
        <time>2022-05-08T07:05:05Z</time>
      </trkpt>
      <trkpt lat="44.79385" lon="0.23826">
        <ele>107.55000305176</ele>
        <time>2022-05-08T07:05:13Z</time>
      </trkpt>
      <trkpt lat="44.79375" lon="0.23804">
        <ele>106.65000152588</ele>
        <time>2022-05-08T07:07:55Z</time>
      </trkpt>
      <trkpt lat="44.79364" lon="0.23775">
        <ele>106.65000152588</ele>
        <time>2022-05-08T07:08:01Z</time>
      </trkpt>
      <trkpt lat="44.79353" lon="0.23744">
        <ele>106.90000152588</ele>
        <time>2022-05-08T07:08:07Z</time>
      </trkpt>
      <trkpt lat="44.79324" lon="0.23727">
        <ele>106.90000152588</ele>
        <time>2022-05-08T07:08:13Z</time>
      </trkpt>
      <trkpt lat="44.793" lon="0.23719">
        <ele>105.05000305176</ele>
        <time>2022-05-08T07:08:17Z</time>
      </trkpt>
      <trkpt lat="44.7928" lon="0.23712">
        <ele>105.05000305176</ele>
        <time>2022-05-08T07:08:21Z</time>
      </trkpt>
      <trkpt lat="44.79263" lon="0.23705">
        <ele>105.55000305176</ele>
        <time>2022-05-08T07:08:25Z</time>
      </trkpt>
      <trkpt lat="44.79264" lon="0.23683">
        <ele>104.75</ele>
        <time>2022-05-08T07:08:29Z</time>
      </trkpt>
      <trkpt lat="44.79272" lon="0.23653">
        <ele>104.75</ele>
        <time>2022-05-08T07:08:33Z</time>
      </trkpt>
      <trkpt lat="44.79282" lon="0.236">
        <ele>104.75</ele>
        <time>2022-05-08T07:08:39Z</time>
      </trkpt>
      <trkpt lat="44.79288" lon="0.23561">
        <ele>103</ele>
        <time>2022-05-08T07:08:43Z</time>
      </trkpt>
      <trkpt lat="44.79286" lon="0.23539">
        <ele>103</ele>
        <time>2022-05-08T07:08:47Z</time>
      </trkpt>
      <trkpt lat="44.79273" lon="0.2353">
        <ele>100.5</ele>
        <time>2022-05-08T07:08:51Z</time>
      </trkpt>
      <trkpt lat="44.79255" lon="0.23515">
        <ele>99.900001525879</ele>
        <time>2022-05-08T07:08:57Z</time>
      </trkpt>
      <trkpt lat="44.7924" lon="0.23502">
        <ele>100.40000152588</ele>
        <time>2022-05-08T07:09:01Z</time>
      </trkpt>
      <trkpt lat="44.7921" lon="0.23471">
        <ele>99</ele>
        <time>2022-05-08T07:09:07Z</time>
      </trkpt>
      <trkpt lat="44.79183" lon="0.23438">
        <ele>97</ele>
        <time>2022-05-08T07:09:13Z</time>
      </trkpt>
      <trkpt lat="44.79186" lon="0.23416">
        <ele>94.75</ele>
        <time>2022-05-08T07:09:17Z</time>
      </trkpt>
      <trkpt lat="44.79201" lon="0.23395">
        <ele>94.75</ele>
        <time>2022-05-08T07:09:21Z</time>
      </trkpt>
      <trkpt lat="44.79214" lon="0.23374">
        <ele>92.75</ele>
        <time>2022-05-08T07:09:25Z</time>
      </trkpt>
      <trkpt lat="44.79228" lon="0.23353">
        <ele>92.400001525879</ele>
        <time>2022-05-08T07:09:29Z</time>
      </trkpt>
      <trkpt lat="44.79243" lon="0.2333">
        <ele>92.900001525879</ele>
        <time>2022-05-08T07:09:33Z</time>
      </trkpt>
      <trkpt lat="44.79256" lon="0.23309">
        <ele>92.900001525879</ele>
        <time>2022-05-08T07:09:37Z</time>
      </trkpt>
      <trkpt lat="44.7927" lon="0.23281">
        <ele>90.900001525879</ele>
        <time>2022-05-08T07:09:41Z</time>
      </trkpt>
      <trkpt lat="44.79263" lon="0.23258">
        <ele>90.900001525879</ele>
        <time>2022-05-08T07:09:45Z</time>
      </trkpt>
      <trkpt lat="44.79247" lon="0.23236">
        <ele>90.900001525879</ele>
        <time>2022-05-08T07:09:49Z</time>
      </trkpt>
      <trkpt lat="44.79223" lon="0.23204">
        <ele>89.849998474121</ele>
        <time>2022-05-08T07:09:55Z</time>
      </trkpt>
      <trkpt lat="44.7921" lon="0.23187">
        <ele>88.849998474121</ele>
        <time>2022-05-08T07:09:59Z</time>
      </trkpt>
      <trkpt lat="44.79199" lon="0.23173">
        <ele>88.849998474121</ele>
        <time>2022-05-08T07:10:03Z</time>
      </trkpt>
      <trkpt lat="44.79188" lon="0.23159">
        <ele>88.099998474121</ele>
        <time>2022-05-08T07:10:07Z</time>
      </trkpt>
      <trkpt lat="44.79173" lon="0.23136">
        <ele>89.099998474121</ele>
        <time>2022-05-08T07:10:15Z</time>
      </trkpt>
      <trkpt lat="44.79162" lon="0.23121">
        <ele>88.599998474121</ele>
        <time>2022-05-08T07:10:19Z</time>
      </trkpt>
      <trkpt lat="44.79151" lon="0.23119">
        <ele>88.599998474121</ele>
        <time>2022-05-08T07:10:23Z</time>
      </trkpt>
      <trkpt lat="44.79138" lon="0.23123">
        <ele>88.599998474121</ele>
        <time>2022-05-08T07:10:27Z</time>
      </trkpt>
      <trkpt lat="44.79135" lon="0.231">
        <ele>86.650001525879</ele>
        <time>2022-05-08T07:10:31Z</time>
      </trkpt>
      <trkpt lat="44.79134" lon="0.23066">
        <ele>86.650001525879</ele>
        <time>2022-05-08T07:10:37Z</time>
      </trkpt>
      <trkpt lat="44.79135" lon="0.23043">
        <ele>86.150001525879</ele>
        <time>2022-05-08T07:10:41Z</time>
      </trkpt>
      <trkpt lat="44.79138" lon="0.23011">
        <ele>86.349998474121</ele>
        <time>2022-05-08T07:10:47Z</time>
      </trkpt>
      <trkpt lat="44.79119" lon="0.23">
        <ele>86.849998474121</ele>
        <time>2022-05-08T07:10:51Z</time>
      </trkpt>
      <trkpt lat="44.79091" lon="0.22972">
        <ele>86.849998474121</ele>
        <time>2022-05-08T07:10:57Z</time>
      </trkpt>
      <trkpt lat="44.79087" lon="0.22942">
        <ele>80.599998474121</ele>
        <time>2022-05-08T07:11:01Z</time>
      </trkpt>
      <trkpt lat="44.79085" lon="0.22908">
        <ele>80.599998474121</ele>
        <time>2022-05-08T07:11:05Z</time>
      </trkpt>
      <trkpt lat="44.79082" lon="0.22875">
        <ele>78.599998474121</ele>
        <time>2022-05-08T07:11:09Z</time>
      </trkpt>
      <trkpt lat="44.79074" lon="0.22848">
        <ele>76.300003051758</ele>
        <time>2022-05-08T07:11:13Z</time>
      </trkpt>
      <trkpt lat="44.79074" lon="0.22801">
        <ele>76.300003051758</ele>
        <time>2022-05-08T07:11:19Z</time>
      </trkpt>
      <trkpt lat="44.79074" lon="0.22772">
        <ele>75.800003051758</ele>
        <time>2022-05-08T07:11:23Z</time>
      </trkpt>
      <trkpt lat="44.79073" lon="0.22742">
        <ele>75.25</ele>
        <time>2022-05-08T07:11:27Z</time>
      </trkpt>
      <trkpt lat="44.79072" lon="0.22711">
        <ele>75.75</ele>
        <time>2022-05-08T07:11:31Z</time>
      </trkpt>
      <trkpt lat="44.79072" lon="0.22683">
        <ele>75.75</ele>
        <time>2022-05-08T07:11:35Z</time>
      </trkpt>
      <trkpt lat="44.79071" lon="0.22663">
        <ele>76.349998474121</ele>
        <time>2022-05-08T07:11:39Z</time>
      </trkpt>
      <trkpt lat="44.79059" lon="0.22657">
        <ele>76.349998474121</ele>
        <time>2022-05-08T07:11:43Z</time>
      </trkpt>
      <trkpt lat="44.79027" lon="0.22652">
        <ele>76.349998474121</ele>
        <time>2022-05-08T07:11:49Z</time>
      </trkpt>
      <trkpt lat="44.79008" lon="0.22647">
        <ele>72.650001525879</ele>
        <time>2022-05-08T07:11:53Z</time>
      </trkpt>
      <trkpt lat="44.78988" lon="0.22644">
        <ele>69.349998474121</ele>
        <time>2022-05-08T07:12:05Z</time>
      </trkpt>
      <trkpt lat="44.78968" lon="0.22634">
        <ele>69.349998474121</ele>
        <time>2022-05-08T07:12:09Z</time>
      </trkpt>
      <trkpt lat="44.78954" lon="0.22628">
        <ele>69.349998474121</ele>
        <time>2022-05-08T07:12:13Z</time>
      </trkpt>
      <trkpt lat="44.7894" lon="0.22634">
        <ele>69.199996948242</ele>
        <time>2022-05-08T07:12:17Z</time>
      </trkpt>
      <trkpt lat="44.78925" lon="0.22644">
        <ele>69.699996948242</ele>
        <time>2022-05-08T07:12:21Z</time>
      </trkpt>
      <trkpt lat="44.7891" lon="0.22654">
        <ele>69.699996948242</ele>
        <time>2022-05-08T07:12:25Z</time>
      </trkpt>
      <trkpt lat="44.78896" lon="0.22665">
        <ele>71.550003051758</ele>
        <time>2022-05-08T07:12:29Z</time>
      </trkpt>
      <trkpt lat="44.78882" lon="0.22673">
        <ele>71.550003051758</ele>
        <time>2022-05-08T07:12:33Z</time>
      </trkpt>
      <trkpt lat="44.78867" lon="0.22673">
        <ele>74.050003051758</ele>
        <time>2022-05-08T07:12:37Z</time>
      </trkpt>
      <trkpt lat="44.78856" lon="0.22671">
        <ele>76.050003051758</ele>
        <time>2022-05-08T07:12:41Z</time>
      </trkpt>
      <trkpt lat="44.78844" lon="0.22667">
        <ele>78.550003051758</ele>
        <time>2022-05-08T07:12:47Z</time>
      </trkpt>
      <trkpt lat="44.78833" lon="0.22657">
        <ele>82.599998474121</ele>
        <time>2022-05-08T07:12:55Z</time>
      </trkpt>
      <trkpt lat="44.78826" lon="0.2264">
        <ele>82.599998474121</ele>
        <time>2022-05-08T07:13:05Z</time>
      </trkpt>
      <trkpt lat="44.78816" lon="0.22643">
        <ele>86.699996948242</ele>
        <time>2022-05-08T07:13:13Z</time>
      </trkpt>
      <trkpt lat="44.78805" lon="0.22645">
        <ele>87.5</ele>
        <time>2022-05-08T07:13:21Z</time>
      </trkpt>
      <trkpt lat="44.78793" lon="0.22642">
        <ele>87.5</ele>
        <time>2022-05-08T07:13:29Z</time>
      </trkpt>
      <trkpt lat="44.78776" lon="0.22632">
        <ele>88.199996948242</ele>
        <time>2022-05-08T07:13:39Z</time>
      </trkpt>
      <trkpt lat="44.78758" lon="0.22627">
        <ele>90.150001525879</ele>
        <time>2022-05-08T07:13:47Z</time>
      </trkpt>
      <trkpt lat="44.78749" lon="0.22622">
        <ele>90.150001525879</ele>
        <time>2022-05-08T07:13:51Z</time>
      </trkpt>
      <trkpt lat="44.78738" lon="0.22615">
        <ele>90.650001525879</ele>
        <time>2022-05-08T07:13:55Z</time>
      </trkpt>
      <trkpt lat="44.78728" lon="0.2261">
        <ele>92.650001525879</ele>
        <time>2022-05-08T07:13:59Z</time>
      </trkpt>
      <trkpt lat="44.78717" lon="0.22607">
        <ele>93.150001525879</ele>
        <time>2022-05-08T07:14:03Z</time>
      </trkpt>
      <trkpt lat="44.787" lon="0.226">
        <ele>93.150001525879</ele>
        <time>2022-05-08T07:14:09Z</time>
      </trkpt>
      <trkpt lat="44.78689" lon="0.22596">
        <ele>93.599998474121</ele>
        <time>2022-05-08T07:14:13Z</time>
      </trkpt>
      <trkpt lat="44.78677" lon="0.22593">
        <ele>93.599998474121</ele>
        <time>2022-05-08T07:14:17Z</time>
      </trkpt>
      <trkpt lat="44.78666" lon="0.22592">
        <ele>94.099998474121</ele>
        <time>2022-05-08T07:14:21Z</time>
      </trkpt>
      <trkpt lat="44.78656" lon="0.2259">
        <ele>94.849998474121</ele>
        <time>2022-05-08T07:14:25Z</time>
      </trkpt>
      <trkpt lat="44.78636" lon="0.2259">
        <ele>94.849998474121</ele>
        <time>2022-05-08T07:14:33Z</time>
      </trkpt>
      <trkpt lat="44.78626" lon="0.22588">
        <ele>95</ele>
        <time>2022-05-08T07:14:37Z</time>
      </trkpt>
      <trkpt lat="44.78606" lon="0.22587">
        <ele>94.5</ele>
        <time>2022-05-08T07:14:45Z</time>
      </trkpt>
      <trkpt lat="44.7859" lon="0.2258">
        <ele>94.400001525879</ele>
        <time>2022-05-08T07:14:51Z</time>
      </trkpt>
      <trkpt lat="44.78569" lon="0.22569">
        <ele>94.400001525879</ele>
        <time>2022-05-08T07:14:59Z</time>
      </trkpt>
      <trkpt lat="44.78558" lon="0.22564">
        <ele>96.050003051758</ele>
        <time>2022-05-08T07:15:03Z</time>
      </trkpt>
      <trkpt lat="44.78548" lon="0.22559">
        <ele>96.050003051758</ele>
        <time>2022-05-08T07:15:07Z</time>
      </trkpt>
      <trkpt lat="44.78538" lon="0.22549">
        <ele>96.550003051758</ele>
        <time>2022-05-08T07:15:11Z</time>
      </trkpt>
      <trkpt lat="44.78529" lon="0.22542">
        <ele>97.599998474121</ele>
        <time>2022-05-08T07:15:15Z</time>
      </trkpt>
      <trkpt lat="44.78518" lon="0.22535">
        <ele>98.099998474121</ele>
        <time>2022-05-08T07:15:19Z</time>
      </trkpt>
      <trkpt lat="44.78508" lon="0.22526">
        <ele>98.099998474121</ele>
        <time>2022-05-08T07:15:23Z</time>
      </trkpt>
      <trkpt lat="44.78491" lon="0.22514">
        <ele>100.25</ele>
        <time>2022-05-08T07:15:29Z</time>
      </trkpt>
      <trkpt lat="44.7848" lon="0.22506">
        <ele>100.75</ele>
        <time>2022-05-08T07:15:33Z</time>
      </trkpt>
      <trkpt lat="44.78471" lon="0.22497">
        <ele>100.75</ele>
        <time>2022-05-08T07:15:37Z</time>
      </trkpt>
      <trkpt lat="44.78462" lon="0.22488">
        <ele>101.05000305176</ele>
        <time>2022-05-08T07:15:41Z</time>
      </trkpt>
      <trkpt lat="44.78451" lon="0.22478">
        <ele>101.05000305176</ele>
        <time>2022-05-08T07:15:45Z</time>
      </trkpt>
      <trkpt lat="44.78438" lon="0.22465">
        <ele>102.05000305176</ele>
        <time>2022-05-08T07:15:49Z</time>
      </trkpt>
      <trkpt lat="44.78426" lon="0.22453">
        <ele>100.84999847412</ele>
        <time>2022-05-08T07:15:53Z</time>
      </trkpt>
      <trkpt lat="44.78416" lon="0.22443">
        <ele>101.84999847412</ele>
        <time>2022-05-08T07:15:57Z</time>
      </trkpt>
      <trkpt lat="44.78403" lon="0.22434">
        <ele>101.84999847412</ele>
        <time>2022-05-08T07:16:01Z</time>
      </trkpt>
      <trkpt lat="44.78413" lon="0.22407">
        <ele>101.19999694824</ele>
        <time>2022-05-08T07:16:11Z</time>
      </trkpt>
      <trkpt lat="44.78419" lon="0.22397">
        <ele>102.69999694824</ele>
        <time>2022-05-08T07:16:15Z</time>
      </trkpt>
      <trkpt lat="44.78426" lon="0.22386">
        <ele>102.90000152588</ele>
        <time>2022-05-08T07:16:19Z</time>
      </trkpt>
      <trkpt lat="44.78427" lon="0.22372">
        <ele>102.40000152588</ele>
        <time>2022-05-08T07:16:23Z</time>
      </trkpt>
      <trkpt lat="44.78431" lon="0.22358">
        <ele>102.40000152588</ele>
        <time>2022-05-08T07:16:27Z</time>
      </trkpt>
      <trkpt lat="44.78433" lon="0.22342">
        <ele>103.34999847412</ele>
        <time>2022-05-08T07:16:31Z</time>
      </trkpt>
      <trkpt lat="44.78439" lon="0.2232">
        <ele>103.34999847412</ele>
        <time>2022-05-08T07:16:37Z</time>
      </trkpt>
      <trkpt lat="44.78443" lon="0.22304">
        <ele>102.34999847412</ele>
        <time>2022-05-08T07:16:41Z</time>
      </trkpt>
      <trkpt lat="44.78445" lon="0.22286">
        <ele>103.34999847412</ele>
        <time>2022-05-08T07:16:45Z</time>
      </trkpt>
      <trkpt lat="44.78446" lon="0.22272">
        <ele>102.84999847412</ele>
        <time>2022-05-08T07:16:49Z</time>
      </trkpt>
      <trkpt lat="44.78447" lon="0.22253">
        <ele>102.84999847412</ele>
        <time>2022-05-08T07:16:53Z</time>
      </trkpt>
      <trkpt lat="44.78448" lon="0.22227">
        <ele>103.19999694824</ele>
        <time>2022-05-08T07:16:59Z</time>
      </trkpt>
      <trkpt lat="44.7845" lon="0.22206">
        <ele>103.19999694824</ele>
        <time>2022-05-08T07:17:03Z</time>
      </trkpt>
      <trkpt lat="44.78451" lon="0.22185">
        <ele>102.19999694824</ele>
        <time>2022-05-08T07:17:07Z</time>
      </trkpt>
      <trkpt lat="44.78453" lon="0.22163">
        <ele>100.30000305176</ele>
        <time>2022-05-08T07:17:11Z</time>
      </trkpt>
      <trkpt lat="44.78454" lon="0.22138">
        <ele>99.300003051758</ele>
        <time>2022-05-08T07:17:15Z</time>
      </trkpt>
      <trkpt lat="44.78453" lon="0.22116">
        <ele>99.300003051758</ele>
        <time>2022-05-08T07:17:19Z</time>
      </trkpt>
      <trkpt lat="44.78449" lon="0.22084">
        <ele>98.5</ele>
        <time>2022-05-08T07:17:25Z</time>
      </trkpt>
      <trkpt lat="44.78441" lon="0.22067">
        <ele>98.5</ele>
        <time>2022-05-08T07:17:29Z</time>
      </trkpt>
      <trkpt lat="44.78427" lon="0.22062">
        <ele>98.5</ele>
        <time>2022-05-08T07:17:33Z</time>
      </trkpt>
      <trkpt lat="44.78423" lon="0.22039">
        <ele>96.199996948242</ele>
        <time>2022-05-08T07:17:37Z</time>
      </trkpt>
      <trkpt lat="44.78423" lon="0.21982">
        <ele>96.199996948242</ele>
        <time>2022-05-08T07:17:43Z</time>
      </trkpt>
      <trkpt lat="44.78423" lon="0.21962">
        <ele>95.199996948242</ele>
        <time>2022-05-08T07:17:45Z</time>
      </trkpt>
      <trkpt lat="44.78423" lon="0.21912">
        <ele>93.949996948242</ele>
        <time>2022-05-08T07:17:51Z</time>
      </trkpt>
      <trkpt lat="44.78408" lon="0.21912">
        <ele>92.449996948242</ele>
        <time>2022-05-08T07:17:55Z</time>
      </trkpt>
      <trkpt lat="44.78392" lon="0.21919">
        <ele>92.449996948242</ele>
        <time>2022-05-08T07:17:59Z</time>
      </trkpt>
      <trkpt lat="44.78374" lon="0.21924">
        <ele>92.599998474121</ele>
        <time>2022-05-08T07:18:03Z</time>
      </trkpt>
      <trkpt lat="44.78356" lon="0.21927">
        <ele>92.599998474121</ele>
        <time>2022-05-08T07:18:07Z</time>
      </trkpt>
      <trkpt lat="44.7834" lon="0.21928">
        <ele>92.099998474121</ele>
        <time>2022-05-08T07:18:11Z</time>
      </trkpt>
      <trkpt lat="44.78327" lon="0.21921">
        <ele>92.199996948242</ele>
        <time>2022-05-08T07:18:15Z</time>
      </trkpt>
      <trkpt lat="44.78312" lon="0.21922">
        <ele>92.199996948242</ele>
        <time>2022-05-08T07:18:19Z</time>
      </trkpt>
      <trkpt lat="44.78297" lon="0.21923">
        <ele>92.199996948242</ele>
        <time>2022-05-08T07:18:23Z</time>
      </trkpt>
      <trkpt lat="44.7828" lon="0.21922">
        <ele>93.050003051758</ele>
        <time>2022-05-08T07:18:27Z</time>
      </trkpt>
      <trkpt lat="44.78262" lon="0.21918">
        <ele>93.050003051758</ele>
        <time>2022-05-08T07:18:31Z</time>
      </trkpt>
      <trkpt lat="44.78244" lon="0.21911">
        <ele>93.550003051758</ele>
        <time>2022-05-08T07:18:35Z</time>
      </trkpt>
      <trkpt lat="44.78227" lon="0.21903">
        <ele>93.050003051758</ele>
        <time>2022-05-08T07:18:39Z</time>
      </trkpt>
      <trkpt lat="44.78211" lon="0.21895">
        <ele>93.050003051758</ele>
        <time>2022-05-08T07:18:43Z</time>
      </trkpt>
      <trkpt lat="44.78214" lon="0.21863">
        <ele>93.050003051758</ele>
        <time>2022-05-08T07:18:49Z</time>
      </trkpt>
      <trkpt lat="44.78226" lon="0.21842">
        <ele>92.849998474121</ele>
        <time>2022-05-08T07:18:53Z</time>
      </trkpt>
      <trkpt lat="44.78236" lon="0.21821">
        <ele>92.849998474121</ele>
        <time>2022-05-08T07:18:57Z</time>
      </trkpt>
      <trkpt lat="44.78243" lon="0.21801">
        <ele>92.849998474121</ele>
        <time>2022-05-08T07:19:01Z</time>
      </trkpt>
      <trkpt lat="44.78236" lon="0.21792">
        <ele>92.800003051758</ele>
        <time>2022-05-08T07:19:05Z</time>
      </trkpt>
      <trkpt lat="44.78225" lon="0.21776">
        <ele>92.800003051758</ele>
        <time>2022-05-08T07:19:11Z</time>
      </trkpt>
      <trkpt lat="44.78212" lon="0.21764">
        <ele>92.800003051758</ele>
        <time>2022-05-08T07:19:15Z</time>
      </trkpt>
      <trkpt lat="44.78203" lon="0.21753">
        <ele>94</ele>
        <time>2022-05-08T07:19:19Z</time>
      </trkpt>
      <trkpt lat="44.78193" lon="0.21751">
        <ele>94</ele>
        <time>2022-05-08T07:19:23Z</time>
      </trkpt>
      <trkpt lat="44.78181" lon="0.21748">
        <ele>94.5</ele>
        <time>2022-05-08T07:19:27Z</time>
      </trkpt>
      <trkpt lat="44.78168" lon="0.21741">
        <ele>93.449996948242</ele>
        <time>2022-05-08T07:19:33Z</time>
      </trkpt>
      <trkpt lat="44.78158" lon="0.21737">
        <ele>94.949996948242</ele>
        <time>2022-05-08T07:19:37Z</time>
      </trkpt>
      <trkpt lat="44.78151" lon="0.21755">
        <ele>95.949996948242</ele>
        <time>2022-05-08T07:19:45Z</time>
      </trkpt>
      <trkpt lat="44.78146" lon="0.21775">
        <ele>95.949996948242</ele>
        <time>2022-05-08T07:19:49Z</time>
      </trkpt>
      <trkpt lat="44.78135" lon="0.21786">
        <ele>95.949996948242</ele>
        <time>2022-05-08T07:19:53Z</time>
      </trkpt>
      <trkpt lat="44.78127" lon="0.218">
        <ele>95.5</ele>
        <time>2022-05-08T07:19:57Z</time>
      </trkpt>
      <trkpt lat="44.78115" lon="0.21806">
        <ele>96</ele>
        <time>2022-05-08T07:20:05Z</time>
      </trkpt>
      <trkpt lat="44.78114" lon="0.21789">
        <ele>97.449996948242</ele>
        <time>2022-05-08T07:20:13Z</time>
      </trkpt>
      <trkpt lat="44.78121" lon="0.21767">
        <ele>100.5</ele>
        <time>2022-05-08T07:20:21Z</time>
      </trkpt>
      <trkpt lat="44.78117" lon="0.21754">
        <ele>100.5</ele>
        <time>2022-05-08T07:20:27Z</time>
      </trkpt>
      <trkpt lat="44.7813" lon="0.2174">
        <ele>100.5</ele>
        <time>2022-05-08T07:20:33Z</time>
      </trkpt>
      <trkpt lat="44.78131" lon="0.21715">
        <ele>101.59999847412</ele>
        <time>2022-05-08T07:20:41Z</time>
      </trkpt>
      <trkpt lat="44.78121" lon="0.21701">
        <ele>101.59999847412</ele>
        <time>2022-05-08T07:20:45Z</time>
      </trkpt>
      <trkpt lat="44.78106" lon="0.21683">
        <ele>102.44999694824</ele>
        <time>2022-05-08T07:20:49Z</time>
      </trkpt>
      <trkpt lat="44.78093" lon="0.2166">
        <ele>103.44999694824</ele>
        <time>2022-05-08T07:20:53Z</time>
      </trkpt>
      <trkpt lat="44.78097" lon="0.21647">
        <ele>103.44999694824</ele>
        <time>2022-05-08T07:20:57Z</time>
      </trkpt>
      <trkpt lat="44.78101" lon="0.21625">
        <ele>100.75</ele>
        <time>2022-05-08T07:21:05Z</time>
      </trkpt>
      <trkpt lat="44.78097" lon="0.21609">
        <ele>100.75</ele>
        <time>2022-05-08T07:21:09Z</time>
      </trkpt>
      <trkpt lat="44.78093" lon="0.21587">
        <ele>99.699996948242</ele>
        <time>2022-05-08T07:21:13Z</time>
      </trkpt>
      <trkpt lat="44.78094" lon="0.21568">
        <ele>99.699996948242</ele>
        <time>2022-05-08T07:21:17Z</time>
      </trkpt>
      <trkpt lat="44.78098" lon="0.21549">
        <ele>98.199996948242</ele>
        <time>2022-05-08T07:21:23Z</time>
      </trkpt>
      <trkpt lat="44.78095" lon="0.21529">
        <ele>100.65000152588</ele>
        <time>2022-05-08T07:21:31Z</time>
      </trkpt>
      <trkpt lat="44.78093" lon="0.21508">
        <ele>100.65000152588</ele>
        <time>2022-05-08T07:21:35Z</time>
      </trkpt>
      <trkpt lat="44.78088" lon="0.21486">
        <ele>100.94999694824</ele>
        <time>2022-05-08T07:21:39Z</time>
      </trkpt>
      <trkpt lat="44.78084" lon="0.21472">
        <ele>100.94999694824</ele>
        <time>2022-05-08T07:21:43Z</time>
      </trkpt>
      <trkpt lat="44.78092" lon="0.21454">
        <ele>102.40000152588</ele>
        <time>2022-05-08T07:22:01Z</time>
      </trkpt>
      <trkpt lat="44.78094" lon="0.21435">
        <ele>102.69999694824</ele>
        <time>2022-05-08T07:22:09Z</time>
      </trkpt>
      <trkpt lat="44.78092" lon="0.21421">
        <ele>102.44999694824</ele>
        <time>2022-05-08T07:22:17Z</time>
      </trkpt>
      <trkpt lat="44.7809" lon="0.21408">
        <ele>102.94999694824</ele>
        <time>2022-05-08T07:22:25Z</time>
      </trkpt>
      <trkpt lat="44.78089" lon="0.21388">
        <ele>102.19999694824</ele>
        <time>2022-05-08T07:22:33Z</time>
      </trkpt>
      <trkpt lat="44.78083" lon="0.21365">
        <ele>98</ele>
        <time>2022-05-08T07:22:43Z</time>
      </trkpt>
      <trkpt lat="44.781" lon="0.21306">
        <ele>98.5</ele>
        <time>2022-05-08T07:22:51Z</time>
      </trkpt>
      <trkpt lat="44.7811" lon="0.21298">
        <ele>103.80000305176</ele>
        <time>2022-05-08T07:22:55Z</time>
      </trkpt>
      <trkpt lat="44.78106" lon="0.21286">
        <ele>104.80000305176</ele>
        <time>2022-05-08T07:23:03Z</time>
      </trkpt>
      <trkpt lat="44.781" lon="0.21271">
        <ele>103.80000305176</ele>
        <time>2022-05-08T07:23:11Z</time>
      </trkpt>
      <trkpt lat="44.78099" lon="0.21256">
        <ele>105.34999847412</ele>
        <time>2022-05-08T07:23:19Z</time>
      </trkpt>
      <trkpt lat="44.78104" lon="0.21246">
        <ele>105.34999847412</ele>
        <time>2022-05-08T07:23:23Z</time>
      </trkpt>
      <trkpt lat="44.78116" lon="0.21236">
        <ele>104.84999847412</ele>
        <time>2022-05-08T07:23:29Z</time>
      </trkpt>
      <trkpt lat="44.78118" lon="0.21249">
        <ele>105.65000152588</ele>
        <time>2022-05-08T07:23:33Z</time>
      </trkpt>
      <trkpt lat="44.78118" lon="0.21265">
        <ele>105.65000152588</ele>
        <time>2022-05-08T07:23:37Z</time>
      </trkpt>
      <trkpt lat="44.78131" lon="0.21265">
        <ele>104.65000152588</ele>
        <time>2022-05-08T07:23:41Z</time>
      </trkpt>
      <trkpt lat="44.78149" lon="0.21273">
        <ele>104.19999694824</ele>
        <time>2022-05-08T07:23:45Z</time>
      </trkpt>
      <trkpt lat="44.78162" lon="0.21271">
        <ele>102.19999694824</ele>
        <time>2022-05-08T07:23:49Z</time>
      </trkpt>
      <trkpt lat="44.78173" lon="0.2126">
        <ele>102.19999694824</ele>
        <time>2022-05-08T07:23:53Z</time>
      </trkpt>
      <trkpt lat="44.78183" lon="0.21251">
        <ele>100.75</ele>
        <time>2022-05-08T07:23:57Z</time>
      </trkpt>
      <trkpt lat="44.7819" lon="0.21239">
        <ele>100.75</ele>
        <time>2022-05-08T07:24:01Z</time>
      </trkpt>
      <trkpt lat="44.78196" lon="0.21212">
        <ele>100.94999694824</ele>
        <time>2022-05-08T07:24:11Z</time>
      </trkpt>
      <trkpt lat="44.78205" lon="0.21188">
        <ele>100.44999694824</ele>
        <time>2022-05-08T07:24:19Z</time>
      </trkpt>
      <trkpt lat="44.78204" lon="0.21159">
        <ele>98.300003051758</ele>
        <time>2022-05-08T07:24:27Z</time>
      </trkpt>
      <trkpt lat="44.78203" lon="0.21142">
        <ele>100.05000305176</ele>
        <time>2022-05-08T07:24:41Z</time>
      </trkpt>
      <trkpt lat="44.78203" lon="0.21128">
        <ele>100.05000305176</ele>
        <time>2022-05-08T07:24:45Z</time>
      </trkpt>
      <trkpt lat="44.78209" lon="0.21118">
        <ele>100.15000152588</ele>
        <time>2022-05-08T07:24:49Z</time>
      </trkpt>
      <trkpt lat="44.78211" lon="0.21101">
        <ele>100.15000152588</ele>
        <time>2022-05-08T07:24:53Z</time>
      </trkpt>
      <trkpt lat="44.78214" lon="0.21081">
        <ele>99.650001525879</ele>
        <time>2022-05-08T07:24:59Z</time>
      </trkpt>
      <trkpt lat="44.78216" lon="0.21065">
        <ele>100.05000305176</ele>
        <time>2022-05-08T07:25:03Z</time>
      </trkpt>
      <trkpt lat="44.78215" lon="0.2105">
        <ele>100.05000305176</ele>
        <time>2022-05-08T07:25:07Z</time>
      </trkpt>
      <trkpt lat="44.78213" lon="0.21034">
        <ele>100.05000305176</ele>
        <time>2022-05-08T07:25:11Z</time>
      </trkpt>
      <trkpt lat="44.78201" lon="0.2102">
        <ele>102.65000152588</ele>
        <time>2022-05-08T07:25:19Z</time>
      </trkpt>
      <trkpt lat="44.78191" lon="0.21001">
        <ele>105.25</ele>
        <time>2022-05-08T07:25:29Z</time>
      </trkpt>
      <trkpt lat="44.78185" lon="0.20991">
        <ele>105.25</ele>
        <time>2022-05-08T07:25:37Z</time>
      </trkpt>
      <trkpt lat="44.78177" lon="0.20985">
        <ele>102.75</ele>
        <time>2022-05-08T07:25:41Z</time>
      </trkpt>
      <trkpt lat="44.78164" lon="0.20977">
        <ele>102.75</ele>
        <time>2022-05-08T07:25:47Z</time>
      </trkpt>
      <trkpt lat="44.78147" lon="0.20971">
        <ele>103.05000305176</ele>
        <time>2022-05-08T07:25:57Z</time>
      </trkpt>
      <trkpt lat="44.78141" lon="0.20941">
        <ele>104.05000305176</ele>
        <time>2022-05-08T07:26:07Z</time>
      </trkpt>
      <trkpt lat="44.78132" lon="0.2092">
        <ele>106.55000305176</ele>
        <time>2022-05-08T07:26:13Z</time>
      </trkpt>
      <trkpt lat="44.78129" lon="0.20897">
        <ele>106.55000305176</ele>
        <time>2022-05-08T07:26:19Z</time>
      </trkpt>
      <trkpt lat="44.78124" lon="0.20864">
        <ele>105.84999847412</ele>
        <time>2022-05-08T07:26:27Z</time>
      </trkpt>
      <trkpt lat="44.78125" lon="0.20819">
        <ele>107.25</ele>
        <time>2022-05-08T07:26:35Z</time>
      </trkpt>
      <trkpt lat="44.78134" lon="0.20797">
        <ele>106.75</ele>
        <time>2022-05-08T07:26:39Z</time>
      </trkpt>
      <trkpt lat="44.78143" lon="0.20786">
        <ele>106.75</ele>
        <time>2022-05-08T07:26:43Z</time>
      </trkpt>
      <trkpt lat="44.7815" lon="0.20762">
        <ele>104.69999694824</ele>
        <time>2022-05-08T07:26:51Z</time>
      </trkpt>
      <trkpt lat="44.78148" lon="0.20749">
        <ele>104.19999694824</ele>
        <time>2022-05-08T07:26:55Z</time>
      </trkpt>
      <trkpt lat="44.78138" lon="0.20744">
        <ele>103</ele>
        <time>2022-05-08T07:26:59Z</time>
      </trkpt>
      <trkpt lat="44.78125" lon="0.20735">
        <ele>103</ele>
        <time>2022-05-08T07:27:05Z</time>
      </trkpt>
      <trkpt lat="44.78113" lon="0.20737">
        <ele>104</ele>
        <time>2022-05-08T07:27:09Z</time>
      </trkpt>
      <trkpt lat="44.78104" lon="0.20742">
        <ele>102.5</ele>
        <time>2022-05-08T07:27:17Z</time>
      </trkpt>
      <trkpt lat="44.78098" lon="0.20757">
        <ele>102.5</ele>
        <time>2022-05-08T07:27:21Z</time>
      </trkpt>
      <trkpt lat="44.78088" lon="0.20783">
        <ele>105.25</ele>
        <time>2022-05-08T07:27:29Z</time>
      </trkpt>
      <trkpt lat="44.78093" lon="0.20803">
        <ele>105.25</ele>
        <time>2022-05-08T07:27:33Z</time>
      </trkpt>
      <trkpt lat="44.78098" lon="0.20824">
        <ele>105.90000152588</ele>
        <time>2022-05-08T07:27:37Z</time>
      </trkpt>
      <trkpt lat="44.781" lon="0.20841">
        <ele>105.90000152588</ele>
        <time>2022-05-08T07:27:41Z</time>
      </trkpt>
      <trkpt lat="44.78107" lon="0.20866">
        <ele>107.09999847412</ele>
        <time>2022-05-08T07:27:49Z</time>
      </trkpt>
      <trkpt lat="44.78108" lon="0.20883">
        <ele>106.59999847412</ele>
        <time>2022-05-08T07:27:53Z</time>
      </trkpt>
      <trkpt lat="44.78106" lon="0.20901">
        <ele>106.59999847412</ele>
        <time>2022-05-08T07:27:57Z</time>
      </trkpt>
      <trkpt lat="44.78104" lon="0.2092">
        <ele>106.34999847412</ele>
        <time>2022-05-08T07:28:03Z</time>
      </trkpt>
      <trkpt lat="44.78104" lon="0.2094">
        <ele>107.94999694824</ele>
        <time>2022-05-08T07:29:43Z</time>
      </trkpt>
      <trkpt lat="44.78104" lon="0.20957">
        <ele>107.44999694824</ele>
        <time>2022-05-08T07:29:49Z</time>
      </trkpt>
      <trkpt lat="44.78106" lon="0.20969">
        <ele>107.80000305176</ele>
        <time>2022-05-08T07:29:53Z</time>
      </trkpt>
      <trkpt lat="44.78107" lon="0.20989">
        <ele>107.80000305176</ele>
        <time>2022-05-08T07:29:59Z</time>
      </trkpt>
      <trkpt lat="44.78106" lon="0.21021">
        <ele>108.84999847412</ele>
        <time>2022-05-08T07:30:09Z</time>
      </trkpt>
      <trkpt lat="44.7811" lon="0.21037">
        <ele>108.84999847412</ele>
        <time>2022-05-08T07:30:15Z</time>
      </trkpt>
      <trkpt lat="44.781" lon="0.2105">
        <ele>106.59999847412</ele>
        <time>2022-05-08T07:30:23Z</time>
      </trkpt>
      <trkpt lat="44.78093" lon="0.21069">
        <ele>108</ele>
        <time>2022-05-08T07:30:31Z</time>
      </trkpt>
      <trkpt lat="44.78095" lon="0.21093">
        <ele>108</ele>
        <time>2022-05-08T07:30:41Z</time>
      </trkpt>
      <trkpt lat="44.78101" lon="0.21108">
        <ele>105.05000305176</ele>
        <time>2022-05-08T07:30:51Z</time>
      </trkpt>
      <trkpt lat="44.78113" lon="0.21115">
        <ele>97.349998474121</ele>
        <time>2022-05-08T07:30:59Z</time>
      </trkpt>
      <trkpt lat="44.78126" lon="0.21123">
        <ele>97.349998474121</ele>
        <time>2022-05-08T07:31:09Z</time>
      </trkpt>
      <trkpt lat="44.78133" lon="0.21132">
        <ele>90.599998474121</ele>
        <time>2022-05-08T07:31:19Z</time>
      </trkpt>
      <trkpt lat="44.78131" lon="0.21152">
        <ele>91.849998474121</ele>
        <time>2022-05-08T07:31:35Z</time>
      </trkpt>
      <trkpt lat="44.78127" lon="0.21175">
        <ele>101.44999694824</ele>
        <time>2022-05-08T07:31:45Z</time>
      </trkpt>
      <trkpt lat="44.78116" lon="0.21187">
        <ele>100.15000152588</ele>
        <time>2022-05-08T07:31:53Z</time>
      </trkpt>
      <trkpt lat="44.78105" lon="0.21196">
        <ele>100.65000152588</ele>
        <time>2022-05-08T07:31:59Z</time>
      </trkpt>
      <trkpt lat="44.78093" lon="0.21212">
        <ele>104.34999847412</ele>
        <time>2022-05-08T07:32:07Z</time>
      </trkpt>
      <trkpt lat="44.78088" lon="0.21238">
        <ele>104.34999847412</ele>
        <time>2022-05-08T07:32:15Z</time>
      </trkpt>
      <trkpt lat="44.7808" lon="0.21249">
        <ele>102.75</ele>
        <time>2022-05-08T07:32:19Z</time>
      </trkpt>
      <trkpt lat="44.78067" lon="0.21261">
        <ele>104.25</ele>
        <time>2022-05-08T07:32:27Z</time>
      </trkpt>
      <trkpt lat="44.78053" lon="0.21266">
        <ele>109.05000305176</ele>
        <time>2022-05-08T07:32:35Z</time>
      </trkpt>
      <trkpt lat="44.78041" lon="0.21282">
        <ele>110.94999694824</ele>
        <time>2022-05-08T07:32:43Z</time>
      </trkpt>
      <trkpt lat="44.78034" lon="0.21297">
        <ele>110.94999694824</ele>
        <time>2022-05-08T07:32:47Z</time>
      </trkpt>
      <trkpt lat="44.7803" lon="0.2131">
        <ele>111.44999694824</ele>
        <time>2022-05-08T07:32:51Z</time>
      </trkpt>
      <trkpt lat="44.78031" lon="0.21324">
        <ele>115.15000152588</ele>
        <time>2022-05-08T07:32:55Z</time>
      </trkpt>
      <trkpt lat="44.78034" lon="0.21345">
        <ele>115.15000152588</ele>
        <time>2022-05-08T07:32:59Z</time>
      </trkpt>
      <trkpt lat="44.78037" lon="0.21359">
        <ele>115.15000152588</ele>
        <time>2022-05-08T07:33:03Z</time>
      </trkpt>
      <trkpt lat="44.78029" lon="0.21373">
        <ele>112.30000305176</ele>
        <time>2022-05-08T07:33:11Z</time>
      </trkpt>
      <trkpt lat="44.78025" lon="0.21389">
        <ele>111.34999847412</ele>
        <time>2022-05-08T07:33:21Z</time>
      </trkpt>
      <trkpt lat="44.78023" lon="0.21401">
        <ele>115.94999694824</ele>
        <time>2022-05-08T07:33:39Z</time>
      </trkpt>
      <trkpt lat="44.78018" lon="0.21414">
        <ele>115.94999694824</ele>
        <time>2022-05-08T07:33:43Z</time>
      </trkpt>
      <trkpt lat="44.78025" lon="0.21446">
        <ele>113.80000305176</ele>
        <time>2022-05-08T07:34:29Z</time>
      </trkpt>
      <trkpt lat="44.78031" lon="0.21459">
        <ele>111.80000305176</ele>
        <time>2022-05-08T07:34:33Z</time>
      </trkpt>
      <trkpt lat="44.78054" lon="0.21468">
        <ele>111.80000305176</ele>
        <time>2022-05-08T07:34:39Z</time>
      </trkpt>
      <trkpt lat="44.78058" lon="0.21495">
        <ele>103.94999694824</ele>
        <time>2022-05-08T07:34:45Z</time>
      </trkpt>
      <trkpt lat="44.78061" lon="0.21516">
        <ele>103.44999694824</ele>
        <time>2022-05-08T07:34:49Z</time>
      </trkpt>
      <trkpt lat="44.78061" lon="0.21529">
        <ele>103.44999694824</ele>
        <time>2022-05-08T07:34:53Z</time>
      </trkpt>
      <trkpt lat="44.78057" lon="0.21544">
        <ele>102.19999694824</ele>
        <time>2022-05-08T07:34:57Z</time>
      </trkpt>
      <trkpt lat="44.78055" lon="0.21566">
        <ele>102.19999694824</ele>
        <time>2022-05-08T07:35:01Z</time>
      </trkpt>
      <trkpt lat="44.78055" lon="0.21587">
        <ele>102.19999694824</ele>
        <time>2022-05-08T07:35:05Z</time>
      </trkpt>
      <trkpt lat="44.78056" lon="0.21605">
        <ele>99.550003051758</ele>
        <time>2022-05-08T07:35:09Z</time>
      </trkpt>
      <trkpt lat="44.78055" lon="0.21623">
        <ele>101.05000305176</ele>
        <time>2022-05-08T07:35:13Z</time>
      </trkpt>
      <trkpt lat="44.7805" lon="0.21638">
        <ele>101.05000305176</ele>
        <time>2022-05-08T07:35:17Z</time>
      </trkpt>
      <trkpt lat="44.78037" lon="0.21657">
        <ele>102.84999847412</ele>
        <time>2022-05-08T07:35:23Z</time>
      </trkpt>
      <trkpt lat="44.78031" lon="0.21672">
        <ele>103.34999847412</ele>
        <time>2022-05-08T07:35:27Z</time>
      </trkpt>
      <trkpt lat="44.78022" lon="0.21681">
        <ele>103.34999847412</ele>
        <time>2022-05-08T07:35:31Z</time>
      </trkpt>
      <trkpt lat="44.78012" lon="0.21684">
        <ele>103.90000152588</ele>
        <time>2022-05-08T07:35:35Z</time>
      </trkpt>
      <trkpt lat="44.77999" lon="0.21679">
        <ele>103.90000152588</ele>
        <time>2022-05-08T07:35:41Z</time>
      </trkpt>
      <trkpt lat="44.77985" lon="0.21669">
        <ele>108.34999847412</ele>
        <time>2022-05-08T07:35:49Z</time>
      </trkpt>
      <trkpt lat="44.77973" lon="0.21663">
        <ele>109.84999847412</ele>
        <time>2022-05-08T07:35:57Z</time>
      </trkpt>
      <trkpt lat="44.7796" lon="0.2166">
        <ele>115.05000305176</ele>
        <time>2022-05-08T07:36:59Z</time>
      </trkpt>
      <trkpt lat="44.77942" lon="0.21649">
        <ele>115.55000305176</ele>
        <time>2022-05-08T07:37:07Z</time>
      </trkpt>
      <trkpt lat="44.77932" lon="0.21643">
        <ele>116.05000305176</ele>
        <time>2022-05-08T07:37:11Z</time>
      </trkpt>
      <trkpt lat="44.77917" lon="0.21636">
        <ele>117.15000152588</ele>
        <time>2022-05-08T07:37:19Z</time>
      </trkpt>
      <trkpt lat="44.77906" lon="0.21625">
        <ele>117.15000152588</ele>
        <time>2022-05-08T07:37:27Z</time>
      </trkpt>
      <trkpt lat="44.77903" lon="0.21609">
        <ele>117.75</ele>
        <time>2022-05-08T07:37:33Z</time>
      </trkpt>
      <trkpt lat="44.77895" lon="0.21595">
        <ele>117.75</ele>
        <time>2022-05-08T07:37:41Z</time>
      </trkpt>
      <trkpt lat="44.77884" lon="0.21579">
        <ele>118.59999847412</ele>
        <time>2022-05-08T07:37:49Z</time>
      </trkpt>
      <trkpt lat="44.77875" lon="0.21565">
        <ele>118.59999847412</ele>
        <time>2022-05-08T07:37:55Z</time>
      </trkpt>
      <trkpt lat="44.77888" lon="0.21542">
        <ele>118.30000305176</ele>
        <time>2022-05-08T07:38:03Z</time>
      </trkpt>
      <trkpt lat="44.77899" lon="0.21527">
        <ele>118.30000305176</ele>
        <time>2022-05-08T07:38:07Z</time>
      </trkpt>
      <trkpt lat="44.77906" lon="0.215">
        <ele>116.59999847412</ele>
        <time>2022-05-08T07:38:11Z</time>
      </trkpt>
      <trkpt lat="44.77916" lon="0.21478">
        <ele>116.59999847412</ele>
        <time>2022-05-08T07:38:15Z</time>
      </trkpt>
      <trkpt lat="44.77941" lon="0.21447">
        <ele>117.59999847412</ele>
        <time>2022-05-08T07:38:21Z</time>
      </trkpt>
      <trkpt lat="44.77948" lon="0.21425">
        <ele>118.55000305176</ele>
        <time>2022-05-08T07:38:25Z</time>
      </trkpt>
      <trkpt lat="44.77957" lon="0.214">
        <ele>117.55000305176</ele>
        <time>2022-05-08T07:38:29Z</time>
      </trkpt>
      <trkpt lat="44.77966" lon="0.21378">
        <ele>117.55000305176</ele>
        <time>2022-05-08T07:38:33Z</time>
      </trkpt>
      <trkpt lat="44.77975" lon="0.21363">
        <ele>115.55000305176</ele>
        <time>2022-05-08T07:38:37Z</time>
      </trkpt>
      <trkpt lat="44.77986" lon="0.2135">
        <ele>115.55000305176</ele>
        <time>2022-05-08T07:38:41Z</time>
      </trkpt>
      <trkpt lat="44.77995" lon="0.21335">
        <ele>115.55000305176</ele>
        <time>2022-05-08T07:38:45Z</time>
      </trkpt>
      <trkpt lat="44.78004" lon="0.21305">
        <ele>117.69999694824</ele>
        <time>2022-05-08T07:38:51Z</time>
      </trkpt>
      <trkpt lat="44.78006" lon="0.21286">
        <ele>117.69999694824</ele>
        <time>2022-05-08T07:38:55Z</time>
      </trkpt>
      <trkpt lat="44.78013" lon="0.21267">
        <ele>117.69999694824</ele>
        <time>2022-05-08T07:38:59Z</time>
      </trkpt>
      <trkpt lat="44.78018" lon="0.21248">
        <ele>119.34999847412</ele>
        <time>2022-05-08T07:39:03Z</time>
      </trkpt>
      <trkpt lat="44.78025" lon="0.2123">
        <ele>119.34999847412</ele>
        <time>2022-05-08T07:39:07Z</time>
      </trkpt>
      <trkpt lat="44.78015" lon="0.21232">
        <ele>117.30000305176</ele>
        <time>2022-05-08T07:39:23Z</time>
      </trkpt>
      <trkpt lat="44.78004" lon="0.21235">
        <ele>117.09999847412</ele>
        <time>2022-05-08T07:39:29Z</time>
      </trkpt>
      <trkpt lat="44.77992" lon="0.21234">
        <ele>117.59999847412</ele>
        <time>2022-05-08T07:39:33Z</time>
      </trkpt>
      <trkpt lat="44.77977" lon="0.21222">
        <ele>117.59999847412</ele>
        <time>2022-05-08T07:39:39Z</time>
      </trkpt>
      <trkpt lat="44.77967" lon="0.21213">
        <ele>118.55000305176</ele>
        <time>2022-05-08T07:39:43Z</time>
      </trkpt>
      <trkpt lat="44.77955" lon="0.21203">
        <ele>118.55000305176</ele>
        <time>2022-05-08T07:39:47Z</time>
      </trkpt>
      <trkpt lat="44.77946" lon="0.21172">
        <ele>118.55000305176</ele>
        <time>2022-05-08T07:39:53Z</time>
      </trkpt>
      <trkpt lat="44.77946" lon="0.21155">
        <ele>114.90000152588</ele>
        <time>2022-05-08T07:39:57Z</time>
      </trkpt>
      <trkpt lat="44.77938" lon="0.21141">
        <ele>114.90000152588</ele>
        <time>2022-05-08T07:40:01Z</time>
      </trkpt>
      <trkpt lat="44.77927" lon="0.21146">
        <ele>114.90000152588</ele>
        <time>2022-05-08T07:40:05Z</time>
      </trkpt>
      <trkpt lat="44.77922" lon="0.21164">
        <ele>112.65000152588</ele>
        <time>2022-05-08T07:40:09Z</time>
      </trkpt>
      <trkpt lat="44.77914" lon="0.21194">
        <ele>113.15000152588</ele>
        <time>2022-05-08T07:40:15Z</time>
      </trkpt>
      <trkpt lat="44.7791" lon="0.21215">
        <ele>113.15000152588</ele>
        <time>2022-05-08T07:40:19Z</time>
      </trkpt>
      <trkpt lat="44.77899" lon="0.21237">
        <ele>113</ele>
        <time>2022-05-08T07:40:23Z</time>
      </trkpt>
      <trkpt lat="44.77896" lon="0.21256">
        <ele>112</ele>
        <time>2022-05-08T07:40:27Z</time>
      </trkpt>
      <trkpt lat="44.7789" lon="0.21273">
        <ele>112</ele>
        <time>2022-05-08T07:40:31Z</time>
      </trkpt>
      <trkpt lat="44.77879" lon="0.2129">
        <ele>114.44999694824</ele>
        <time>2022-05-08T07:40:35Z</time>
      </trkpt>
      <trkpt lat="44.77877" lon="0.21307">
        <ele>114.44999694824</ele>
        <time>2022-05-08T07:40:39Z</time>
      </trkpt>
      <trkpt lat="44.77867" lon="0.21329">
        <ele>113.94999694824</ele>
        <time>2022-05-08T07:40:45Z</time>
      </trkpt>
      <trkpt lat="44.7787" lon="0.21343">
        <ele>114.59999847412</ele>
        <time>2022-05-08T07:40:49Z</time>
      </trkpt>
      <trkpt lat="44.77871" lon="0.2136">
        <ele>114.59999847412</ele>
        <time>2022-05-08T07:40:53Z</time>
      </trkpt>
      <trkpt lat="44.77875" lon="0.21377">
        <ele>116.09999847412</ele>
        <time>2022-05-08T07:40:57Z</time>
      </trkpt>
      <trkpt lat="44.77869" lon="0.214">
        <ele>116.69999694824</ele>
        <time>2022-05-08T07:41:05Z</time>
      </trkpt>
      <trkpt lat="44.77869" lon="0.21417">
        <ele>116.69999694824</ele>
        <time>2022-05-08T07:41:09Z</time>
      </trkpt>
      <trkpt lat="44.77867" lon="0.21435">
        <ele>116.94999694824</ele>
        <time>2022-05-08T07:41:13Z</time>
      </trkpt>
      <trkpt lat="44.77861" lon="0.21448">
        <ele>116.94999694824</ele>
        <time>2022-05-08T07:41:17Z</time>
      </trkpt>
      <trkpt lat="44.77851" lon="0.21458">
        <ele>116.94999694824</ele>
        <time>2022-05-08T07:41:21Z</time>
      </trkpt>
      <trkpt lat="44.77843" lon="0.21469">
        <ele>118.34999847412</ele>
        <time>2022-05-08T07:41:25Z</time>
      </trkpt>
      <trkpt lat="44.77834" lon="0.21478">
        <ele>117.84999847412</ele>
        <time>2022-05-08T07:41:29Z</time>
      </trkpt>
      <trkpt lat="44.77824" lon="0.21486">
        <ele>117.84999847412</ele>
        <time>2022-05-08T07:41:33Z</time>
      </trkpt>
      <trkpt lat="44.77821" lon="0.21498">
        <ele>118.25</ele>
        <time>2022-05-08T07:41:37Z</time>
      </trkpt>
      <trkpt lat="44.77811" lon="0.21521">
        <ele>118.25</ele>
        <time>2022-05-08T07:41:45Z</time>
      </trkpt>
      <trkpt lat="44.77797" lon="0.21534">
        <ele>117</ele>
        <time>2022-05-08T07:41:51Z</time>
      </trkpt>
      <trkpt lat="44.77787" lon="0.21546">
        <ele>116</ele>
        <time>2022-05-08T07:41:59Z</time>
      </trkpt>
      <trkpt lat="44.77778" lon="0.21564">
        <ele>114.15000152588</ele>
        <time>2022-05-08T07:42:07Z</time>
      </trkpt>
      <trkpt lat="44.77768" lon="0.21576">
        <ele>113.65000152588</ele>
        <time>2022-05-08T07:42:13Z</time>
      </trkpt>
      <trkpt lat="44.7777" lon="0.21603">
        <ele>115.09999847412</ele>
        <time>2022-05-08T07:42:21Z</time>
      </trkpt>
      <trkpt lat="44.77764" lon="0.21616">
        <ele>116.59999847412</ele>
        <time>2022-05-08T07:42:25Z</time>
      </trkpt>
      <trkpt lat="44.77758" lon="0.21632">
        <ele>118.19999694824</ele>
        <time>2022-05-08T07:42:33Z</time>
      </trkpt>
      <trkpt lat="44.77755" lon="0.21645">
        <ele>118.19999694824</ele>
        <time>2022-05-08T07:42:37Z</time>
      </trkpt>
      <trkpt lat="44.77743" lon="0.21648">
        <ele>114</ele>
        <time>2022-05-08T07:42:41Z</time>
      </trkpt>
      <trkpt lat="44.77732" lon="0.21648">
        <ele>113.5</ele>
        <time>2022-05-08T07:42:45Z</time>
      </trkpt>
      <trkpt lat="44.77719" lon="0.21663">
        <ele>114.09999847412</ele>
        <time>2022-05-08T07:42:53Z</time>
      </trkpt>
      <trkpt lat="44.77722" lon="0.21679">
        <ele>114.09999847412</ele>
        <time>2022-05-08T07:42:57Z</time>
      </trkpt>
      <trkpt lat="44.77722" lon="0.21692">
        <ele>116.09999847412</ele>
        <time>2022-05-08T07:43:01Z</time>
      </trkpt>
      <trkpt lat="44.77722" lon="0.21704">
        <ele>116.15000152588</ele>
        <time>2022-05-08T07:43:05Z</time>
      </trkpt>
      <trkpt lat="44.77722" lon="0.2172">
        <ele>116.15000152588</ele>
        <time>2022-05-08T07:43:09Z</time>
      </trkpt>
      <trkpt lat="44.77723" lon="0.21736">
        <ele>116.15000152588</ele>
        <time>2022-05-08T07:43:13Z</time>
      </trkpt>
      <trkpt lat="44.77723" lon="0.21762">
        <ele>116.05000305176</ele>
        <time>2022-05-08T07:43:19Z</time>
      </trkpt>
      <trkpt lat="44.77723" lon="0.21779">
        <ele>116.55000305176</ele>
        <time>2022-05-08T07:43:23Z</time>
      </trkpt>
      <trkpt lat="44.77723" lon="0.21797">
        <ele>116.55000305176</ele>
        <time>2022-05-08T07:43:27Z</time>
      </trkpt>
      <trkpt lat="44.77724" lon="0.2181">
        <ele>117.25</ele>
        <time>2022-05-08T07:43:31Z</time>
      </trkpt>
      <trkpt lat="44.77707" lon="0.21807">
        <ele>117.25</ele>
        <time>2022-05-08T07:43:37Z</time>
      </trkpt>
      <trkpt lat="44.77695" lon="0.21801">
        <ele>117.25</ele>
        <time>2022-05-08T07:43:41Z</time>
      </trkpt>
      <trkpt lat="44.77684" lon="0.21795">
        <ele>116.59999847412</ele>
        <time>2022-05-08T07:43:45Z</time>
      </trkpt>
      <trkpt lat="44.77673" lon="0.21804">
        <ele>116.59999847412</ele>
        <time>2022-05-08T07:43:49Z</time>
      </trkpt>
      <trkpt lat="44.77669" lon="0.21821">
        <ele>116.59999847412</ele>
        <time>2022-05-08T07:43:53Z</time>
      </trkpt>
      <trkpt lat="44.77665" lon="0.21836">
        <ele>116.90000152588</ele>
        <time>2022-05-08T07:43:57Z</time>
      </trkpt>
      <trkpt lat="44.77665" lon="0.21849">
        <ele>116.90000152588</ele>
        <time>2022-05-08T07:44:01Z</time>
      </trkpt>
      <trkpt lat="44.7767" lon="0.21871">
        <ele>117.40000152588</ele>
        <time>2022-05-08T07:44:09Z</time>
      </trkpt>
      <trkpt lat="44.77674" lon="0.21883">
        <ele>117.40000152588</ele>
        <time>2022-05-08T07:44:13Z</time>
      </trkpt>
      <trkpt lat="44.77678" lon="0.21899">
        <ele>117.40000152588</ele>
        <time>2022-05-08T07:44:17Z</time>
      </trkpt>
      <trkpt lat="44.77672" lon="0.21912">
        <ele>116.90000152588</ele>
        <time>2022-05-08T07:44:21Z</time>
      </trkpt>
      <trkpt lat="44.77668" lon="0.21926">
        <ele>116.90000152588</ele>
        <time>2022-05-08T07:44:25Z</time>
      </trkpt>
      <trkpt lat="44.77665" lon="0.21956">
        <ele>118.90000152588</ele>
        <time>2022-05-08T07:44:31Z</time>
      </trkpt>
      <trkpt lat="44.77665" lon="0.21975">
        <ele>119.55000305176</ele>
        <time>2022-05-08T07:44:35Z</time>
      </trkpt>
      <trkpt lat="44.77659" lon="0.2199">
        <ele>119.55000305176</ele>
        <time>2022-05-08T07:44:39Z</time>
      </trkpt>
      <trkpt lat="44.77652" lon="0.22009">
        <ele>119.55000305176</ele>
        <time>2022-05-08T07:44:45Z</time>
      </trkpt>
      <trkpt lat="44.77648" lon="0.22021">
        <ele>119.69999694824</ele>
        <time>2022-05-08T07:44:49Z</time>
      </trkpt>
      <trkpt lat="44.77646" lon="0.22034">
        <ele>122.19999694824</ele>
        <time>2022-05-08T07:44:53Z</time>
      </trkpt>
      <trkpt lat="44.77645" lon="0.22049">
        <ele>122.19999694824</ele>
        <time>2022-05-08T07:44:57Z</time>
      </trkpt>
      <trkpt lat="44.77641" lon="0.22061">
        <ele>122.65000152588</ele>
        <time>2022-05-08T07:45:01Z</time>
      </trkpt>
      <trkpt lat="44.77637" lon="0.22077">
        <ele>122.65000152588</ele>
        <time>2022-05-08T07:45:05Z</time>
      </trkpt>
      <trkpt lat="44.77645" lon="0.22091">
        <ele>122.65000152588</ele>
        <time>2022-05-08T07:45:09Z</time>
      </trkpt>
      <trkpt lat="44.77644" lon="0.22113">
        <ele>123.55000305176</ele>
        <time>2022-05-08T07:45:15Z</time>
      </trkpt>
      <trkpt lat="44.77642" lon="0.22129">
        <ele>124.55000305176</ele>
        <time>2022-05-08T07:45:19Z</time>
      </trkpt>
      <trkpt lat="44.77634" lon="0.2214">
        <ele>124.55000305176</ele>
        <time>2022-05-08T07:45:23Z</time>
      </trkpt>
      <trkpt lat="44.77635" lon="0.22155">
        <ele>124.15000152588</ele>
        <time>2022-05-08T07:45:27Z</time>
      </trkpt>
      <trkpt lat="44.77644" lon="0.22161">
        <ele>124.15000152588</ele>
        <time>2022-05-08T07:45:31Z</time>
      </trkpt>
      <trkpt lat="44.77654" lon="0.22167">
        <ele>124.65000152588</ele>
        <time>2022-05-08T07:45:35Z</time>
      </trkpt>
      <trkpt lat="44.77662" lon="0.22176">
        <ele>125.75</ele>
        <time>2022-05-08T07:45:39Z</time>
      </trkpt>
      <trkpt lat="44.77666" lon="0.2219">
        <ele>126.25</ele>
        <time>2022-05-08T07:45:43Z</time>
      </trkpt>
      <trkpt lat="44.77655" lon="0.22203">
        <ele>126.25</ele>
        <time>2022-05-08T07:45:47Z</time>
      </trkpt>
      <trkpt lat="44.7764" lon="0.22205">
        <ele>125.25</ele>
        <time>2022-05-08T07:45:51Z</time>
      </trkpt>
      <trkpt lat="44.77615" lon="0.22209">
        <ele>125.25</ele>
        <time>2022-05-08T07:45:57Z</time>
      </trkpt>
      <trkpt lat="44.77597" lon="0.22216">
        <ele>124.25</ele>
        <time>2022-05-08T07:46:01Z</time>
      </trkpt>
      <trkpt lat="44.7758" lon="0.22221">
        <ele>124</ele>
        <time>2022-05-08T07:46:05Z</time>
      </trkpt>
      <trkpt lat="44.77561" lon="0.22227">
        <ele>123.5</ele>
        <time>2022-05-08T07:46:09Z</time>
      </trkpt>
      <trkpt lat="44.77542" lon="0.22233">
        <ele>123.5</ele>
        <time>2022-05-08T07:46:13Z</time>
      </trkpt>
      <trkpt lat="44.77523" lon="0.22234">
        <ele>121</ele>
        <time>2022-05-08T07:46:17Z</time>
      </trkpt>
      <trkpt lat="44.77504" lon="0.22234">
        <ele>121</ele>
        <time>2022-05-08T07:46:21Z</time>
      </trkpt>
      <trkpt lat="44.77485" lon="0.22232">
        <ele>119</ele>
        <time>2022-05-08T07:46:25Z</time>
      </trkpt>
      <trkpt lat="44.77465" lon="0.22229">
        <ele>118.40000152588</ele>
        <time>2022-05-08T07:46:29Z</time>
      </trkpt>
      <trkpt lat="44.77454" lon="0.22229">
        <ele>117.90000152588</ele>
        <time>2022-05-08T07:46:33Z</time>
      </trkpt>
      <trkpt lat="44.77435" lon="0.22225">
        <ele>117.90000152588</ele>
        <time>2022-05-08T07:46:37Z</time>
      </trkpt>
      <trkpt lat="44.77413" lon="0.22222">
        <ele>116.75</ele>
        <time>2022-05-08T07:46:41Z</time>
      </trkpt>
      <trkpt lat="44.77392" lon="0.22218">
        <ele>116.75</ele>
        <time>2022-05-08T07:46:45Z</time>
      </trkpt>
      <trkpt lat="44.7737" lon="0.22214">
        <ele>116.75</ele>
        <time>2022-05-08T07:46:49Z</time>
      </trkpt>
      <trkpt lat="44.77349" lon="0.22209">
        <ele>116.65000152588</ele>
        <time>2022-05-08T07:46:53Z</time>
      </trkpt>
      <trkpt lat="44.77326" lon="0.22203">
        <ele>116.65000152588</ele>
        <time>2022-05-08T07:46:57Z</time>
      </trkpt>
      <trkpt lat="44.77292" lon="0.22195">
        <ele>116.65000152588</ele>
        <time>2022-05-08T07:47:03Z</time>
      </trkpt>
      <trkpt lat="44.77272" lon="0.2219">
        <ele>116.40000152588</ele>
        <time>2022-05-08T07:47:07Z</time>
      </trkpt>
      <trkpt lat="44.77254" lon="0.22182">
        <ele>116.40000152588</ele>
        <time>2022-05-08T07:47:11Z</time>
      </trkpt>
      <trkpt lat="44.77239" lon="0.2219">
        <ele>116.40000152588</ele>
        <time>2022-05-08T07:47:15Z</time>
      </trkpt>
      <trkpt lat="44.77221" lon="0.22204">
        <ele>116.19999694824</ele>
        <time>2022-05-08T07:47:19Z</time>
      </trkpt>
      <trkpt lat="44.77201" lon="0.22218">
        <ele>116.19999694824</ele>
        <time>2022-05-08T07:47:23Z</time>
      </trkpt>
      <trkpt lat="44.77182" lon="0.22229">
        <ele>116.69999694824</ele>
        <time>2022-05-08T07:47:27Z</time>
      </trkpt>
      <trkpt lat="44.77165" lon="0.22241">
        <ele>116.90000152588</ele>
        <time>2022-05-08T07:47:31Z</time>
      </trkpt>
      <trkpt lat="44.77149" lon="0.22253">
        <ele>116.90000152588</ele>
        <time>2022-05-08T07:47:35Z</time>
      </trkpt>
      <trkpt lat="44.77136" lon="0.22266">
        <ele>116.90000152588</ele>
        <time>2022-05-08T07:47:39Z</time>
      </trkpt>
      <trkpt lat="44.77126" lon="0.22282">
        <ele>117.80000305176</ele>
        <time>2022-05-08T07:47:43Z</time>
      </trkpt>
      <trkpt lat="44.77118" lon="0.22298">
        <ele>117.80000305176</ele>
        <time>2022-05-08T07:47:47Z</time>
      </trkpt>
      <trkpt lat="44.7712" lon="0.22314">
        <ele>117.80000305176</ele>
        <time>2022-05-08T07:47:51Z</time>
      </trkpt>
      <trkpt lat="44.77129" lon="0.22325">
        <ele>118.94999694824</ele>
        <time>2022-05-08T07:47:55Z</time>
      </trkpt>
      <trkpt lat="44.7714" lon="0.22337">
        <ele>118.94999694824</ele>
        <time>2022-05-08T07:47:59Z</time>
      </trkpt>
      <trkpt lat="44.77152" lon="0.22349">
        <ele>118.94999694824</ele>
        <time>2022-05-08T07:48:03Z</time>
      </trkpt>
      <trkpt lat="44.77163" lon="0.22362">
        <ele>118.84999847412</ele>
        <time>2022-05-08T07:48:07Z</time>
      </trkpt>
      <trkpt lat="44.77161" lon="0.22382">
        <ele>118.84999847412</ele>
        <time>2022-05-08T07:48:11Z</time>
      </trkpt>
      <trkpt lat="44.7715" lon="0.22402">
        <ele>118.84999847412</ele>
        <time>2022-05-08T07:48:15Z</time>
      </trkpt>
      <trkpt lat="44.77135" lon="0.22423">
        <ele>118.15000152588</ele>
        <time>2022-05-08T07:48:19Z</time>
      </trkpt>
      <trkpt lat="44.77123" lon="0.22448">
        <ele>118.15000152588</ele>
        <time>2022-05-08T07:48:23Z</time>
      </trkpt>
      <trkpt lat="44.77112" lon="0.22469">
        <ele>118.15000152588</ele>
        <time>2022-05-08T07:48:27Z</time>
      </trkpt>
      <trkpt lat="44.77102" lon="0.22489">
        <ele>116.25</ele>
        <time>2022-05-08T07:48:31Z</time>
      </trkpt>
      <trkpt lat="44.77084" lon="0.22518">
        <ele>116.25</ele>
        <time>2022-05-08T07:48:37Z</time>
      </trkpt>
      <trkpt lat="44.77068" lon="0.22531">
        <ele>115.25</ele>
        <time>2022-05-08T07:48:41Z</time>
      </trkpt>
      <trkpt lat="44.77056" lon="0.22556">
        <ele>114.84999847412</ele>
        <time>2022-05-08T07:48:47Z</time>
      </trkpt>
      <trkpt lat="44.77052" lon="0.22581">
        <ele>115.34999847412</ele>
        <time>2022-05-08T07:48:51Z</time>
      </trkpt>
      <trkpt lat="44.77048" lon="0.22606">
        <ele>115.34999847412</ele>
        <time>2022-05-08T07:48:55Z</time>
      </trkpt>
      <trkpt lat="44.77036" lon="0.22626">
        <ele>114.19999694824</ele>
        <time>2022-05-08T07:48:59Z</time>
      </trkpt>
      <trkpt lat="44.77029" lon="0.22641">
        <ele>114.19999694824</ele>
        <time>2022-05-08T07:49:03Z</time>
      </trkpt>
      <trkpt lat="44.77011" lon="0.22652">
        <ele>115.59999847412</ele>
        <time>2022-05-08T07:49:11Z</time>
      </trkpt>
      <trkpt lat="44.77001" lon="0.22652">
        <ele>116.09999847412</ele>
        <time>2022-05-08T07:49:15Z</time>
      </trkpt>
      <trkpt lat="44.76982" lon="0.22659">
        <ele>116.5</ele>
        <time>2022-05-08T07:49:25Z</time>
      </trkpt>
      <trkpt lat="44.76965" lon="0.22671">
        <ele>118.25</ele>
        <time>2022-05-08T07:49:35Z</time>
      </trkpt>
      <trkpt lat="44.76958" lon="0.2269">
        <ele>117.75</ele>
        <time>2022-05-08T07:49:41Z</time>
      </trkpt>
      <trkpt lat="44.76949" lon="0.22698">
        <ele>113.09999847412</ele>
        <time>2022-05-08T07:49:49Z</time>
      </trkpt>
      <trkpt lat="44.76937" lon="0.22701">
        <ele>113.09999847412</ele>
        <time>2022-05-08T07:49:55Z</time>
      </trkpt>
      <trkpt lat="44.76927" lon="0.22705">
        <ele>113.19999694824</ele>
        <time>2022-05-08T07:50:07Z</time>
      </trkpt>
      <trkpt lat="44.76922" lon="0.22728">
        <ele>115.15000152588</ele>
        <time>2022-05-08T07:55:11Z</time>
      </trkpt>
      <trkpt lat="44.76917" lon="0.2276">
        <ele>113.80000305176</ele>
        <time>2022-05-08T07:55:21Z</time>
      </trkpt>
      <trkpt lat="44.7691" lon="0.22799">
        <ele>113.80000305176</ele>
        <time>2022-05-08T07:55:25Z</time>
      </trkpt>
      <trkpt lat="44.76911" lon="0.22818">
        <ele>113</ele>
        <time>2022-05-08T07:55:29Z</time>
      </trkpt>
      <trkpt lat="44.7691" lon="0.22834">
        <ele>113</ele>
        <time>2022-05-08T07:55:33Z</time>
      </trkpt>
      <trkpt lat="44.76915" lon="0.22849">
        <ele>112.5</ele>
        <time>2022-05-08T07:55:37Z</time>
      </trkpt>
      <trkpt lat="44.76929" lon="0.22854">
        <ele>113.59999847412</ele>
        <time>2022-05-08T07:55:41Z</time>
      </trkpt>
      <trkpt lat="44.76942" lon="0.22849">
        <ele>113.59999847412</ele>
        <time>2022-05-08T07:55:45Z</time>
      </trkpt>
      <trkpt lat="44.76959" lon="0.22843">
        <ele>113.59999847412</ele>
        <time>2022-05-08T07:55:49Z</time>
      </trkpt>
      <trkpt lat="44.76972" lon="0.22847">
        <ele>111.90000152588</ele>
        <time>2022-05-08T07:55:53Z</time>
      </trkpt>
      <trkpt lat="44.76976" lon="0.22875">
        <ele>111.90000152588</ele>
        <time>2022-05-08T07:56:01Z</time>
      </trkpt>
      <trkpt lat="44.76983" lon="0.229">
        <ele>110.15000152588</ele>
        <time>2022-05-08T07:56:07Z</time>
      </trkpt>
      <trkpt lat="44.76987" lon="0.22926">
        <ele>110.15000152588</ele>
        <time>2022-05-08T07:56:11Z</time>
      </trkpt>
      <trkpt lat="44.76985" lon="0.22945">
        <ele>110.15000152588</ele>
        <time>2022-05-08T07:56:15Z</time>
      </trkpt>
      <trkpt lat="44.76992" lon="0.2297">
        <ele>103.84999847412</ele>
        <time>2022-05-08T07:56:21Z</time>
      </trkpt>
      <trkpt lat="44.76999" lon="0.22982">
        <ele>103.34999847412</ele>
        <time>2022-05-08T07:56:25Z</time>
      </trkpt>
      <trkpt lat="44.77016" lon="0.22992">
        <ele>103.34999847412</ele>
        <time>2022-05-08T07:56:31Z</time>
      </trkpt>
      <trkpt lat="44.77036" lon="0.23001">
        <ele>105.40000152588</ele>
        <time>2022-05-08T07:56:37Z</time>
      </trkpt>
      <trkpt lat="44.77046" lon="0.23007">
        <ele>105.40000152588</ele>
        <time>2022-05-08T07:56:41Z</time>
      </trkpt>
      <trkpt lat="44.77056" lon="0.23013">
        <ele>105.40000152588</ele>
        <time>2022-05-08T07:56:45Z</time>
      </trkpt>
      <trkpt lat="44.77068" lon="0.23018">
        <ele>105.09999847412</ele>
        <time>2022-05-08T07:56:49Z</time>
      </trkpt>
      <trkpt lat="44.77077" lon="0.23022">
        <ele>105.09999847412</ele>
        <time>2022-05-08T07:56:53Z</time>
      </trkpt>
      <trkpt lat="44.77086" lon="0.2303">
        <ele>104.59999847412</ele>
        <time>2022-05-08T07:56:57Z</time>
      </trkpt>
      <trkpt lat="44.77104" lon="0.23046">
        <ele>105.5</ele>
        <time>2022-05-08T07:57:05Z</time>
      </trkpt>
      <trkpt lat="44.77116" lon="0.2305">
        <ele>105.5</ele>
        <time>2022-05-08T07:57:09Z</time>
      </trkpt>
      <trkpt lat="44.77134" lon="0.23054">
        <ele>103.19999694824</ele>
        <time>2022-05-08T07:57:15Z</time>
      </trkpt>
      <trkpt lat="44.77141" lon="0.23066">
        <ele>102.69999694824</ele>
        <time>2022-05-08T07:57:19Z</time>
      </trkpt>
      <trkpt lat="44.77154" lon="0.23089">
        <ele>102.69999694824</ele>
        <time>2022-05-08T07:57:23Z</time>
      </trkpt>
      <trkpt lat="44.77159" lon="0.23113">
        <ele>102.69999694824</ele>
        <time>2022-05-08T07:57:27Z</time>
      </trkpt>
      <trkpt lat="44.77153" lon="0.23126">
        <ele>102.69999694824</ele>
        <time>2022-05-08T07:57:31Z</time>
      </trkpt>
      <trkpt lat="44.77139" lon="0.23134">
        <ele>102.69999694824</ele>
        <time>2022-05-08T07:57:35Z</time>
      </trkpt>
      <trkpt lat="44.7713" lon="0.23146">
        <ele>98.400001525879</ele>
        <time>2022-05-08T07:57:39Z</time>
      </trkpt>
      <trkpt lat="44.77115" lon="0.23154">
        <ele>99.900001525879</ele>
        <time>2022-05-08T07:57:43Z</time>
      </trkpt>
      <trkpt lat="44.77103" lon="0.23166">
        <ele>99.900001525879</ele>
        <time>2022-05-08T07:57:47Z</time>
      </trkpt>
      <trkpt lat="44.77086" lon="0.23187">
        <ele>100.94999694824</ele>
        <time>2022-05-08T07:57:53Z</time>
      </trkpt>
      <trkpt lat="44.77064" lon="0.23201">
        <ele>100.94999694824</ele>
        <time>2022-05-08T07:58:01Z</time>
      </trkpt>
      <trkpt lat="44.77051" lon="0.23209">
        <ele>102.19999694824</ele>
        <time>2022-05-08T07:58:05Z</time>
      </trkpt>
      <trkpt lat="44.77039" lon="0.23215">
        <ele>102.19999694824</ele>
        <time>2022-05-08T07:58:09Z</time>
      </trkpt>
      <trkpt lat="44.77029" lon="0.23215">
        <ele>102.69999694824</ele>
        <time>2022-05-08T07:58:13Z</time>
      </trkpt>
      <trkpt lat="44.77018" lon="0.23211">
        <ele>102.84999847412</ele>
        <time>2022-05-08T07:58:17Z</time>
      </trkpt>
      <trkpt lat="44.77015" lon="0.23192">
        <ele>102.84999847412</ele>
        <time>2022-05-08T07:58:23Z</time>
      </trkpt>
      <trkpt lat="44.77016" lon="0.23179">
        <ele>102.84999847412</ele>
        <time>2022-05-08T07:58:27Z</time>
      </trkpt>
      <trkpt lat="44.77006" lon="0.2317">
        <ele>103.80000305176</ele>
        <time>2022-05-08T07:58:33Z</time>
      </trkpt>
      <trkpt lat="44.76992" lon="0.2318">
        <ele>103.80000305176</ele>
        <time>2022-05-08T07:58:39Z</time>
      </trkpt>
      <trkpt lat="44.76982" lon="0.23188">
        <ele>101.25</ele>
        <time>2022-05-08T07:58:43Z</time>
      </trkpt>
      <trkpt lat="44.76968" lon="0.23199">
        <ele>101.25</ele>
        <time>2022-05-08T07:58:49Z</time>
      </trkpt>
      <trkpt lat="44.76956" lon="0.23207">
        <ele>101.15000152588</ele>
        <time>2022-05-08T07:58:53Z</time>
      </trkpt>
      <trkpt lat="44.76943" lon="0.23214">
        <ele>100.65000152588</ele>
        <time>2022-05-08T07:58:57Z</time>
      </trkpt>
      <trkpt lat="44.76925" lon="0.23227">
        <ele>100.65000152588</ele>
        <time>2022-05-08T07:59:03Z</time>
      </trkpt>
      <trkpt lat="44.76916" lon="0.23239">
        <ele>99.550003051758</ele>
        <time>2022-05-08T07:59:07Z</time>
      </trkpt>
      <trkpt lat="44.76902" lon="0.23254">
        <ele>99.550003051758</ele>
        <time>2022-05-08T07:59:13Z</time>
      </trkpt>
      <trkpt lat="44.76893" lon="0.23264">
        <ele>98.800003051758</ele>
        <time>2022-05-08T07:59:17Z</time>
      </trkpt>
      <trkpt lat="44.76884" lon="0.23274">
        <ele>98.800003051758</ele>
        <time>2022-05-08T07:59:21Z</time>
      </trkpt>
      <trkpt lat="44.76876" lon="0.23284">
        <ele>99.300003051758</ele>
        <time>2022-05-08T07:59:25Z</time>
      </trkpt>
      <trkpt lat="44.76868" lon="0.23294">
        <ele>100.09999847412</ele>
        <time>2022-05-08T07:59:29Z</time>
      </trkpt>
      <trkpt lat="44.76857" lon="0.23298">
        <ele>100.09999847412</ele>
        <time>2022-05-08T07:59:33Z</time>
      </trkpt>
      <trkpt lat="44.76846" lon="0.2331">
        <ele>100.25</ele>
        <time>2022-05-08T07:59:41Z</time>
      </trkpt>
      <trkpt lat="44.76837" lon="0.23319">
        <ele>100.75</ele>
        <time>2022-05-08T07:59:45Z</time>
      </trkpt>
      <trkpt lat="44.76821" lon="0.23337">
        <ele>100.75</ele>
        <time>2022-05-08T07:59:51Z</time>
      </trkpt>
      <trkpt lat="44.7681" lon="0.2335">
        <ele>99.900001525879</ele>
        <time>2022-05-08T07:59:55Z</time>
      </trkpt>
      <trkpt lat="44.76801" lon="0.23362">
        <ele>99.900001525879</ele>
        <time>2022-05-08T07:59:59Z</time>
      </trkpt>
      <trkpt lat="44.76794" lon="0.23374">
        <ele>100.90000152588</ele>
        <time>2022-05-08T08:00:03Z</time>
      </trkpt>
      <trkpt lat="44.76787" lon="0.23385">
        <ele>101.69999694824</ele>
        <time>2022-05-08T08:00:07Z</time>
      </trkpt>
      <trkpt lat="44.7678" lon="0.23397">
        <ele>102.69999694824</ele>
        <time>2022-05-08T08:00:11Z</time>
      </trkpt>
      <trkpt lat="44.76771" lon="0.23405">
        <ele>102.69999694824</ele>
        <time>2022-05-08T08:00:15Z</time>
      </trkpt>
      <trkpt lat="44.76763" lon="0.23416">
        <ele>103.40000152588</ele>
        <time>2022-05-08T08:00:19Z</time>
      </trkpt>
      <trkpt lat="44.76753" lon="0.23435">
        <ele>103.40000152588</ele>
        <time>2022-05-08T08:00:25Z</time>
      </trkpt>
      <trkpt lat="44.76749" lon="0.2345">
        <ele>102.40000152588</ele>
        <time>2022-05-08T08:00:29Z</time>
      </trkpt>
      <trkpt lat="44.76741" lon="0.23458">
        <ele>102.15000152588</ele>
        <time>2022-05-08T08:00:33Z</time>
      </trkpt>
      <trkpt lat="44.76729" lon="0.23475">
        <ele>102.65000152588</ele>
        <time>2022-05-08T08:00:39Z</time>
      </trkpt>
      <trkpt lat="44.76718" lon="0.23483">
        <ele>102.65000152588</ele>
        <time>2022-05-08T08:00:43Z</time>
      </trkpt>
      <trkpt lat="44.76707" lon="0.23494">
        <ele>104.09999847412</ele>
        <time>2022-05-08T08:00:47Z</time>
      </trkpt>
      <trkpt lat="44.76699" lon="0.23507">
        <ele>104.09999847412</ele>
        <time>2022-05-08T08:00:51Z</time>
      </trkpt>
      <trkpt lat="44.76682" lon="0.23525">
        <ele>103.09999847412</ele>
        <time>2022-05-08T08:00:57Z</time>
      </trkpt>
      <trkpt lat="44.76665" lon="0.23542">
        <ele>106.5</ele>
        <time>2022-05-08T08:01:05Z</time>
      </trkpt>
      <trkpt lat="44.76654" lon="0.23555">
        <ele>107</ele>
        <time>2022-05-08T08:01:11Z</time>
      </trkpt>
      <trkpt lat="44.76646" lon="0.23565">
        <ele>108.5</ele>
        <time>2022-05-08T08:01:15Z</time>
      </trkpt>
      <trkpt lat="44.76636" lon="0.23575">
        <ele>108.5</ele>
        <time>2022-05-08T08:01:19Z</time>
      </trkpt>
      <trkpt lat="44.76623" lon="0.23587">
        <ele>109.59999847412</ele>
        <time>2022-05-08T08:01:25Z</time>
      </trkpt>
      <trkpt lat="44.76614" lon="0.23596">
        <ele>109.59999847412</ele>
        <time>2022-05-08T08:01:29Z</time>
      </trkpt>
      <trkpt lat="44.76603" lon="0.23612">
        <ele>108.75</ele>
        <time>2022-05-08T08:01:35Z</time>
      </trkpt>
      <trkpt lat="44.76592" lon="0.23619">
        <ele>108.75</ele>
        <time>2022-05-08T08:01:39Z</time>
      </trkpt>
      <trkpt lat="44.76576" lon="0.23635">
        <ele>110.55000305176</ele>
        <time>2022-05-08T08:01:47Z</time>
      </trkpt>
      <trkpt lat="44.76562" lon="0.23648">
        <ele>111.05000305176</ele>
        <time>2022-05-08T08:01:53Z</time>
      </trkpt>
      <trkpt lat="44.76555" lon="0.23659">
        <ele>111.05000305176</ele>
        <time>2022-05-08T08:01:57Z</time>
      </trkpt>
      <trkpt lat="44.76551" lon="0.23674">
        <ele>111.75</ele>
        <time>2022-05-08T08:02:01Z</time>
      </trkpt>
      <trkpt lat="44.76543" lon="0.23694">
        <ele>111.75</ele>
        <time>2022-05-08T08:02:07Z</time>
      </trkpt>
      <trkpt lat="44.76536" lon="0.23683">
        <ele>109.75</ele>
        <time>2022-05-08T08:02:11Z</time>
      </trkpt>
      <trkpt lat="44.76523" lon="0.23666">
        <ele>112.44999694824</ele>
        <time>2022-05-08T08:02:19Z</time>
      </trkpt>
      <trkpt lat="44.76513" lon="0.23654">
        <ele>112.44999694824</ele>
        <time>2022-05-08T08:02:25Z</time>
      </trkpt>
      <trkpt lat="44.76504" lon="0.23668">
        <ele>116.80000305176</ele>
        <time>2022-05-08T08:02:33Z</time>
      </trkpt>
      <trkpt lat="44.76503" lon="0.23688">
        <ele>115.69999694824</ele>
        <time>2022-05-08T08:02:41Z</time>
      </trkpt>
      <trkpt lat="44.765" lon="0.23701">
        <ele>115.69999694824</ele>
        <time>2022-05-08T08:02:45Z</time>
      </trkpt>
      <trkpt lat="44.76495" lon="0.23721">
        <ele>116.75</ele>
        <time>2022-05-08T08:02:53Z</time>
      </trkpt>
      <trkpt lat="44.76491" lon="0.23745">
        <ele>116.75</ele>
        <time>2022-05-08T08:02:59Z</time>
      </trkpt>
      <trkpt lat="44.76486" lon="0.23758">
        <ele>117.25</ele>
        <time>2022-05-08T08:03:03Z</time>
      </trkpt>
      <trkpt lat="44.7648" lon="0.2377">
        <ele>118.5</ele>
        <time>2022-05-08T08:03:07Z</time>
      </trkpt>
      <trkpt lat="44.76471" lon="0.23788">
        <ele>117.5</ele>
        <time>2022-05-08T08:03:13Z</time>
      </trkpt>
      <trkpt lat="44.76467" lon="0.23801">
        <ele>117.5</ele>
        <time>2022-05-08T08:03:17Z</time>
      </trkpt>
      <trkpt lat="44.76462" lon="0.23814">
        <ele>119.05000305176</ele>
        <time>2022-05-08T08:03:21Z</time>
      </trkpt>
      <trkpt lat="44.76458" lon="0.23828">
        <ele>119.05000305176</ele>
        <time>2022-05-08T08:03:25Z</time>
      </trkpt>
      <trkpt lat="44.76452" lon="0.23847">
        <ele>119.55000305176</ele>
        <time>2022-05-08T08:03:31Z</time>
      </trkpt>
      <trkpt lat="44.7645" lon="0.23861">
        <ele>119.15000152588</ele>
        <time>2022-05-08T08:03:35Z</time>
      </trkpt>
      <trkpt lat="44.76447" lon="0.23875">
        <ele>119.15000152588</ele>
        <time>2022-05-08T08:03:39Z</time>
      </trkpt>
      <trkpt lat="44.76446" lon="0.23892">
        <ele>119.15000152588</ele>
        <time>2022-05-08T08:03:43Z</time>
      </trkpt>
      <trkpt lat="44.76448" lon="0.23907">
        <ele>118.40000152588</ele>
        <time>2022-05-08T08:03:47Z</time>
      </trkpt>
      <trkpt lat="44.76463" lon="0.23934">
        <ele>118.40000152588</ele>
        <time>2022-05-08T08:03:53Z</time>
      </trkpt>
      <trkpt lat="44.76468" lon="0.2395">
        <ele>117.90000152588</ele>
        <time>2022-05-08T08:03:57Z</time>
      </trkpt>
      <trkpt lat="44.76445" lon="0.23954">
        <ele>117.65000152588</ele>
        <time>2022-05-08T08:04:07Z</time>
      </trkpt>
      <trkpt lat="44.76434" lon="0.23955">
        <ele>118.65000152588</ele>
        <time>2022-05-08T08:04:11Z</time>
      </trkpt>
      <trkpt lat="44.76422" lon="0.23956">
        <ele>118.69999694824</ele>
        <time>2022-05-08T08:04:15Z</time>
      </trkpt>
      <trkpt lat="44.76409" lon="0.23948">
        <ele>120.19999694824</ele>
        <time>2022-05-08T08:04:21Z</time>
      </trkpt>
      <trkpt lat="44.76404" lon="0.23937">
        <ele>120.19999694824</ele>
        <time>2022-05-08T08:04:25Z</time>
      </trkpt>
      <trkpt lat="44.76397" lon="0.23926">
        <ele>123.25</ele>
        <time>2022-05-08T08:04:29Z</time>
      </trkpt>
      <trkpt lat="44.76388" lon="0.23906">
        <ele>122.75</ele>
        <time>2022-05-08T08:04:37Z</time>
      </trkpt>
      <trkpt lat="44.76382" lon="0.23895">
        <ele>124.69999694824</ele>
        <time>2022-05-08T08:04:41Z</time>
      </trkpt>
      <trkpt lat="44.76364" lon="0.23881">
        <ele>125.19999694824</ele>
        <time>2022-05-08T08:04:51Z</time>
      </trkpt>
      <trkpt lat="44.76349" lon="0.23879">
        <ele>125.34999847412</ele>
        <time>2022-05-08T08:04:59Z</time>
      </trkpt>
      <trkpt lat="44.76335" lon="0.23872">
        <ele>125.94999694824</ele>
        <time>2022-05-08T08:05:07Z</time>
      </trkpt>
      <trkpt lat="44.76325" lon="0.23874">
        <ele>126.44999694824</ele>
        <time>2022-05-08T08:05:13Z</time>
      </trkpt>
      <trkpt lat="44.76315" lon="0.23871">
        <ele>126.44999694824</ele>
        <time>2022-05-08T08:05:17Z</time>
      </trkpt>
      <trkpt lat="44.76299" lon="0.2387">
        <ele>127</ele>
        <time>2022-05-08T08:05:25Z</time>
      </trkpt>
      <trkpt lat="44.7629" lon="0.23865">
        <ele>127</ele>
        <time>2022-05-08T08:05:29Z</time>
      </trkpt>
      <trkpt lat="44.7628" lon="0.23853">
        <ele>125.84999847412</ele>
        <time>2022-05-08T08:05:35Z</time>
      </trkpt>
      <trkpt lat="44.76276" lon="0.2384">
        <ele>125.84999847412</ele>
        <time>2022-05-08T08:05:39Z</time>
      </trkpt>
      <trkpt lat="44.7626" lon="0.23844">
        <ele>128.44999694824</ele>
        <time>2022-05-08T08:05:47Z</time>
      </trkpt>
      <trkpt lat="44.76248" lon="0.2385">
        <ele>128.44999694824</ele>
        <time>2022-05-08T08:05:51Z</time>
      </trkpt>
      <trkpt lat="44.76237" lon="0.23846">
        <ele>128.94999694824</ele>
        <time>2022-05-08T08:05:55Z</time>
      </trkpt>
      <trkpt lat="44.7622" lon="0.23833">
        <ele>128.64999389648</ele>
        <time>2022-05-08T08:06:01Z</time>
      </trkpt>
      <trkpt lat="44.76208" lon="0.23828">
        <ele>127.65000152588</ele>
        <time>2022-05-08T08:06:05Z</time>
      </trkpt>
      <trkpt lat="44.76193" lon="0.23826">
        <ele>127.65000152588</ele>
        <time>2022-05-08T08:06:09Z</time>
      </trkpt>
      <trkpt lat="44.76179" lon="0.23822">
        <ele>130</ele>
        <time>2022-05-08T08:06:13Z</time>
      </trkpt>
      <trkpt lat="44.76166" lon="0.23817">
        <ele>130</ele>
        <time>2022-05-08T08:06:17Z</time>
      </trkpt>
      <trkpt lat="44.76159" lon="0.23796">
        <ele>129.5</ele>
        <time>2022-05-08T08:06:23Z</time>
      </trkpt>
      <trkpt lat="44.76153" lon="0.23767">
        <ele>127</ele>
        <time>2022-05-08T08:06:29Z</time>
      </trkpt>
      <trkpt lat="44.76145" lon="0.23744">
        <ele>127</ele>
        <time>2022-05-08T08:06:33Z</time>
      </trkpt>
      <trkpt lat="44.76123" lon="0.23736">
        <ele>127.40000152588</ele>
        <time>2022-05-08T08:06:39Z</time>
      </trkpt>
      <trkpt lat="44.76103" lon="0.23725">
        <ele>127.40000152588</ele>
        <time>2022-05-08T08:06:43Z</time>
      </trkpt>
      <trkpt lat="44.76087" lon="0.23707">
        <ele>127.40000152588</ele>
        <time>2022-05-08T08:06:47Z</time>
      </trkpt>
      <trkpt lat="44.76064" lon="0.23695">
        <ele>124.90000152588</ele>
        <time>2022-05-08T08:06:51Z</time>
      </trkpt>
      <trkpt lat="44.76042" lon="0.23677">
        <ele>124.90000152588</ele>
        <time>2022-05-08T08:06:55Z</time>
      </trkpt>
      <trkpt lat="44.76026" lon="0.23649">
        <ele>124.40000152588</ele>
        <time>2022-05-08T08:06:59Z</time>
      </trkpt>
      <trkpt lat="44.76013" lon="0.23657">
        <ele>125.75</ele>
        <time>2022-05-08T08:07:03Z</time>
      </trkpt>
      <trkpt lat="44.75997" lon="0.23662">
        <ele>124.75</ele>
        <time>2022-05-08T08:07:07Z</time>
      </trkpt>
      <trkpt lat="44.75957" lon="0.2366">
        <ele>124.75</ele>
        <time>2022-05-08T08:07:13Z</time>
      </trkpt>
      <trkpt lat="44.75948" lon="0.23665">
        <ele>119.69999694824</ele>
        <time>2022-05-08T08:07:15Z</time>
      </trkpt>
      <trkpt lat="44.75936" lon="0.23691">
        <ele>119.69999694824</ele>
        <time>2022-05-08T08:07:21Z</time>
      </trkpt>
      <trkpt lat="44.75922" lon="0.237">
        <ele>119.69999694824</ele>
        <time>2022-05-08T08:07:25Z</time>
      </trkpt>
      <trkpt lat="44.75911" lon="0.23709">
        <ele>121.80000305176</ele>
        <time>2022-05-08T08:07:29Z</time>
      </trkpt>
      <trkpt lat="44.75898" lon="0.23719">
        <ele>121.30000305176</ele>
        <time>2022-05-08T08:07:33Z</time>
      </trkpt>
      <trkpt lat="44.75881" lon="0.23732">
        <ele>121.30000305176</ele>
        <time>2022-05-08T08:07:37Z</time>
      </trkpt>
      <trkpt lat="44.75862" lon="0.2375">
        <ele>120.90000152588</ele>
        <time>2022-05-08T08:07:41Z</time>
      </trkpt>
      <trkpt lat="44.75847" lon="0.23763">
        <ele>120.90000152588</ele>
        <time>2022-05-08T08:07:45Z</time>
      </trkpt>
      <trkpt lat="44.75829" lon="0.23774">
        <ele>121.90000152588</ele>
        <time>2022-05-08T08:07:49Z</time>
      </trkpt>
      <trkpt lat="44.75826" lon="0.23793">
        <ele>121.40000152588</ele>
        <time>2022-05-08T08:07:53Z</time>
      </trkpt>
      <trkpt lat="44.75828" lon="0.23819">
        <ele>120.90000152588</ele>
        <time>2022-05-08T08:07:59Z</time>
      </trkpt>
      <trkpt lat="44.75822" lon="0.23831">
        <ele>120.90000152588</ele>
        <time>2022-05-08T08:08:03Z</time>
      </trkpt>
      <trkpt lat="44.75821" lon="0.23844">
        <ele>118.75</ele>
        <time>2022-05-08T08:08:07Z</time>
      </trkpt>
      <trkpt lat="44.75825" lon="0.23861">
        <ele>121.75</ele>
        <time>2022-05-08T08:08:11Z</time>
      </trkpt>
      <trkpt lat="44.75828" lon="0.23888">
        <ele>124.55000305176</ele>
        <time>2022-05-08T08:08:19Z</time>
      </trkpt>
      <trkpt lat="44.75822" lon="0.23904">
        <ele>124.55000305176</ele>
        <time>2022-05-08T08:08:27Z</time>
      </trkpt>
      <trkpt lat="44.7582" lon="0.23924">
        <ele>121.5</ele>
        <time>2022-05-08T08:08:35Z</time>
      </trkpt>
      <trkpt lat="44.75821" lon="0.23943">
        <ele>125.55000305176</ele>
        <time>2022-05-08T08:08:43Z</time>
      </trkpt>
      <trkpt lat="44.75818" lon="0.23961">
        <ele>125.55000305176</ele>
        <time>2022-05-08T08:08:51Z</time>
      </trkpt>
      <trkpt lat="44.75811" lon="0.23983">
        <ele>123.75</ele>
        <time>2022-05-08T08:09:01Z</time>
      </trkpt>
      <trkpt lat="44.75808" lon="0.24">
        <ele>125.65000152588</ele>
        <time>2022-05-08T08:09:09Z</time>
      </trkpt>
      <trkpt lat="44.75804" lon="0.24014">
        <ele>125.65000152588</ele>
        <time>2022-05-08T08:09:17Z</time>
      </trkpt>
      <trkpt lat="44.75805" lon="0.24035">
        <ele>127.09999847412</ele>
        <time>2022-05-08T08:09:25Z</time>
      </trkpt>
      <trkpt lat="44.75807" lon="0.24053">
        <ele>126.75</ele>
        <time>2022-05-08T08:09:33Z</time>
      </trkpt>
      <trkpt lat="44.75809" lon="0.24081">
        <ele>126.75</ele>
        <time>2022-05-08T08:09:43Z</time>
      </trkpt>
      <trkpt lat="44.75804" lon="0.241">
        <ele>127.94999694824</ele>
        <time>2022-05-08T08:09:51Z</time>
      </trkpt>
      <trkpt lat="44.7579" lon="0.24102">
        <ele>127.94999694824</ele>
        <time>2022-05-08T08:09:55Z</time>
      </trkpt>
      <trkpt lat="44.75776" lon="0.24102">
        <ele>130.69999694824</ele>
        <time>2022-05-08T08:10:01Z</time>
      </trkpt>
      <trkpt lat="44.75756" lon="0.24103">
        <ele>130.69999694824</ele>
        <time>2022-05-08T08:10:09Z</time>
      </trkpt>
      <trkpt lat="44.75735" lon="0.24109">
        <ele>129.05000305176</ele>
        <time>2022-05-08T08:10:13Z</time>
      </trkpt>
      <trkpt lat="44.75716" lon="0.24115">
        <ele>129.05000305176</ele>
        <time>2022-05-08T08:10:17Z</time>
      </trkpt>
      <trkpt lat="44.75695" lon="0.24121">
        <ele>129.05000305176</ele>
        <time>2022-05-08T08:10:21Z</time>
      </trkpt>
      <trkpt lat="44.7568" lon="0.24127">
        <ele>129.85000610352</ele>
        <time>2022-05-08T08:10:25Z</time>
      </trkpt>
      <trkpt lat="44.75657" lon="0.24134">
        <ele>129.85000610352</ele>
        <time>2022-05-08T08:10:31Z</time>
      </trkpt>
      <trkpt lat="44.75639" lon="0.24137">
        <ele>129.85000610352</ele>
        <time>2022-05-08T08:10:35Z</time>
      </trkpt>
      <trkpt lat="44.75617" lon="0.24144">
        <ele>131.94999694824</ele>
        <time>2022-05-08T08:10:39Z</time>
      </trkpt>
      <trkpt lat="44.75598" lon="0.24149">
        <ele>131.94999694824</ele>
        <time>2022-05-08T08:10:43Z</time>
      </trkpt>
      <trkpt lat="44.75581" lon="0.24154">
        <ele>131.94999694824</ele>
        <time>2022-05-08T08:10:47Z</time>
      </trkpt>
      <trkpt lat="44.75567" lon="0.24154">
        <ele>130.10000610352</ele>
        <time>2022-05-08T08:10:51Z</time>
      </trkpt>
      <trkpt lat="44.75555" lon="0.24141">
        <ele>130.10000610352</ele>
        <time>2022-05-08T08:10:59Z</time>
      </trkpt>
      <trkpt lat="44.75542" lon="0.24125">
        <ele>130.25</ele>
        <time>2022-05-08T08:11:05Z</time>
      </trkpt>
      <trkpt lat="44.75526" lon="0.24124">
        <ele>130.25</ele>
        <time>2022-05-08T08:11:09Z</time>
      </trkpt>
      <trkpt lat="44.75512" lon="0.24128">
        <ele>130.25</ele>
        <time>2022-05-08T08:11:13Z</time>
      </trkpt>
      <trkpt lat="44.75501" lon="0.24122">
        <ele>129.19999694824</ele>
        <time>2022-05-08T08:11:17Z</time>
      </trkpt>
      <trkpt lat="44.75488" lon="0.24106">
        <ele>125.19999694824</ele>
        <time>2022-05-08T08:11:21Z</time>
      </trkpt>
      <trkpt lat="44.7547" lon="0.24088">
        <ele>125.19999694824</ele>
        <time>2022-05-08T08:11:27Z</time>
      </trkpt>
      <trkpt lat="44.75458" lon="0.24088">
        <ele>119.40000152588</ele>
        <time>2022-05-08T08:11:31Z</time>
      </trkpt>
      <trkpt lat="44.75446" lon="0.24082">
        <ele>119.40000152588</ele>
        <time>2022-05-08T08:11:35Z</time>
      </trkpt>
      <trkpt lat="44.75431" lon="0.24083">
        <ele>115.90000152588</ele>
        <time>2022-05-08T08:11:39Z</time>
      </trkpt>
      <trkpt lat="44.75421" lon="0.24089">
        <ele>116.15000152588</ele>
        <time>2022-05-08T08:11:43Z</time>
      </trkpt>
      <trkpt lat="44.75409" lon="0.24096">
        <ele>119.15000152588</ele>
        <time>2022-05-08T08:11:53Z</time>
      </trkpt>
      <trkpt lat="44.75399" lon="0.24091">
        <ele>121.84999847412</ele>
        <time>2022-05-08T08:11:57Z</time>
      </trkpt>
      <trkpt lat="44.75389" lon="0.24079">
        <ele>121.34999847412</ele>
        <time>2022-05-08T08:12:01Z</time>
      </trkpt>
      <trkpt lat="44.7539" lon="0.24057">
        <ele>121.34999847412</ele>
        <time>2022-05-08T08:12:07Z</time>
      </trkpt>
      <trkpt lat="44.75398" lon="0.24044">
        <ele>116.59999847412</ele>
        <time>2022-05-08T08:12:11Z</time>
      </trkpt>
      <trkpt lat="44.75399" lon="0.24024">
        <ele>116.59999847412</ele>
        <time>2022-05-08T08:12:15Z</time>
      </trkpt>
      <trkpt lat="44.75399" lon="0.23999">
        <ele>116.59999847412</ele>
        <time>2022-05-08T08:12:19Z</time>
      </trkpt>
      <trkpt lat="44.75397" lon="0.23979">
        <ele>115.65000152588</ele>
        <time>2022-05-08T08:12:25Z</time>
      </trkpt>
      <trkpt lat="44.75382" lon="0.23944">
        <ele>114.65000152588</ele>
        <time>2022-05-08T08:12:33Z</time>
      </trkpt>
      <trkpt lat="44.75375" lon="0.2393">
        <ele>113.44999694824</ele>
        <time>2022-05-08T08:12:37Z</time>
      </trkpt>
      <trkpt lat="44.75368" lon="0.23912">
        <ele>113.44999694824</ele>
        <time>2022-05-08T08:12:41Z</time>
      </trkpt>
      <trkpt lat="44.75362" lon="0.23898">
        <ele>111.94999694824</ele>
        <time>2022-05-08T08:12:45Z</time>
      </trkpt>
      <trkpt lat="44.75352" lon="0.23884">
        <ele>111.40000152588</ele>
        <time>2022-05-08T08:12:49Z</time>
      </trkpt>
      <trkpt lat="44.75343" lon="0.23868">
        <ele>111.90000152588</ele>
        <time>2022-05-08T08:12:53Z</time>
      </trkpt>
      <trkpt lat="44.75333" lon="0.23854">
        <ele>111.90000152588</ele>
        <time>2022-05-08T08:12:57Z</time>
      </trkpt>
      <trkpt lat="44.75324" lon="0.2384">
        <ele>112.90000152588</ele>
        <time>2022-05-08T08:13:01Z</time>
      </trkpt>
      <trkpt lat="44.75317" lon="0.2383">
        <ele>112.90000152588</ele>
        <time>2022-05-08T08:13:05Z</time>
      </trkpt>
      <trkpt lat="44.75307" lon="0.23821">
        <ele>111.90000152588</ele>
        <time>2022-05-08T08:13:11Z</time>
      </trkpt>
      <trkpt lat="44.75297" lon="0.23809">
        <ele>113.34999847412</ele>
        <time>2022-05-08T08:13:19Z</time>
      </trkpt>
      <trkpt lat="44.75287" lon="0.23796">
        <ele>113.34999847412</ele>
        <time>2022-05-08T08:13:25Z</time>
      </trkpt>
      <trkpt lat="44.7528" lon="0.23787">
        <ele>113.84999847412</ele>
        <time>2022-05-08T08:13:29Z</time>
      </trkpt>
      <trkpt lat="44.75272" lon="0.23778">
        <ele>113.84999847412</ele>
        <time>2022-05-08T08:13:33Z</time>
      </trkpt>
      <trkpt lat="44.7526" lon="0.23765">
        <ele>115.59999847412</ele>
        <time>2022-05-08T08:13:41Z</time>
      </trkpt>
      <trkpt lat="44.75272" lon="0.23746">
        <ele>116.09999847412</ele>
        <time>2022-05-08T08:13:49Z</time>
      </trkpt>
      <trkpt lat="44.75282" lon="0.23737">
        <ele>114.84999847412</ele>
        <time>2022-05-08T08:13:53Z</time>
      </trkpt>
      <trkpt lat="44.75291" lon="0.23727">
        <ele>114.34999847412</ele>
        <time>2022-05-08T08:13:57Z</time>
      </trkpt>
      <trkpt lat="44.753" lon="0.23718">
        <ele>114.34999847412</ele>
        <time>2022-05-08T08:14:01Z</time>
      </trkpt>
      <trkpt lat="44.75308" lon="0.23708">
        <ele>112.75</ele>
        <time>2022-05-08T08:14:05Z</time>
      </trkpt>
      <trkpt lat="44.75305" lon="0.2369">
        <ele>112.75</ele>
        <time>2022-05-08T08:14:11Z</time>
      </trkpt>
      <trkpt lat="44.75289" lon="0.23669">
        <ele>113</ele>
        <time>2022-05-08T08:14:19Z</time>
      </trkpt>
      <trkpt lat="44.75282" lon="0.2366">
        <ele>113.5</ele>
        <time>2022-05-08T08:14:23Z</time>
      </trkpt>
      <trkpt lat="44.75275" lon="0.23651">
        <ele>113.5</ele>
        <time>2022-05-08T08:14:27Z</time>
      </trkpt>
      <trkpt lat="44.75268" lon="0.23641">
        <ele>114.44999694824</ele>
        <time>2022-05-08T08:14:31Z</time>
      </trkpt>
      <trkpt lat="44.7526" lon="0.2363">
        <ele>114.44999694824</ele>
        <time>2022-05-08T08:14:35Z</time>
      </trkpt>
      <trkpt lat="44.75252" lon="0.23619">
        <ele>114.44999694824</ele>
        <time>2022-05-08T08:14:39Z</time>
      </trkpt>
      <trkpt lat="44.75245" lon="0.23605">
        <ele>114.75</ele>
        <time>2022-05-08T08:14:43Z</time>
      </trkpt>
      <trkpt lat="44.75237" lon="0.23591">
        <ele>114.75</ele>
        <time>2022-05-08T08:14:47Z</time>
      </trkpt>
      <trkpt lat="44.75226" lon="0.2358">
        <ele>114.75</ele>
        <time>2022-05-08T08:14:51Z</time>
      </trkpt>
      <trkpt lat="44.75217" lon="0.23568">
        <ele>113.84999847412</ele>
        <time>2022-05-08T08:14:55Z</time>
      </trkpt>
      <trkpt lat="44.7521" lon="0.23555">
        <ele>113.84999847412</ele>
        <time>2022-05-08T08:14:59Z</time>
      </trkpt>
      <trkpt lat="44.75202" lon="0.23542">
        <ele>114.34999847412</ele>
        <time>2022-05-08T08:15:03Z</time>
      </trkpt>
      <trkpt lat="44.75195" lon="0.23529">
        <ele>114.55000305176</ele>
        <time>2022-05-08T08:15:07Z</time>
      </trkpt>
      <trkpt lat="44.75187" lon="0.23516">
        <ele>115.05000305176</ele>
        <time>2022-05-08T08:15:11Z</time>
      </trkpt>
      <trkpt lat="44.75178" lon="0.23502">
        <ele>115.05000305176</ele>
        <time>2022-05-08T08:15:15Z</time>
      </trkpt>
      <trkpt lat="44.75171" lon="0.23486">
        <ele>115.55000305176</ele>
        <time>2022-05-08T08:15:19Z</time>
      </trkpt>
      <trkpt lat="44.75162" lon="0.23463">
        <ele>115.55000305176</ele>
        <time>2022-05-08T08:15:25Z</time>
      </trkpt>
      <trkpt lat="44.75158" lon="0.23447">
        <ele>116.55000305176</ele>
        <time>2022-05-08T08:15:29Z</time>
      </trkpt>
      <trkpt lat="44.75158" lon="0.23432">
        <ele>116.30000305176</ele>
        <time>2022-05-08T08:15:33Z</time>
      </trkpt>
      <trkpt lat="44.75163" lon="0.23415">
        <ele>116.30000305176</ele>
        <time>2022-05-08T08:15:37Z</time>
      </trkpt>
      <trkpt lat="44.75171" lon="0.234">
        <ele>116.30000305176</ele>
        <time>2022-05-08T08:15:41Z</time>
      </trkpt>
      <trkpt lat="44.75178" lon="0.23387">
        <ele>118</ele>
        <time>2022-05-08T08:15:45Z</time>
      </trkpt>
      <trkpt lat="44.75177" lon="0.23373">
        <ele>118</ele>
        <time>2022-05-08T08:15:49Z</time>
      </trkpt>
      <trkpt lat="44.75182" lon="0.23354">
        <ele>118</ele>
        <time>2022-05-08T08:15:55Z</time>
      </trkpt>
      <trkpt lat="44.75189" lon="0.23341">
        <ele>117.05000305176</ele>
        <time>2022-05-08T08:15:59Z</time>
      </trkpt>
      <trkpt lat="44.75193" lon="0.23327">
        <ele>116.55000305176</ele>
        <time>2022-05-08T08:16:03Z</time>
      </trkpt>
      <trkpt lat="44.75197" lon="0.23314">
        <ele>116.55000305176</ele>
        <time>2022-05-08T08:16:07Z</time>
      </trkpt>
      <trkpt lat="44.75204" lon="0.23303">
        <ele>117.40000152588</ele>
        <time>2022-05-08T08:16:11Z</time>
      </trkpt>
      <trkpt lat="44.75214" lon="0.23294">
        <ele>117.40000152588</ele>
        <time>2022-05-08T08:16:15Z</time>
      </trkpt>
      <trkpt lat="44.7523" lon="0.23284">
        <ele>117.40000152588</ele>
        <time>2022-05-08T08:16:21Z</time>
      </trkpt>
      <trkpt lat="44.75243" lon="0.2328">
        <ele>117.84999847412</ele>
        <time>2022-05-08T08:16:25Z</time>
      </trkpt>
      <trkpt lat="44.75256" lon="0.23279">
        <ele>117.34999847412</ele>
        <time>2022-05-08T08:16:29Z</time>
      </trkpt>
      <trkpt lat="44.75267" lon="0.23274">
        <ele>117.34999847412</ele>
        <time>2022-05-08T08:16:33Z</time>
      </trkpt>
      <trkpt lat="44.75262" lon="0.23264">
        <ele>116.80000305176</ele>
        <time>2022-05-08T08:16:37Z</time>
      </trkpt>
      <trkpt lat="44.75255" lon="0.23252">
        <ele>116.80000305176</ele>
        <time>2022-05-08T08:16:41Z</time>
      </trkpt>
      <trkpt lat="44.75253" lon="0.23229">
        <ele>117.30000305176</ele>
        <time>2022-05-08T08:16:47Z</time>
      </trkpt>
      <trkpt lat="44.75255" lon="0.23216">
        <ele>118.34999847412</ele>
        <time>2022-05-08T08:16:51Z</time>
      </trkpt>
      <trkpt lat="44.75251" lon="0.23198">
        <ele>119.84999847412</ele>
        <time>2022-05-08T08:16:57Z</time>
      </trkpt>
      <trkpt lat="44.7524" lon="0.23184">
        <ele>120.19999694824</ele>
        <time>2022-05-08T08:17:03Z</time>
      </trkpt>
      <trkpt lat="44.75233" lon="0.23175">
        <ele>120.19999694824</ele>
        <time>2022-05-08T08:17:07Z</time>
      </trkpt>
      <trkpt lat="44.75222" lon="0.23159">
        <ele>121.84999847412</ele>
        <time>2022-05-08T08:17:15Z</time>
      </trkpt>
      <trkpt lat="44.75209" lon="0.23141">
        <ele>123.34999847412</ele>
        <time>2022-05-08T08:17:23Z</time>
      </trkpt>
      <trkpt lat="44.75198" lon="0.23123">
        <ele>123.94999694824</ele>
        <time>2022-05-08T08:17:31Z</time>
      </trkpt>
      <trkpt lat="44.75203" lon="0.23111">
        <ele>123.94999694824</ele>
        <time>2022-05-08T08:17:35Z</time>
      </trkpt>
      <trkpt lat="44.75196" lon="0.23097">
        <ele>123.55000305176</ele>
        <time>2022-05-08T08:17:41Z</time>
      </trkpt>
      <trkpt lat="44.75185" lon="0.23091">
        <ele>123.55000305176</ele>
        <time>2022-05-08T08:17:45Z</time>
      </trkpt>
      <trkpt lat="44.75173" lon="0.23082">
        <ele>123.55000305176</ele>
        <time>2022-05-08T08:17:49Z</time>
      </trkpt>
      <trkpt lat="44.7516" lon="0.23074">
        <ele>123.59999847412</ele>
        <time>2022-05-08T08:17:53Z</time>
      </trkpt>
      <trkpt lat="44.75148" lon="0.23065">
        <ele>123.09999847412</ele>
        <time>2022-05-08T08:17:57Z</time>
      </trkpt>
      <trkpt lat="44.75133" lon="0.23056">
        <ele>123.09999847412</ele>
        <time>2022-05-08T08:18:01Z</time>
      </trkpt>
      <trkpt lat="44.75118" lon="0.23044">
        <ele>121.55000305176</ele>
        <time>2022-05-08T08:18:05Z</time>
      </trkpt>
      <trkpt lat="44.75103" lon="0.23033">
        <ele>121.55000305176</ele>
        <time>2022-05-08T08:18:09Z</time>
      </trkpt>
      <trkpt lat="44.75089" lon="0.23018">
        <ele>121.05000305176</ele>
        <time>2022-05-08T08:18:13Z</time>
      </trkpt>
      <trkpt lat="44.7508" lon="0.2301">
        <ele>120.15000152588</ele>
        <time>2022-05-08T08:18:17Z</time>
      </trkpt>
      <trkpt lat="44.75068" lon="0.22995">
        <ele>120.15000152588</ele>
        <time>2022-05-08T08:18:23Z</time>
      </trkpt>
      <trkpt lat="44.75058" lon="0.22985">
        <ele>120.15000152588</ele>
        <time>2022-05-08T08:18:27Z</time>
      </trkpt>
      <trkpt lat="44.75049" lon="0.22975">
        <ele>122.05000305176</ele>
        <time>2022-05-08T08:18:31Z</time>
      </trkpt>
      <trkpt lat="44.7504" lon="0.22964">
        <ele>122.05000305176</ele>
        <time>2022-05-08T08:18:35Z</time>
      </trkpt>
      <trkpt lat="44.7503" lon="0.22954">
        <ele>122.55000305176</ele>
        <time>2022-05-08T08:18:39Z</time>
      </trkpt>
      <trkpt lat="44.75022" lon="0.22944">
        <ele>123.25</ele>
        <time>2022-05-08T08:18:43Z</time>
      </trkpt>
      <trkpt lat="44.75013" lon="0.22939">
        <ele>123.75</ele>
        <time>2022-05-08T08:18:47Z</time>
      </trkpt>
      <trkpt lat="44.75004" lon="0.22946">
        <ele>123.75</ele>
        <time>2022-05-08T08:18:51Z</time>
      </trkpt>
      <trkpt lat="44.74995" lon="0.22955">
        <ele>124.34999847412</ele>
        <time>2022-05-08T08:18:55Z</time>
      </trkpt>
      <trkpt lat="44.74983" lon="0.22967">
        <ele>124.84999847412</ele>
        <time>2022-05-08T08:19:01Z</time>
      </trkpt>
      <trkpt lat="44.74976" lon="0.22976">
        <ele>124.84999847412</ele>
        <time>2022-05-08T08:19:05Z</time>
      </trkpt>
      <trkpt lat="44.74968" lon="0.22985">
        <ele>124.90000152588</ele>
        <time>2022-05-08T08:19:09Z</time>
      </trkpt>
      <trkpt lat="44.74959" lon="0.22999">
        <ele>124.90000152588</ele>
        <time>2022-05-08T08:19:15Z</time>
      </trkpt>
      <trkpt lat="44.74946" lon="0.23013">
        <ele>125.44999694824</ele>
        <time>2022-05-08T08:19:23Z</time>
      </trkpt>
      <trkpt lat="44.74929" lon="0.23027">
        <ele>123.44999694824</ele>
        <time>2022-05-08T08:19:33Z</time>
      </trkpt>
      <trkpt lat="44.74916" lon="0.2304">
        <ele>124.40000152588</ele>
        <time>2022-05-08T08:19:41Z</time>
      </trkpt>
      <trkpt lat="44.74899" lon="0.2306">
        <ele>124.90000152588</ele>
        <time>2022-05-08T08:19:51Z</time>
      </trkpt>
      <trkpt lat="44.74893" lon="0.23071">
        <ele>124.40000152588</ele>
        <time>2022-05-08T08:19:55Z</time>
      </trkpt>
      <trkpt lat="44.74887" lon="0.23083">
        <ele>124.40000152588</ele>
        <time>2022-05-08T08:19:59Z</time>
      </trkpt>
      <trkpt lat="44.74883" lon="0.23096">
        <ele>124.34999847412</ele>
        <time>2022-05-08T08:20:03Z</time>
      </trkpt>
      <trkpt lat="44.74883" lon="0.23109">
        <ele>124.34999847412</ele>
        <time>2022-05-08T08:20:07Z</time>
      </trkpt>
      <trkpt lat="44.74885" lon="0.23122">
        <ele>124.84999847412</ele>
        <time>2022-05-08T08:20:11Z</time>
      </trkpt>
      <trkpt lat="44.7489" lon="0.23145">
        <ele>124.84999847412</ele>
        <time>2022-05-08T08:20:17Z</time>
      </trkpt>
      <trkpt lat="44.74896" lon="0.23164">
        <ele>124.84999847412</ele>
        <time>2022-05-08T08:20:21Z</time>
      </trkpt>
      <trkpt lat="44.74908" lon="0.23183">
        <ele>124.84999847412</ele>
        <time>2022-05-08T08:20:25Z</time>
      </trkpt>
      <trkpt lat="44.74922" lon="0.23189">
        <ele>122.90000152588</ele>
        <time>2022-05-08T08:20:29Z</time>
      </trkpt>
      <trkpt lat="44.74934" lon="0.23181">
        <ele>122.90000152588</ele>
        <time>2022-05-08T08:20:33Z</time>
      </trkpt>
      <trkpt lat="44.74943" lon="0.23174">
        <ele>122.90000152588</ele>
        <time>2022-05-08T08:20:37Z</time>
      </trkpt>
      <trkpt lat="44.74928" lon="0.23193">
        <ele>122.90000152588</ele>
        <time>2022-05-08T08:20:49Z</time>
      </trkpt>
      <trkpt lat="44.74922" lon="0.23211">
        <ele>122.80000305176</ele>
        <time>2022-05-08T08:20:53Z</time>
      </trkpt>
      <trkpt lat="44.74929" lon="0.2323">
        <ele>122.80000305176</ele>
        <time>2022-05-08T08:20:57Z</time>
      </trkpt>
      <trkpt lat="44.74939" lon="0.23256">
        <ele>122.80000305176</ele>
        <time>2022-05-08T08:21:03Z</time>
      </trkpt>
      <trkpt lat="44.74946" lon="0.23272">
        <ele>121.30000305176</ele>
        <time>2022-05-08T08:21:07Z</time>
      </trkpt>
      <trkpt lat="44.74956" lon="0.23295">
        <ele>121.30000305176</ele>
        <time>2022-05-08T08:21:13Z</time>
      </trkpt>
      <trkpt lat="44.74965" lon="0.2331">
        <ele>121.30000305176</ele>
        <time>2022-05-08T08:21:17Z</time>
      </trkpt>
      <trkpt lat="44.74972" lon="0.23324">
        <ele>121.65000152588</ele>
        <time>2022-05-08T08:21:21Z</time>
      </trkpt>
      <trkpt lat="44.7498" lon="0.23338">
        <ele>122.15000152588</ele>
        <time>2022-05-08T08:21:25Z</time>
      </trkpt>
      <trkpt lat="44.74987" lon="0.23353">
        <ele>122.15000152588</ele>
        <time>2022-05-08T08:21:29Z</time>
      </trkpt>
      <trkpt lat="44.74996" lon="0.2337">
        <ele>121.30000305176</ele>
        <time>2022-05-08T08:21:33Z</time>
      </trkpt>
      <trkpt lat="44.75004" lon="0.23387">
        <ele>121.30000305176</ele>
        <time>2022-05-08T08:21:37Z</time>
      </trkpt>
      <trkpt lat="44.75013" lon="0.23404">
        <ele>121.80000305176</ele>
        <time>2022-05-08T08:21:41Z</time>
      </trkpt>
      <trkpt lat="44.75023" lon="0.23421">
        <ele>121.09999847412</ele>
        <time>2022-05-08T08:21:45Z</time>
      </trkpt>
      <trkpt lat="44.75028" lon="0.23441">
        <ele>120.59999847412</ele>
        <time>2022-05-08T08:21:49Z</time>
      </trkpt>
      <trkpt lat="44.75037" lon="0.23471">
        <ele>120.59999847412</ele>
        <time>2022-05-08T08:21:55Z</time>
      </trkpt>
      <trkpt lat="44.75041" lon="0.23492">
        <ele>120.84999847412</ele>
        <time>2022-05-08T08:21:59Z</time>
      </trkpt>
      <trkpt lat="44.75044" lon="0.2351">
        <ele>120.84999847412</ele>
        <time>2022-05-08T08:22:03Z</time>
      </trkpt>
      <trkpt lat="44.75046" lon="0.23528">
        <ele>119.84999847412</ele>
        <time>2022-05-08T08:22:07Z</time>
      </trkpt>
      <trkpt lat="44.75043" lon="0.23547">
        <ele>119.84999847412</ele>
        <time>2022-05-08T08:22:11Z</time>
      </trkpt>
      <trkpt lat="44.7504" lon="0.23565">
        <ele>119.84999847412</ele>
        <time>2022-05-08T08:22:15Z</time>
      </trkpt>
      <trkpt lat="44.75037" lon="0.23583">
        <ele>119.84999847412</ele>
        <time>2022-05-08T08:22:19Z</time>
      </trkpt>
      <trkpt lat="44.75034" lon="0.23601">
        <ele>119.69999694824</ele>
        <time>2022-05-08T08:22:23Z</time>
      </trkpt>
      <trkpt lat="44.75029" lon="0.2363">
        <ele>119.69999694824</ele>
        <time>2022-05-08T08:22:29Z</time>
      </trkpt>
      <trkpt lat="44.75026" lon="0.23651">
        <ele>119.69999694824</ele>
        <time>2022-05-08T08:22:33Z</time>
      </trkpt>
      <trkpt lat="44.75022" lon="0.23679">
        <ele>119.84999847412</ele>
        <time>2022-05-08T08:22:39Z</time>
      </trkpt>
      <trkpt lat="44.75018" lon="0.23699">
        <ele>120.34999847412</ele>
        <time>2022-05-08T08:22:43Z</time>
      </trkpt>
      <trkpt lat="44.75014" lon="0.23719">
        <ele>120.34999847412</ele>
        <time>2022-05-08T08:22:47Z</time>
      </trkpt>
      <trkpt lat="44.7501" lon="0.23739">
        <ele>121.09999847412</ele>
        <time>2022-05-08T08:22:51Z</time>
      </trkpt>
      <trkpt lat="44.75004" lon="0.23759">
        <ele>121.09999847412</ele>
        <time>2022-05-08T08:22:55Z</time>
      </trkpt>
      <trkpt lat="44.74999" lon="0.23778">
        <ele>121.59999847412</ele>
        <time>2022-05-08T08:22:59Z</time>
      </trkpt>
      <trkpt lat="44.74993" lon="0.23798">
        <ele>121.75</ele>
        <time>2022-05-08T08:23:03Z</time>
      </trkpt>
      <trkpt lat="44.74987" lon="0.23819">
        <ele>121.75</ele>
        <time>2022-05-08T08:23:07Z</time>
      </trkpt>
      <trkpt lat="44.74984" lon="0.23839">
        <ele>121.75</ele>
        <time>2022-05-08T08:23:11Z</time>
      </trkpt>
      <trkpt lat="44.7498" lon="0.23859">
        <ele>122</ele>
        <time>2022-05-08T08:23:15Z</time>
      </trkpt>
      <trkpt lat="44.74978" lon="0.23877">
        <ele>122</ele>
        <time>2022-05-08T08:23:19Z</time>
      </trkpt>
      <trkpt lat="44.7497" lon="0.2391">
        <ele>121.5</ele>
        <time>2022-05-08T08:23:25Z</time>
      </trkpt>
      <trkpt lat="44.74953" lon="0.23932">
        <ele>121.75</ele>
        <time>2022-05-08T08:23:31Z</time>
      </trkpt>
      <trkpt lat="44.74941" lon="0.23949">
        <ele>122.25</ele>
        <time>2022-05-08T08:23:35Z</time>
      </trkpt>
      <trkpt lat="44.74923" lon="0.23973">
        <ele>122.25</ele>
        <time>2022-05-08T08:23:41Z</time>
      </trkpt>
      <trkpt lat="44.74911" lon="0.23989">
        <ele>123.09999847412</ele>
        <time>2022-05-08T08:23:45Z</time>
      </trkpt>
      <trkpt lat="44.74896" lon="0.24013">
        <ele>123.09999847412</ele>
        <time>2022-05-08T08:23:51Z</time>
      </trkpt>
      <trkpt lat="44.74903" lon="0.24027">
        <ele>123.59999847412</ele>
        <time>2022-05-08T08:23:55Z</time>
      </trkpt>
      <trkpt lat="44.74912" lon="0.24042">
        <ele>123.40000152588</ele>
        <time>2022-05-08T08:23:59Z</time>
      </trkpt>
      <trkpt lat="44.74922" lon="0.24057">
        <ele>123.40000152588</ele>
        <time>2022-05-08T08:24:03Z</time>
      </trkpt>
      <trkpt lat="44.74934" lon="0.24067">
        <ele>123.40000152588</ele>
        <time>2022-05-08T08:24:07Z</time>
      </trkpt>
      <trkpt lat="44.74951" lon="0.24061">
        <ele>121.5</ele>
        <time>2022-05-08T08:24:11Z</time>
      </trkpt>
      <trkpt lat="44.74965" lon="0.2406">
        <ele>121.5</ele>
        <time>2022-05-08T08:24:15Z</time>
      </trkpt>
      <trkpt lat="44.74981" lon="0.24072">
        <ele>121</ele>
        <time>2022-05-08T08:24:21Z</time>
      </trkpt>
      <trkpt lat="44.74983" lon="0.24089">
        <ele>120.09999847412</ele>
        <time>2022-05-08T08:24:25Z</time>
      </trkpt>
      <trkpt lat="44.74987" lon="0.24105">
        <ele>119.59999847412</ele>
        <time>2022-05-08T08:24:29Z</time>
      </trkpt>
      <trkpt lat="44.74989" lon="0.24119">
        <ele>119.59999847412</ele>
        <time>2022-05-08T08:24:33Z</time>
      </trkpt>
      <trkpt lat="44.75" lon="0.24134">
        <ele>119.94999694824</ele>
        <time>2022-05-08T08:24:39Z</time>
      </trkpt>
      <trkpt lat="44.75003" lon="0.24152">
        <ele>119.94999694824</ele>
        <time>2022-05-08T08:24:47Z</time>
      </trkpt>
      <trkpt lat="44.74996" lon="0.24174">
        <ele>120.69999694824</ele>
        <time>2022-05-08T08:24:55Z</time>
      </trkpt>
      <trkpt lat="44.74993" lon="0.24185">
        <ele>121.69999694824</ele>
        <time>2022-05-08T08:24:59Z</time>
      </trkpt>
      <trkpt lat="44.74985" lon="0.24208">
        <ele>121.94999694824</ele>
        <time>2022-05-08T08:25:07Z</time>
      </trkpt>
      <trkpt lat="44.74981" lon="0.2422">
        <ele>121.94999694824</ele>
        <time>2022-05-08T08:25:11Z</time>
      </trkpt>
      <trkpt lat="44.74977" lon="0.24233">
        <ele>122.15000152588</ele>
        <time>2022-05-08T08:25:15Z</time>
      </trkpt>
      <trkpt lat="44.74967" lon="0.24247">
        <ele>122.15000152588</ele>
        <time>2022-05-08T08:25:23Z</time>
      </trkpt>
      <trkpt lat="44.74951" lon="0.2426">
        <ele>123.09999847412</ele>
        <time>2022-05-08T08:25:31Z</time>
      </trkpt>
      <trkpt lat="44.74943" lon="0.24276">
        <ele>122.75</ele>
        <time>2022-05-08T08:25:39Z</time>
      </trkpt>
      <trkpt lat="44.74929" lon="0.24298">
        <ele>123.5</ele>
        <time>2022-05-08T08:27:57Z</time>
      </trkpt>
      <trkpt lat="44.74926" lon="0.24317">
        <ele>123</ele>
        <time>2022-05-08T08:28:01Z</time>
      </trkpt>
      <trkpt lat="44.7493" lon="0.24349">
        <ele>122.34999847412</ele>
        <time>2022-05-08T08:28:07Z</time>
      </trkpt>
      <trkpt lat="44.74932" lon="0.24369">
        <ele>121.34999847412</ele>
        <time>2022-05-08T08:28:11Z</time>
      </trkpt>
      <trkpt lat="44.74943" lon="0.24378">
        <ele>121.34999847412</ele>
        <time>2022-05-08T08:28:15Z</time>
      </trkpt>
      <trkpt lat="44.74951" lon="0.2439">
        <ele>121.5</ele>
        <time>2022-05-08T08:28:19Z</time>
      </trkpt>
      <trkpt lat="44.74957" lon="0.24406">
        <ele>121.5</ele>
        <time>2022-05-08T08:28:23Z</time>
      </trkpt>
      <trkpt lat="44.74946" lon="0.24428">
        <ele>121.5</ele>
        <time>2022-05-08T08:28:29Z</time>
      </trkpt>
      <trkpt lat="44.74946" lon="0.24449">
        <ele>120.05000305176</ele>
        <time>2022-05-08T08:28:33Z</time>
      </trkpt>
      <trkpt lat="44.74946" lon="0.24476">
        <ele>120.05000305176</ele>
        <time>2022-05-08T08:28:37Z</time>
      </trkpt>
      <trkpt lat="44.74944" lon="0.24498">
        <ele>120.05000305176</ele>
        <time>2022-05-08T08:28:41Z</time>
      </trkpt>
      <trkpt lat="44.7494" lon="0.24517">
        <ele>120.65000152588</ele>
        <time>2022-05-08T08:28:45Z</time>
      </trkpt>
      <trkpt lat="44.7494" lon="0.24534">
        <ele>120.65000152588</ele>
        <time>2022-05-08T08:28:49Z</time>
      </trkpt>
      <trkpt lat="44.74945" lon="0.24552">
        <ele>120.65000152588</ele>
        <time>2022-05-08T08:28:53Z</time>
      </trkpt>
      <trkpt lat="44.74944" lon="0.24567">
        <ele>121.25</ele>
        <time>2022-05-08T08:28:57Z</time>
      </trkpt>
      <trkpt lat="44.74943" lon="0.24582">
        <ele>121.25</ele>
        <time>2022-05-08T08:29:01Z</time>
      </trkpt>
      <trkpt lat="44.74943" lon="0.24601">
        <ele>121.25</ele>
        <time>2022-05-08T08:29:05Z</time>
      </trkpt>
      <trkpt lat="44.74948" lon="0.2462">
        <ele>120.15000152588</ele>
        <time>2022-05-08T08:29:09Z</time>
      </trkpt>
      <trkpt lat="44.74953" lon="0.24637">
        <ele>120.15000152588</ele>
        <time>2022-05-08T08:29:13Z</time>
      </trkpt>
      <trkpt lat="44.74971" lon="0.24643">
        <ele>120.19999694824</ele>
        <time>2022-05-08T08:29:21Z</time>
      </trkpt>
      <trkpt lat="44.74965" lon="0.2467">
        <ele>120.19999694824</ele>
        <time>2022-05-08T08:29:29Z</time>
      </trkpt>
      <trkpt lat="44.74961" lon="0.24685">
        <ele>117.80000305176</ele>
        <time>2022-05-08T08:29:33Z</time>
      </trkpt>
      <trkpt lat="44.74964" lon="0.24716">
        <ele>117.80000305176</ele>
        <time>2022-05-08T08:29:39Z</time>
      </trkpt>
      <trkpt lat="44.74969" lon="0.24731">
        <ele>117.80000305176</ele>
        <time>2022-05-08T08:29:43Z</time>
      </trkpt>
      <trkpt lat="44.74976" lon="0.24745">
        <ele>117.75</ele>
        <time>2022-05-08T08:29:47Z</time>
      </trkpt>
      <trkpt lat="44.74988" lon="0.24746">
        <ele>118.25</ele>
        <time>2022-05-08T08:29:51Z</time>
      </trkpt>
      <trkpt lat="44.75" lon="0.24748">
        <ele>118.25</ele>
        <time>2022-05-08T08:29:55Z</time>
      </trkpt>
      <trkpt lat="44.75008" lon="0.24761">
        <ele>120.5</ele>
        <time>2022-05-08T08:29:59Z</time>
      </trkpt>
      <trkpt lat="44.75019" lon="0.24786">
        <ele>120.5</ele>
        <time>2022-05-08T08:30:05Z</time>
      </trkpt>
      <trkpt lat="44.75028" lon="0.24792">
        <ele>120</ele>
        <time>2022-05-08T08:30:09Z</time>
      </trkpt>
      <trkpt lat="44.75045" lon="0.24793">
        <ele>122.55000305176</ele>
        <time>2022-05-08T08:30:17Z</time>
      </trkpt>
      <trkpt lat="44.75054" lon="0.24806">
        <ele>123.44999694824</ele>
        <time>2022-05-08T08:30:29Z</time>
      </trkpt>
      <trkpt lat="44.75069" lon="0.24809">
        <ele>128.39999389648</ele>
        <time>2022-05-08T08:30:53Z</time>
      </trkpt>
      <trkpt lat="44.75076" lon="0.24818">
        <ele>128.39999389648</ele>
        <time>2022-05-08T08:30:59Z</time>
      </trkpt>
      <trkpt lat="44.75085" lon="0.24838">
        <ele>127.65000152588</ele>
        <time>2022-05-08T08:31:07Z</time>
      </trkpt>
      <trkpt lat="44.75097" lon="0.24855">
        <ele>129.80000305176</ele>
        <time>2022-05-08T08:31:15Z</time>
      </trkpt>
      <trkpt lat="44.75106" lon="0.2486">
        <ele>129.80000305176</ele>
        <time>2022-05-08T08:31:19Z</time>
      </trkpt>
      <trkpt lat="44.75114" lon="0.24867">
        <ele>129.80000305176</ele>
        <time>2022-05-08T08:31:25Z</time>
      </trkpt>
      <trkpt lat="44.75121" lon="0.24876">
        <ele>129.14999389648</ele>
        <time>2022-05-08T08:31:31Z</time>
      </trkpt>
      <trkpt lat="44.75118" lon="0.24898">
        <ele>129.14999389648</ele>
        <time>2022-05-08T08:31:39Z</time>
      </trkpt>
      <trkpt lat="44.7511" lon="0.24919">
        <ele>129.39999389648</ele>
        <time>2022-05-08T08:31:45Z</time>
      </trkpt>
      <trkpt lat="44.75106" lon="0.24935">
        <ele>129.89999389648</ele>
        <time>2022-05-08T08:31:49Z</time>
      </trkpt>
      <trkpt lat="44.75103" lon="0.24955">
        <ele>129.89999389648</ele>
        <time>2022-05-08T08:31:53Z</time>
      </trkpt>
      <trkpt lat="44.75097" lon="0.24976">
        <ele>131.10000610352</ele>
        <time>2022-05-08T08:31:57Z</time>
      </trkpt>
      <trkpt lat="44.7509" lon="0.24996">
        <ele>131.10000610352</ele>
        <time>2022-05-08T08:32:01Z</time>
      </trkpt>
      <trkpt lat="44.7508" lon="0.25027">
        <ele>130.60000610352</ele>
        <time>2022-05-08T08:32:07Z</time>
      </trkpt>
      <trkpt lat="44.75071" lon="0.25051">
        <ele>129.25</ele>
        <time>2022-05-08T08:32:11Z</time>
      </trkpt>
      <trkpt lat="44.75063" lon="0.2507">
        <ele>129.25</ele>
        <time>2022-05-08T08:32:15Z</time>
      </trkpt>
      <trkpt lat="44.75054" lon="0.25085">
        <ele>128.75</ele>
        <time>2022-05-08T08:32:19Z</time>
      </trkpt>
      <trkpt lat="44.75048" lon="0.25105">
        <ele>128.85000610352</ele>
        <time>2022-05-08T08:32:23Z</time>
      </trkpt>
      <trkpt lat="44.75038" lon="0.25142">
        <ele>129.35000610352</ele>
        <time>2022-05-08T08:32:29Z</time>
      </trkpt>
      <trkpt lat="44.75038" lon="0.25165">
        <ele>128.85000610352</ele>
        <time>2022-05-08T08:32:33Z</time>
      </trkpt>
      <trkpt lat="44.7504" lon="0.25191">
        <ele>128.10000610352</ele>
        <time>2022-05-08T08:32:37Z</time>
      </trkpt>
      <trkpt lat="44.7504" lon="0.25218">
        <ele>128.60000610352</ele>
        <time>2022-05-08T08:32:41Z</time>
      </trkpt>
      <trkpt lat="44.75044" lon="0.25259">
        <ele>128.60000610352</ele>
        <time>2022-05-08T08:32:47Z</time>
      </trkpt>
      <trkpt lat="44.75048" lon="0.25284">
        <ele>126.84999847412</ele>
        <time>2022-05-08T08:32:51Z</time>
      </trkpt>
      <trkpt lat="44.75052" lon="0.25311">
        <ele>126.84999847412</ele>
        <time>2022-05-08T08:32:55Z</time>
      </trkpt>
      <trkpt lat="44.75054" lon="0.25334">
        <ele>126.84999847412</ele>
        <time>2022-05-08T08:32:59Z</time>
      </trkpt>
      <trkpt lat="44.75057" lon="0.25359">
        <ele>127.65000152588</ele>
        <time>2022-05-08T08:33:03Z</time>
      </trkpt>
      <trkpt lat="44.75059" lon="0.25381">
        <ele>126.65000152588</ele>
        <time>2022-05-08T08:33:07Z</time>
      </trkpt>
      <trkpt lat="44.75057" lon="0.25402">
        <ele>126.65000152588</ele>
        <time>2022-05-08T08:33:11Z</time>
      </trkpt>
      <trkpt lat="44.75054" lon="0.25423">
        <ele>125.5</ele>
        <time>2022-05-08T08:33:15Z</time>
      </trkpt>
      <trkpt lat="44.7505" lon="0.2544">
        <ele>125.5</ele>
        <time>2022-05-08T08:33:19Z</time>
      </trkpt>
      <trkpt lat="44.75045" lon="0.25458">
        <ele>124</ele>
        <time>2022-05-08T08:33:23Z</time>
      </trkpt>
      <trkpt lat="44.75041" lon="0.25475">
        <ele>124.09999847412</ele>
        <time>2022-05-08T08:33:27Z</time>
      </trkpt>
      <trkpt lat="44.75037" lon="0.25491">
        <ele>124.09999847412</ele>
        <time>2022-05-08T08:33:31Z</time>
      </trkpt>
      <trkpt lat="44.75034" lon="0.25509">
        <ele>124.09999847412</ele>
        <time>2022-05-08T08:33:35Z</time>
      </trkpt>
      <trkpt lat="44.75028" lon="0.25527">
        <ele>124.65000152588</ele>
        <time>2022-05-08T08:33:39Z</time>
      </trkpt>
      <trkpt lat="44.75025" lon="0.25547">
        <ele>124.65000152588</ele>
        <time>2022-05-08T08:33:43Z</time>
      </trkpt>
      <trkpt lat="44.75021" lon="0.25565">
        <ele>124.65000152588</ele>
        <time>2022-05-08T08:33:47Z</time>
      </trkpt>
      <trkpt lat="44.75019" lon="0.25585">
        <ele>124.80000305176</ele>
        <time>2022-05-08T08:33:51Z</time>
      </trkpt>
      <trkpt lat="44.75019" lon="0.25604">
        <ele>125.80000305176</ele>
        <time>2022-05-08T08:33:55Z</time>
      </trkpt>
      <trkpt lat="44.75021" lon="0.25624">
        <ele>125.80000305176</ele>
        <time>2022-05-08T08:33:59Z</time>
      </trkpt>
      <trkpt lat="44.75024" lon="0.25656">
        <ele>126.44999694824</ele>
        <time>2022-05-08T08:34:05Z</time>
      </trkpt>
      <trkpt lat="44.75029" lon="0.25678">
        <ele>126.44999694824</ele>
        <time>2022-05-08T08:34:09Z</time>
      </trkpt>
      <trkpt lat="44.75035" lon="0.25699">
        <ele>126.44999694824</ele>
        <time>2022-05-08T08:34:13Z</time>
      </trkpt>
      <trkpt lat="44.75043" lon="0.2572">
        <ele>125.90000152588</ele>
        <time>2022-05-08T08:34:17Z</time>
      </trkpt>
      <trkpt lat="44.75051" lon="0.2574">
        <ele>125.90000152588</ele>
        <time>2022-05-08T08:34:21Z</time>
      </trkpt>
      <trkpt lat="44.75063" lon="0.25771">
        <ele>125.40000152588</ele>
        <time>2022-05-08T08:34:27Z</time>
      </trkpt>
      <trkpt lat="44.75072" lon="0.25795">
        <ele>124.15000152588</ele>
        <time>2022-05-08T08:34:31Z</time>
      </trkpt>
      <trkpt lat="44.75076" lon="0.25822">
        <ele>126.15000152588</ele>
        <time>2022-05-08T08:34:35Z</time>
      </trkpt>
      <trkpt lat="44.75079" lon="0.25846">
        <ele>126.15000152588</ele>
        <time>2022-05-08T08:34:39Z</time>
      </trkpt>
      <trkpt lat="44.75081" lon="0.25871">
        <ele>124.94999694824</ele>
        <time>2022-05-08T08:34:43Z</time>
      </trkpt>
      <trkpt lat="44.75084" lon="0.25894">
        <ele>124.94999694824</ele>
        <time>2022-05-08T08:34:47Z</time>
      </trkpt>
      <trkpt lat="44.75087" lon="0.2592">
        <ele>124.94999694824</ele>
        <time>2022-05-08T08:34:51Z</time>
      </trkpt>
      <trkpt lat="44.75092" lon="0.25948">
        <ele>124.55000305176</ele>
        <time>2022-05-08T08:34:55Z</time>
      </trkpt>
      <trkpt lat="44.75096" lon="0.25976">
        <ele>123.05000305176</ele>
        <time>2022-05-08T08:34:59Z</time>
      </trkpt>
      <trkpt lat="44.75101" lon="0.26002">
        <ele>123.05000305176</ele>
        <time>2022-05-08T08:35:03Z</time>
      </trkpt>
      <trkpt lat="44.75101" lon="0.26015">
        <ele>121.15000152588</ele>
        <time>2022-05-08T08:35:07Z</time>
      </trkpt>
      <trkpt lat="44.75108" lon="0.26034">
        <ele>121.5</ele>
        <time>2022-05-08T08:40:19Z</time>
      </trkpt>
      <trkpt lat="44.75112" lon="0.26053">
        <ele>121.15000152588</ele>
        <time>2022-05-08T08:40:23Z</time>
      </trkpt>
      <trkpt lat="44.75116" lon="0.26083">
        <ele>121.15000152588</ele>
        <time>2022-05-08T08:40:29Z</time>
      </trkpt>
      <trkpt lat="44.7512" lon="0.26105">
        <ele>121.15000152588</ele>
        <time>2022-05-08T08:40:33Z</time>
      </trkpt>
      <trkpt lat="44.75127" lon="0.26127">
        <ele>121.09999847412</ele>
        <time>2022-05-08T08:40:37Z</time>
      </trkpt>
      <trkpt lat="44.75132" lon="0.2615">
        <ele>120.59999847412</ele>
        <time>2022-05-08T08:40:41Z</time>
      </trkpt>
      <trkpt lat="44.75137" lon="0.26171">
        <ele>120.59999847412</ele>
        <time>2022-05-08T08:40:45Z</time>
      </trkpt>
      <trkpt lat="44.75141" lon="0.2619">
        <ele>119.44999694824</ele>
        <time>2022-05-08T08:40:49Z</time>
      </trkpt>
      <trkpt lat="44.75144" lon="0.2621">
        <ele>119.44999694824</ele>
        <time>2022-05-08T08:40:53Z</time>
      </trkpt>
      <trkpt lat="44.75143" lon="0.26226">
        <ele>119.44999694824</ele>
        <time>2022-05-08T08:40:57Z</time>
      </trkpt>
      <trkpt lat="44.75132" lon="0.26241">
        <ele>118.40000152588</ele>
        <time>2022-05-08T08:41:01Z</time>
      </trkpt>
      <trkpt lat="44.75137" lon="0.26259">
        <ele>118.40000152588</ele>
        <time>2022-05-08T08:41:05Z</time>
      </trkpt>
      <trkpt lat="44.75142" lon="0.26276">
        <ele>118.40000152588</ele>
        <time>2022-05-08T08:41:09Z</time>
      </trkpt>
      <trkpt lat="44.75149" lon="0.26296">
        <ele>118.90000152588</ele>
        <time>2022-05-08T08:41:13Z</time>
      </trkpt>
      <trkpt lat="44.75159" lon="0.26331">
        <ele>118.90000152588</ele>
        <time>2022-05-08T08:41:19Z</time>
      </trkpt>
      <trkpt lat="44.75164" lon="0.2637">
        <ele>119.5</ele>
        <time>2022-05-08T08:41:25Z</time>
      </trkpt>
      <trkpt lat="44.75165" lon="0.26397">
        <ele>119.5</ele>
        <time>2022-05-08T08:41:29Z</time>
      </trkpt>
      <trkpt lat="44.75163" lon="0.26423">
        <ele>119.5</ele>
        <time>2022-05-08T08:41:33Z</time>
      </trkpt>
      <trkpt lat="44.7516" lon="0.26447">
        <ele>117.65000152588</ele>
        <time>2022-05-08T08:41:37Z</time>
      </trkpt>
      <trkpt lat="44.75161" lon="0.26471">
        <ele>117.65000152588</ele>
        <time>2022-05-08T08:41:41Z</time>
      </trkpt>
      <trkpt lat="44.7517" lon="0.26508">
        <ele>117.65000152588</ele>
        <time>2022-05-08T08:41:47Z</time>
      </trkpt>
      <trkpt lat="44.75173" lon="0.26531">
        <ele>116.55000305176</ele>
        <time>2022-05-08T08:41:51Z</time>
      </trkpt>
      <trkpt lat="44.75177" lon="0.26555">
        <ele>116.55000305176</ele>
        <time>2022-05-08T08:41:55Z</time>
      </trkpt>
      <trkpt lat="44.7518" lon="0.26581">
        <ele>116.55000305176</ele>
        <time>2022-05-08T08:41:59Z</time>
      </trkpt>
      <trkpt lat="44.75179" lon="0.26619">
        <ele>115.94999694824</ele>
        <time>2022-05-08T08:42:05Z</time>
      </trkpt>
      <trkpt lat="44.75178" lon="0.26644">
        <ele>115.94999694824</ele>
        <time>2022-05-08T08:42:09Z</time>
      </trkpt>
      <trkpt lat="44.75178" lon="0.2667">
        <ele>115.94999694824</ele>
        <time>2022-05-08T08:42:13Z</time>
      </trkpt>
      <trkpt lat="44.75177" lon="0.26696">
        <ele>118.05000305176</ele>
        <time>2022-05-08T08:42:17Z</time>
      </trkpt>
      <trkpt lat="44.75177" lon="0.26722">
        <ele>118.05000305176</ele>
        <time>2022-05-08T08:42:21Z</time>
      </trkpt>
      <trkpt lat="44.75179" lon="0.2675">
        <ele>118.05000305176</ele>
        <time>2022-05-08T08:42:25Z</time>
      </trkpt>
      <trkpt lat="44.75183" lon="0.26771">
        <ele>118.94999694824</ele>
        <time>2022-05-08T08:42:29Z</time>
      </trkpt>
      <trkpt lat="44.75188" lon="0.26792">
        <ele>120.44999694824</ele>
        <time>2022-05-08T08:42:33Z</time>
      </trkpt>
      <trkpt lat="44.75194" lon="0.26813">
        <ele>120.44999694824</ele>
        <time>2022-05-08T08:42:37Z</time>
      </trkpt>
      <trkpt lat="44.75203" lon="0.26847">
        <ele>121.59999847412</ele>
        <time>2022-05-08T08:42:43Z</time>
      </trkpt>
      <trkpt lat="44.75207" lon="0.26869">
        <ele>122.09999847412</ele>
        <time>2022-05-08T08:42:47Z</time>
      </trkpt>
      <trkpt lat="44.75211" lon="0.26889">
        <ele>122.09999847412</ele>
        <time>2022-05-08T08:42:51Z</time>
      </trkpt>
      <trkpt lat="44.75216" lon="0.26909">
        <ele>122.55000305176</ele>
        <time>2022-05-08T08:42:55Z</time>
      </trkpt>
      <trkpt lat="44.75222" lon="0.26933">
        <ele>122.55000305176</ele>
        <time>2022-05-08T08:42:59Z</time>
      </trkpt>
      <trkpt lat="44.75229" lon="0.26956">
        <ele>122.55000305176</ele>
        <time>2022-05-08T08:43:03Z</time>
      </trkpt>
      <trkpt lat="44.75236" lon="0.26975">
        <ele>123</ele>
        <time>2022-05-08T08:43:07Z</time>
      </trkpt>
      <trkpt lat="44.75242" lon="0.27002">
        <ele>123</ele>
        <time>2022-05-08T08:43:13Z</time>
      </trkpt>
      <trkpt lat="44.75245" lon="0.27019">
        <ele>123.5</ele>
        <time>2022-05-08T08:43:17Z</time>
      </trkpt>
      <trkpt lat="44.75245" lon="0.27037">
        <ele>120.90000152588</ele>
        <time>2022-05-08T08:43:21Z</time>
      </trkpt>
      <trkpt lat="44.75255" lon="0.27054">
        <ele>120.90000152588</ele>
        <time>2022-05-08T08:43:25Z</time>
      </trkpt>
      <trkpt lat="44.7527" lon="0.27078">
        <ele>120.90000152588</ele>
        <time>2022-05-08T08:43:31Z</time>
      </trkpt>
      <trkpt lat="44.7529" lon="0.27106">
        <ele>121.59999847412</ele>
        <time>2022-05-08T08:43:39Z</time>
      </trkpt>
      <trkpt lat="44.75297" lon="0.27118">
        <ele>120.59999847412</ele>
        <time>2022-05-08T08:43:43Z</time>
      </trkpt>
      <trkpt lat="44.75304" lon="0.27131">
        <ele>120.09999847412</ele>
        <time>2022-05-08T08:43:47Z</time>
      </trkpt>
      <trkpt lat="44.75311" lon="0.27157">
        <ele>120.59999847412</ele>
        <time>2022-05-08T08:43:53Z</time>
      </trkpt>
      <trkpt lat="44.75318" lon="0.27177">
        <ele>120.59999847412</ele>
        <time>2022-05-08T08:43:57Z</time>
      </trkpt>
      <trkpt lat="44.75322" lon="0.27195">
        <ele>120.15000152588</ele>
        <time>2022-05-08T08:44:01Z</time>
      </trkpt>
      <trkpt lat="44.75327" lon="0.27211">
        <ele>118.65000152588</ele>
        <time>2022-05-08T08:44:05Z</time>
      </trkpt>
      <trkpt lat="44.75331" lon="0.27228">
        <ele>118.65000152588</ele>
        <time>2022-05-08T08:44:09Z</time>
      </trkpt>
      <trkpt lat="44.75335" lon="0.27249">
        <ele>120.25</ele>
        <time>2022-05-08T08:44:13Z</time>
      </trkpt>
      <trkpt lat="44.75347" lon="0.27286">
        <ele>120.25</ele>
        <time>2022-05-08T08:44:19Z</time>
      </trkpt>
      <trkpt lat="44.75362" lon="0.27306">
        <ele>119.75</ele>
        <time>2022-05-08T08:44:23Z</time>
      </trkpt>
      <trkpt lat="44.7537" lon="0.27323">
        <ele>118.44999694824</ele>
        <time>2022-05-08T08:44:27Z</time>
      </trkpt>
      <trkpt lat="44.75375" lon="0.27338">
        <ele>118.44999694824</ele>
        <time>2022-05-08T08:44:31Z</time>
      </trkpt>
      <trkpt lat="44.7538" lon="0.27353">
        <ele>118.44999694824</ele>
        <time>2022-05-08T08:44:35Z</time>
      </trkpt>
      <trkpt lat="44.75385" lon="0.27365">
        <ele>117.05000305176</ele>
        <time>2022-05-08T08:44:39Z</time>
      </trkpt>
      <trkpt lat="44.75391" lon="0.27386">
        <ele>117.05000305176</ele>
        <time>2022-05-08T08:44:45Z</time>
      </trkpt>
      <trkpt lat="44.75396" lon="0.274">
        <ele>117.05000305176</ele>
        <time>2022-05-08T08:44:49Z</time>
      </trkpt>
      <trkpt lat="44.75398" lon="0.27416">
        <ele>116.84999847412</ele>
        <time>2022-05-08T08:44:53Z</time>
      </trkpt>
      <trkpt lat="44.75399" lon="0.27444">
        <ele>116.84999847412</ele>
        <time>2022-05-08T08:44:59Z</time>
      </trkpt>
      <trkpt lat="44.75399" lon="0.27465">
        <ele>115.84999847412</ele>
        <time>2022-05-08T08:45:03Z</time>
      </trkpt>
      <trkpt lat="44.754" lon="0.27485">
        <ele>115.69999694824</ele>
        <time>2022-05-08T08:45:07Z</time>
      </trkpt>
      <trkpt lat="44.754" lon="0.27506">
        <ele>115.69999694824</ele>
        <time>2022-05-08T08:45:11Z</time>
      </trkpt>
      <trkpt lat="44.754" lon="0.27527">
        <ele>115.69999694824</ele>
        <time>2022-05-08T08:45:15Z</time>
      </trkpt>
      <trkpt lat="44.754" lon="0.27547">
        <ele>115.40000152588</ele>
        <time>2022-05-08T08:45:19Z</time>
      </trkpt>
      <trkpt lat="44.754" lon="0.27565">
        <ele>115.40000152588</ele>
        <time>2022-05-08T08:45:23Z</time>
      </trkpt>
      <trkpt lat="44.75401" lon="0.27581">
        <ele>115.40000152588</ele>
        <time>2022-05-08T08:45:27Z</time>
      </trkpt>
      <trkpt lat="44.75399" lon="0.27607">
        <ele>116.34999847412</ele>
        <time>2022-05-08T08:45:33Z</time>
      </trkpt>
      <trkpt lat="44.75398" lon="0.27628">
        <ele>117.84999847412</ele>
        <time>2022-05-08T08:45:37Z</time>
      </trkpt>
      <trkpt lat="44.75395" lon="0.27646">
        <ele>117.84999847412</ele>
        <time>2022-05-08T08:45:41Z</time>
      </trkpt>
      <trkpt lat="44.75392" lon="0.27672">
        <ele>118.44999694824</ele>
        <time>2022-05-08T08:45:47Z</time>
      </trkpt>
      <trkpt lat="44.75396" lon="0.27705">
        <ele>119.44999694824</ele>
        <time>2022-05-08T08:45:55Z</time>
      </trkpt>
      <trkpt lat="44.75402" lon="0.27738">
        <ele>119.59999847412</ele>
        <time>2022-05-08T08:46:03Z</time>
      </trkpt>
      <trkpt lat="44.75405" lon="0.27755">
        <ele>119.59999847412</ele>
        <time>2022-05-08T08:46:07Z</time>
      </trkpt>
      <trkpt lat="44.75408" lon="0.27774">
        <ele>120.5</ele>
        <time>2022-05-08T08:46:11Z</time>
      </trkpt>
      <trkpt lat="44.75412" lon="0.27802">
        <ele>121</ele>
        <time>2022-05-08T08:46:17Z</time>
      </trkpt>
      <trkpt lat="44.75415" lon="0.27827">
        <ele>121.30000305176</ele>
        <time>2022-05-08T08:46:23Z</time>
      </trkpt>
      <trkpt lat="44.75419" lon="0.27843">
        <ele>121.30000305176</ele>
        <time>2022-05-08T08:46:27Z</time>
      </trkpt>
      <trkpt lat="44.75422" lon="0.27858">
        <ele>121.30000305176</ele>
        <time>2022-05-08T08:46:31Z</time>
      </trkpt>
      <trkpt lat="44.75431" lon="0.27876">
        <ele>122.75</ele>
        <time>2022-05-08T08:46:37Z</time>
      </trkpt>
      <trkpt lat="44.75438" lon="0.27888">
        <ele>122.75</ele>
        <time>2022-05-08T08:46:41Z</time>
      </trkpt>
      <trkpt lat="44.75445" lon="0.27902">
        <ele>123.25</ele>
        <time>2022-05-08T08:46:45Z</time>
      </trkpt>
      <trkpt lat="44.75451" lon="0.27917">
        <ele>123.30000305176</ele>
        <time>2022-05-08T08:46:49Z</time>
      </trkpt>
      <trkpt lat="44.75461" lon="0.27942">
        <ele>123.30000305176</ele>
        <time>2022-05-08T08:46:55Z</time>
      </trkpt>
      <trkpt lat="44.75468" lon="0.27963">
        <ele>123.30000305176</ele>
        <time>2022-05-08T08:46:59Z</time>
      </trkpt>
      <trkpt lat="44.75477" lon="0.27986">
        <ele>122.80000305176</ele>
        <time>2022-05-08T08:47:03Z</time>
      </trkpt>
      <trkpt lat="44.75491" lon="0.28008">
        <ele>122.80000305176</ele>
        <time>2022-05-08T08:47:07Z</time>
      </trkpt>
      <trkpt lat="44.75504" lon="0.28029">
        <ele>122.80000305176</ele>
        <time>2022-05-08T08:47:11Z</time>
      </trkpt>
      <trkpt lat="44.75517" lon="0.2805">
        <ele>119.80000305176</ele>
        <time>2022-05-08T08:47:15Z</time>
      </trkpt>
      <trkpt lat="44.75534" lon="0.28076">
        <ele>119.80000305176</ele>
        <time>2022-05-08T08:47:21Z</time>
      </trkpt>
      <trkpt lat="44.75543" lon="0.28087">
        <ele>118.80000305176</ele>
        <time>2022-05-08T08:47:25Z</time>
      </trkpt>
      <trkpt lat="44.75552" lon="0.2809">
        <ele>118.19999694824</ele>
        <time>2022-05-08T08:47:29Z</time>
      </trkpt>
      <trkpt lat="44.75564" lon="0.2808">
        <ele>118.69999694824</ele>
        <time>2022-05-08T08:47:33Z</time>
      </trkpt>
      <trkpt lat="44.75576" lon="0.28068">
        <ele>118.69999694824</ele>
        <time>2022-05-08T08:47:37Z</time>
      </trkpt>
      <trkpt lat="44.75595" lon="0.28054">
        <ele>116.30000305176</ele>
        <time>2022-05-08T08:47:43Z</time>
      </trkpt>
      <trkpt lat="44.75609" lon="0.28043">
        <ele>116.30000305176</ele>
        <time>2022-05-08T08:47:47Z</time>
      </trkpt>
      <trkpt lat="44.75622" lon="0.2803">
        <ele>116.30000305176</ele>
        <time>2022-05-08T08:47:51Z</time>
      </trkpt>
      <trkpt lat="44.75635" lon="0.28015">
        <ele>114.65000152588</ele>
        <time>2022-05-08T08:47:55Z</time>
      </trkpt>
      <trkpt lat="44.75645" lon="0.28001">
        <ele>114.65000152588</ele>
        <time>2022-05-08T08:47:59Z</time>
      </trkpt>
      <trkpt lat="44.75653" lon="0.27981">
        <ele>115.15000152588</ele>
        <time>2022-05-08T08:48:03Z</time>
      </trkpt>
      <trkpt lat="44.75668" lon="0.27942">
        <ele>114.55000305176</ele>
        <time>2022-05-08T08:48:09Z</time>
      </trkpt>
      <trkpt lat="44.75685" lon="0.27919">
        <ele>112.55000305176</ele>
        <time>2022-05-08T08:48:13Z</time>
      </trkpt>
      <trkpt lat="44.75707" lon="0.27893">
        <ele>112.55000305176</ele>
        <time>2022-05-08T08:48:17Z</time>
      </trkpt>
      <trkpt lat="44.75737" lon="0.2786">
        <ele>107.75</ele>
        <time>2022-05-08T08:48:23Z</time>
      </trkpt>
      <trkpt lat="44.75768" lon="0.27825">
        <ele>107.25</ele>
        <time>2022-05-08T08:48:29Z</time>
      </trkpt>
      <trkpt lat="44.75789" lon="0.278">
        <ele>104.30000305176</ele>
        <time>2022-05-08T08:48:33Z</time>
      </trkpt>
      <trkpt lat="44.75809" lon="0.27774">
        <ele>104.30000305176</ele>
        <time>2022-05-08T08:48:37Z</time>
      </trkpt>
      <trkpt lat="44.75828" lon="0.27751">
        <ele>104.30000305176</ele>
        <time>2022-05-08T08:48:41Z</time>
      </trkpt>
      <trkpt lat="44.75847" lon="0.2773">
        <ele>103.5</ele>
        <time>2022-05-08T08:48:45Z</time>
      </trkpt>
      <trkpt lat="44.75868" lon="0.27714">
        <ele>102.5</ele>
        <time>2022-05-08T08:48:49Z</time>
      </trkpt>
      <trkpt lat="44.7589" lon="0.27697">
        <ele>102.5</ele>
        <time>2022-05-08T08:48:53Z</time>
      </trkpt>
      <trkpt lat="44.75923" lon="0.27684">
        <ele>101.25</ele>
        <time>2022-05-08T08:48:59Z</time>
      </trkpt>
      <trkpt lat="44.75942" lon="0.27681">
        <ele>101.25</ele>
        <time>2022-05-08T08:49:03Z</time>
      </trkpt>
      <trkpt lat="44.75961" lon="0.27678">
        <ele>100.80000305176</ele>
        <time>2022-05-08T08:49:07Z</time>
      </trkpt>
      <trkpt lat="44.75979" lon="0.27671">
        <ele>101.30000305176</ele>
        <time>2022-05-08T08:49:11Z</time>
      </trkpt>
      <trkpt lat="44.76005" lon="0.27665">
        <ele>101.30000305176</ele>
        <time>2022-05-08T08:49:17Z</time>
      </trkpt>
      <trkpt lat="44.7602" lon="0.27665">
        <ele>98.800003051758</ele>
        <time>2022-05-08T08:49:21Z</time>
      </trkpt>
      <trkpt lat="44.76036" lon="0.27664">
        <ele>98.800003051758</ele>
        <time>2022-05-08T08:49:25Z</time>
      </trkpt>
      <trkpt lat="44.76055" lon="0.27658">
        <ele>98.800003051758</ele>
        <time>2022-05-08T08:49:29Z</time>
      </trkpt>
      <trkpt lat="44.76075" lon="0.27654">
        <ele>98.75</ele>
        <time>2022-05-08T08:49:33Z</time>
      </trkpt>
      <trkpt lat="44.76106" lon="0.27648">
        <ele>98.75</ele>
        <time>2022-05-08T08:49:39Z</time>
      </trkpt>
      <trkpt lat="44.76126" lon="0.27643">
        <ele>98.75</ele>
        <time>2022-05-08T08:49:43Z</time>
      </trkpt>
      <trkpt lat="44.76146" lon="0.27639">
        <ele>97.75</ele>
        <time>2022-05-08T08:49:47Z</time>
      </trkpt>
      <trkpt lat="44.76166" lon="0.27636">
        <ele>97.25</ele>
        <time>2022-05-08T08:49:51Z</time>
      </trkpt>
      <trkpt lat="44.76195" lon="0.27628">
        <ele>97.25</ele>
        <time>2022-05-08T08:49:57Z</time>
      </trkpt>
      <trkpt lat="44.76214" lon="0.2762">
        <ele>96.599998474121</ele>
        <time>2022-05-08T08:50:01Z</time>
      </trkpt>
      <trkpt lat="44.76232" lon="0.27609">
        <ele>96.599998474121</ele>
        <time>2022-05-08T08:50:05Z</time>
      </trkpt>
      <trkpt lat="44.76249" lon="0.27598">
        <ele>96.599998474121</ele>
        <time>2022-05-08T08:50:09Z</time>
      </trkpt>
      <trkpt lat="44.76265" lon="0.27586">
        <ele>96.75</ele>
        <time>2022-05-08T08:50:13Z</time>
      </trkpt>
      <trkpt lat="44.7628" lon="0.27572">
        <ele>96.75</ele>
        <time>2022-05-08T08:50:17Z</time>
      </trkpt>
      <trkpt lat="44.76296" lon="0.2756">
        <ele>96.75</ele>
        <time>2022-05-08T08:50:21Z</time>
      </trkpt>
      <trkpt lat="44.76311" lon="0.2755">
        <ele>97</ele>
        <time>2022-05-08T08:50:25Z</time>
      </trkpt>
      <trkpt lat="44.76326" lon="0.27543">
        <ele>97</ele>
        <time>2022-05-08T08:50:29Z</time>
      </trkpt>
      <trkpt lat="44.76338" lon="0.27536">
        <ele>97</ele>
        <time>2022-05-08T08:50:33Z</time>
      </trkpt>
      <trkpt lat="44.7635" lon="0.27532">
        <ele>97.599998474121</ele>
        <time>2022-05-08T08:50:37Z</time>
      </trkpt>
      <trkpt lat="44.7636" lon="0.27527">
        <ele>97.599998474121</ele>
        <time>2022-05-08T08:50:41Z</time>
      </trkpt>
      <trkpt lat="44.76371" lon="0.27522">
        <ele>97.599998474121</ele>
        <time>2022-05-08T08:50:45Z</time>
      </trkpt>
      <trkpt lat="44.76382" lon="0.27518">
        <ele>98.349998474121</ele>
        <time>2022-05-08T08:50:49Z</time>
      </trkpt>
      <trkpt lat="44.76393" lon="0.27512">
        <ele>98.349998474121</ele>
        <time>2022-05-08T08:50:53Z</time>
      </trkpt>
      <trkpt lat="44.76404" lon="0.27506">
        <ele>98.849998474121</ele>
        <time>2022-05-08T08:50:57Z</time>
      </trkpt>
      <trkpt lat="44.76416" lon="0.275">
        <ele>99.099998474121</ele>
        <time>2022-05-08T08:51:01Z</time>
      </trkpt>
      <trkpt lat="44.76428" lon="0.27494">
        <ele>99.099998474121</ele>
        <time>2022-05-08T08:51:05Z</time>
      </trkpt>
      <trkpt lat="44.7644" lon="0.27488">
        <ele>99.099998474121</ele>
        <time>2022-05-08T08:51:09Z</time>
      </trkpt>
      <trkpt lat="44.7646" lon="0.27479">
        <ele>98.75</ele>
        <time>2022-05-08T08:51:15Z</time>
      </trkpt>
      <trkpt lat="44.76478" lon="0.27471">
        <ele>98.75</ele>
        <time>2022-05-08T08:51:21Z</time>
      </trkpt>
      <trkpt lat="44.7649" lon="0.27466">
        <ele>99.050003051758</ele>
        <time>2022-05-08T08:51:25Z</time>
      </trkpt>
      <trkpt lat="44.765" lon="0.27462">
        <ele>99.050003051758</ele>
        <time>2022-05-08T08:51:29Z</time>
      </trkpt>
      <trkpt lat="44.76509" lon="0.27457">
        <ele>99.050003051758</ele>
        <time>2022-05-08T08:51:33Z</time>
      </trkpt>
      <trkpt lat="44.76519" lon="0.27454">
        <ele>98.800003051758</ele>
        <time>2022-05-08T08:51:37Z</time>
      </trkpt>
      <trkpt lat="44.76536" lon="0.27447">
        <ele>98.800003051758</ele>
        <time>2022-05-08T08:51:43Z</time>
      </trkpt>
      <trkpt lat="44.76549" lon="0.27442">
        <ele>98.800003051758</ele>
        <time>2022-05-08T08:51:47Z</time>
      </trkpt>
      <trkpt lat="44.76563" lon="0.27437">
        <ele>98.650001525879</ele>
        <time>2022-05-08T08:51:51Z</time>
      </trkpt>
      <trkpt lat="44.76577" lon="0.27432">
        <ele>98.650001525879</ele>
        <time>2022-05-08T08:51:55Z</time>
      </trkpt>
      <trkpt lat="44.76593" lon="0.27426">
        <ele>98.650001525879</ele>
        <time>2022-05-08T08:51:59Z</time>
      </trkpt>
      <trkpt lat="44.76607" lon="0.2742">
        <ele>98.300003051758</ele>
        <time>2022-05-08T08:52:03Z</time>
      </trkpt>
      <trkpt lat="44.76621" lon="0.27411">
        <ele>97.800003051758</ele>
        <time>2022-05-08T08:52:07Z</time>
      </trkpt>
      <trkpt lat="44.76632" lon="0.2741">
        <ele>97.800003051758</ele>
        <time>2022-05-08T08:52:11Z</time>
      </trkpt>
      <trkpt lat="44.76654" lon="0.27394">
        <ele>96</ele>
        <time>2022-05-08T08:52:17Z</time>
      </trkpt>
      <trkpt lat="44.76668" lon="0.2738">
        <ele>96</ele>
        <time>2022-05-08T08:52:21Z</time>
      </trkpt>
      <trkpt lat="44.76689" lon="0.2736">
        <ele>95.550003051758</ele>
        <time>2022-05-08T08:52:27Z</time>
      </trkpt>
      <trkpt lat="44.76704" lon="0.27348">
        <ele>95.050003051758</ele>
        <time>2022-05-08T08:52:31Z</time>
      </trkpt>
      <trkpt lat="44.76719" lon="0.27339">
        <ele>95.050003051758</ele>
        <time>2022-05-08T08:52:35Z</time>
      </trkpt>
      <trkpt lat="44.76733" lon="0.27331">
        <ele>94.349998474121</ele>
        <time>2022-05-08T08:52:39Z</time>
      </trkpt>
      <trkpt lat="44.76749" lon="0.27332">
        <ele>94.349998474121</ele>
        <time>2022-05-08T08:52:43Z</time>
      </trkpt>
      <trkpt lat="44.76769" lon="0.27343">
        <ele>90.849998474121</ele>
        <time>2022-05-08T08:52:47Z</time>
      </trkpt>
      <trkpt lat="44.76799" lon="0.27358">
        <ele>89.800003051758</ele>
        <time>2022-05-08T08:52:53Z</time>
      </trkpt>
      <trkpt lat="44.76817" lon="0.27371">
        <ele>91.800003051758</ele>
        <time>2022-05-08T08:52:57Z</time>
      </trkpt>
      <trkpt lat="44.76833" lon="0.27387">
        <ele>91.800003051758</ele>
        <time>2022-05-08T08:53:01Z</time>
      </trkpt>
      <trkpt lat="44.7685" lon="0.27404">
        <ele>90.800003051758</ele>
        <time>2022-05-08T08:53:05Z</time>
      </trkpt>
      <trkpt lat="44.76866" lon="0.27426">
        <ele>90.800003051758</ele>
        <time>2022-05-08T08:53:09Z</time>
      </trkpt>
      <trkpt lat="44.76883" lon="0.27444">
        <ele>90.800003051758</ele>
        <time>2022-05-08T08:53:13Z</time>
      </trkpt>
      <trkpt lat="44.76914" lon="0.27454">
        <ele>90.550003051758</ele>
        <time>2022-05-08T08:53:19Z</time>
      </trkpt>
      <trkpt lat="44.76934" lon="0.2746">
        <ele>90.550003051758</ele>
        <time>2022-05-08T08:53:23Z</time>
      </trkpt>
      <trkpt lat="44.76942" lon="0.27487">
        <ele>90.550003051758</ele>
        <time>2022-05-08T08:53:27Z</time>
      </trkpt>
      <trkpt lat="44.76941" lon="0.27518">
        <ele>89.400001525879</ele>
        <time>2022-05-08T08:53:31Z</time>
      </trkpt>
      <trkpt lat="44.7694" lon="0.27551">
        <ele>89.400001525879</ele>
        <time>2022-05-08T08:53:35Z</time>
      </trkpt>
      <trkpt lat="44.76939" lon="0.27584">
        <ele>89.400001525879</ele>
        <time>2022-05-08T08:53:39Z</time>
      </trkpt>
      <trkpt lat="44.76937" lon="0.27616">
        <ele>87.550003051758</ele>
        <time>2022-05-08T08:53:43Z</time>
      </trkpt>
      <trkpt lat="44.76946" lon="0.27647">
        <ele>87.550003051758</ele>
        <time>2022-05-08T08:53:49Z</time>
      </trkpt>
      <trkpt lat="44.76959" lon="0.27658">
        <ele>85.550003051758</ele>
        <time>2022-05-08T08:53:53Z</time>
      </trkpt>
      <trkpt lat="44.76978" lon="0.27672">
        <ele>87.199996948242</ele>
        <time>2022-05-08T08:53:59Z</time>
      </trkpt>
      <trkpt lat="44.77007" lon="0.27694">
        <ele>86.699996948242</ele>
        <time>2022-05-08T08:54:07Z</time>
      </trkpt>
      <trkpt lat="44.77019" lon="0.27703">
        <ele>86.5</ele>
        <time>2022-05-08T08:54:11Z</time>
      </trkpt>
      <trkpt lat="44.77029" lon="0.27711">
        <ele>86.5</ele>
        <time>2022-05-08T08:54:15Z</time>
      </trkpt>
      <trkpt lat="44.77038" lon="0.2772">
        <ele>86.5</ele>
        <time>2022-05-08T08:54:19Z</time>
      </trkpt>
      <trkpt lat="44.77048" lon="0.27727">
        <ele>87.25</ele>
        <time>2022-05-08T08:54:23Z</time>
      </trkpt>
      <trkpt lat="44.77059" lon="0.2773">
        <ele>87.25</ele>
        <time>2022-05-08T08:54:27Z</time>
      </trkpt>
      <trkpt lat="44.77073" lon="0.27727">
        <ele>87.25</ele>
        <time>2022-05-08T08:54:31Z</time>
      </trkpt>
      <trkpt lat="44.77091" lon="0.27725">
        <ele>86.599998474121</ele>
        <time>2022-05-08T08:54:37Z</time>
      </trkpt>
      <trkpt lat="44.77109" lon="0.27731">
        <ele>86.599998474121</ele>
        <time>2022-05-08T08:54:41Z</time>
      </trkpt>
      <trkpt lat="44.77127" lon="0.27737">
        <ele>86.599998474121</ele>
        <time>2022-05-08T08:54:45Z</time>
      </trkpt>
      <trkpt lat="44.77142" lon="0.27744">
        <ele>82.5</ele>
        <time>2022-05-08T08:54:49Z</time>
      </trkpt>
      <trkpt lat="44.77155" lon="0.27754">
        <ele>82.5</ele>
        <time>2022-05-08T08:54:53Z</time>
      </trkpt>
      <trkpt lat="44.77169" lon="0.27761">
        <ele>82</ele>
        <time>2022-05-08T08:54:57Z</time>
      </trkpt>
      <trkpt lat="44.7719" lon="0.27773">
        <ele>79.25</ele>
        <time>2022-05-08T08:55:01Z</time>
      </trkpt>
      <trkpt lat="44.77214" lon="0.27789">
        <ele>78.25</ele>
        <time>2022-05-08T08:55:05Z</time>
      </trkpt>
      <trkpt lat="44.77251" lon="0.27808">
        <ele>78.25</ele>
        <time>2022-05-08T08:55:11Z</time>
      </trkpt>
      <trkpt lat="44.77274" lon="0.27815">
        <ele>73.349998474121</ele>
        <time>2022-05-08T08:55:15Z</time>
      </trkpt>
      <trkpt lat="44.77294" lon="0.2782">
        <ele>73.349998474121</ele>
        <time>2022-05-08T08:55:19Z</time>
      </trkpt>
      <trkpt lat="44.77313" lon="0.2782">
        <ele>74.349998474121</ele>
        <time>2022-05-08T08:55:23Z</time>
      </trkpt>
      <trkpt lat="44.77333" lon="0.27818">
        <ele>73.050003051758</ele>
        <time>2022-05-08T08:55:27Z</time>
      </trkpt>
      <trkpt lat="44.77369" lon="0.27807">
        <ele>74.050003051758</ele>
        <time>2022-05-08T08:55:33Z</time>
      </trkpt>
      <trkpt lat="44.77396" lon="0.27796">
        <ele>74.050003051758</ele>
        <time>2022-05-08T08:55:37Z</time>
      </trkpt>
      <trkpt lat="44.77419" lon="0.27782">
        <ele>68.75</ele>
        <time>2022-05-08T08:55:41Z</time>
      </trkpt>
      <trkpt lat="44.7744" lon="0.27772">
        <ele>68.75</ele>
        <time>2022-05-08T08:55:45Z</time>
      </trkpt>
      <trkpt lat="44.77455" lon="0.2776">
        <ele>65.75</ele>
        <time>2022-05-08T08:55:49Z</time>
      </trkpt>
      <trkpt lat="44.77463" lon="0.27735">
        <ele>62.700000762939</ele>
        <time>2022-05-08T08:55:53Z</time>
      </trkpt>
      <trkpt lat="44.77464" lon="0.27717">
        <ele>61.200000762939</ele>
        <time>2022-05-08T08:55:57Z</time>
      </trkpt>
      <trkpt lat="44.77473" lon="0.27686">
        <ele>61.200000762939</ele>
        <time>2022-05-08T08:56:01Z</time>
      </trkpt>
      <trkpt lat="44.77481" lon="0.27667">
        <ele>58.549999237061</ele>
        <time>2022-05-08T08:56:05Z</time>
      </trkpt>
      <trkpt lat="44.77486" lon="0.27655">
        <ele>58.549999237061</ele>
        <time>2022-05-08T08:56:09Z</time>
      </trkpt>
      <trkpt lat="44.77494" lon="0.27642">
        <ele>60.200000762939</ele>
        <time>2022-05-08T08:56:23Z</time>
      </trkpt>
      <trkpt lat="44.77506" lon="0.27638">
        <ele>60.200000762939</ele>
        <time>2022-05-08T08:56:29Z</time>
      </trkpt>
      <trkpt lat="44.77516" lon="0.27636">
        <ele>55.099998474121</ele>
        <time>2022-05-08T08:56:33Z</time>
      </trkpt>
      <trkpt lat="44.77532" lon="0.27636">
        <ele>55.099998474121</ele>
        <time>2022-05-08T08:56:41Z</time>
      </trkpt>
      <trkpt lat="44.77547" lon="0.27637">
        <ele>55.799999237061</ele>
        <time>2022-05-08T08:56:49Z</time>
      </trkpt>
      <trkpt lat="44.77565" lon="0.27636">
        <ele>57.599998474121</ele>
        <time>2022-05-08T08:56:59Z</time>
      </trkpt>
      <trkpt lat="44.77577" lon="0.27637">
        <ele>57.599998474121</ele>
        <time>2022-05-08T08:57:07Z</time>
      </trkpt>
      <trkpt lat="44.77591" lon="0.27641">
        <ele>60.700000762939</ele>
        <time>2022-05-08T08:57:15Z</time>
      </trkpt>
      <trkpt lat="44.77604" lon="0.2764">
        <ele>60.700000762939</ele>
        <time>2022-05-08T08:57:21Z</time>
      </trkpt>
      <trkpt lat="44.77619" lon="0.2764">
        <ele>65.550003051758</ele>
        <time>2022-05-08T08:57:29Z</time>
      </trkpt>
      <trkpt lat="44.77638" lon="0.2764">
        <ele>65.099998474121</ele>
        <time>2022-05-08T08:57:37Z</time>
      </trkpt>
      <trkpt lat="44.77647" lon="0.2764">
        <ele>63.599998474121</ele>
        <time>2022-05-08T08:57:41Z</time>
      </trkpt>
      <trkpt lat="44.77664" lon="0.27641">
        <ele>63.599998474121</ele>
        <time>2022-05-08T08:57:47Z</time>
      </trkpt>
      <trkpt lat="44.77673" lon="0.2763">
        <ele>63.400001525879</ele>
        <time>2022-05-08T08:57:51Z</time>
      </trkpt>
      <trkpt lat="44.77679" lon="0.27615">
        <ele>63.400001525879</ele>
        <time>2022-05-08T08:57:55Z</time>
      </trkpt>
      <trkpt lat="44.77687" lon="0.276">
        <ele>63.400001525879</ele>
        <time>2022-05-08T08:57:59Z</time>
      </trkpt>
      <trkpt lat="44.77699" lon="0.27593">
        <ele>63.5</ele>
        <time>2022-05-08T08:58:03Z</time>
      </trkpt>
      <trkpt lat="44.7771" lon="0.2759">
        <ele>63.5</ele>
        <time>2022-05-08T08:58:07Z</time>
      </trkpt>
      <trkpt lat="44.77723" lon="0.27578">
        <ele>64.5</ele>
        <time>2022-05-08T08:58:15Z</time>
      </trkpt>
      <trkpt lat="44.77733" lon="0.27554">
        <ele>64.5</ele>
        <time>2022-05-08T08:58:25Z</time>
      </trkpt>
      <trkpt lat="44.7774" lon="0.27536">
        <ele>65.949996948242</ele>
        <time>2022-05-08T08:58:33Z</time>
      </trkpt>
      <trkpt lat="44.77748" lon="0.27516">
        <ele>66.75</ele>
        <time>2022-05-08T08:58:41Z</time>
      </trkpt>
      <trkpt lat="44.77756" lon="0.27495">
        <ele>66.75</ele>
        <time>2022-05-08T08:58:49Z</time>
      </trkpt>
      <trkpt lat="44.77761" lon="0.27477">
        <ele>67.349998474121</ele>
        <time>2022-05-08T08:58:57Z</time>
      </trkpt>
      <trkpt lat="44.77766" lon="0.27456">
        <ele>67.800003051758</ele>
        <time>2022-05-08T08:59:05Z</time>
      </trkpt>
      <trkpt lat="44.77776" lon="0.27431">
        <ele>67.800003051758</ele>
        <time>2022-05-08T08:59:15Z</time>
      </trkpt>
      <trkpt lat="44.77783" lon="0.27411">
        <ele>68.75</ele>
        <time>2022-05-08T08:59:23Z</time>
      </trkpt>
      <trkpt lat="44.77791" lon="0.27392">
        <ele>69.300003051758</ele>
        <time>2022-05-08T08:59:31Z</time>
      </trkpt>
      <trkpt lat="44.77799" lon="0.27374">
        <ele>69.300003051758</ele>
        <time>2022-05-08T08:59:39Z</time>
      </trkpt>
      <trkpt lat="44.77806" lon="0.27361">
        <ele>69.849998474121</ele>
        <time>2022-05-08T08:59:45Z</time>
      </trkpt>
      <trkpt lat="44.77816" lon="0.27343">
        <ele>72.849998474121</ele>
        <time>2022-05-08T08:59:53Z</time>
      </trkpt>
      <trkpt lat="44.77823" lon="0.27318">
        <ele>73.75</ele>
        <time>2022-05-08T09:00:01Z</time>
      </trkpt>
      <trkpt lat="44.77825" lon="0.27302">
        <ele>73.75</ele>
        <time>2022-05-08T09:00:05Z</time>
      </trkpt>
      <trkpt lat="44.77826" lon="0.27286">
        <ele>73.300003051758</ele>
        <time>2022-05-08T09:00:09Z</time>
      </trkpt>
      <trkpt lat="44.77828" lon="0.27268">
        <ele>73.300003051758</ele>
        <time>2022-05-08T09:00:13Z</time>
      </trkpt>
      <trkpt lat="44.77829" lon="0.2725">
        <ele>73.300003051758</ele>
        <time>2022-05-08T09:00:17Z</time>
      </trkpt>
      <trkpt lat="44.7783" lon="0.27231">
        <ele>72.550003051758</ele>
        <time>2022-05-08T09:00:21Z</time>
      </trkpt>
      <trkpt lat="44.77831" lon="0.27212">
        <ele>72.550003051758</ele>
        <time>2022-05-08T09:00:25Z</time>
      </trkpt>
      <trkpt lat="44.77832" lon="0.27193">
        <ele>72.550003051758</ele>
        <time>2022-05-08T09:00:29Z</time>
      </trkpt>
      <trkpt lat="44.77833" lon="0.27174">
        <ele>72.349998474121</ele>
        <time>2022-05-08T09:00:33Z</time>
      </trkpt>
      <trkpt lat="44.7784" lon="0.27159">
        <ele>72.349998474121</ele>
        <time>2022-05-08T09:00:37Z</time>
      </trkpt>
      <trkpt lat="44.7785" lon="0.27145">
        <ele>72.349998474121</ele>
        <time>2022-05-08T09:00:41Z</time>
      </trkpt>
      <trkpt lat="44.77867" lon="0.27124">
        <ele>72.349998474121</ele>
        <time>2022-05-08T09:00:47Z</time>
      </trkpt>
      <trkpt lat="44.77879" lon="0.27111">
        <ele>72.349998474121</ele>
        <time>2022-05-08T09:00:51Z</time>
      </trkpt>
      <trkpt lat="44.77892" lon="0.27098">
        <ele>72.349998474121</ele>
        <time>2022-05-08T09:00:55Z</time>
      </trkpt>
      <trkpt lat="44.77906" lon="0.27087">
        <ele>71.849998474121</ele>
        <time>2022-05-08T09:00:59Z</time>
      </trkpt>
      <trkpt lat="44.7792" lon="0.27078">
        <ele>71.849998474121</ele>
        <time>2022-05-08T09:01:03Z</time>
      </trkpt>
      <trkpt lat="44.77935" lon="0.2707">
        <ele>71.849998474121</ele>
        <time>2022-05-08T09:01:07Z</time>
      </trkpt>
      <trkpt lat="44.77949" lon="0.27063">
        <ele>71.900001525879</ele>
        <time>2022-05-08T09:01:11Z</time>
      </trkpt>
      <trkpt lat="44.77965" lon="0.27054">
        <ele>71.400001525879</ele>
        <time>2022-05-08T09:01:15Z</time>
      </trkpt>
      <trkpt lat="44.77982" lon="0.27045">
        <ele>71.400001525879</ele>
        <time>2022-05-08T09:01:19Z</time>
      </trkpt>
      <trkpt lat="44.78002" lon="0.27035">
        <ele>70.050003051758</ele>
        <time>2022-05-08T09:01:23Z</time>
      </trkpt>
      <trkpt lat="44.78021" lon="0.27025">
        <ele>70.050003051758</ele>
        <time>2022-05-08T09:01:27Z</time>
      </trkpt>
      <trkpt lat="44.78037" lon="0.27015">
        <ele>70.050003051758</ele>
        <time>2022-05-08T09:01:31Z</time>
      </trkpt>
      <trkpt lat="44.78052" lon="0.27005">
        <ele>69.25</ele>
        <time>2022-05-08T09:01:35Z</time>
      </trkpt>
      <trkpt lat="44.78066" lon="0.26996">
        <ele>68.75</ele>
        <time>2022-05-08T09:01:39Z</time>
      </trkpt>
      <trkpt lat="44.78082" lon="0.26984">
        <ele>68.75</ele>
        <time>2022-05-08T09:01:43Z</time>
      </trkpt>
      <trkpt lat="44.78098" lon="0.26973">
        <ele>68.099998474121</ele>
        <time>2022-05-08T09:01:47Z</time>
      </trkpt>
      <trkpt lat="44.78124" lon="0.2696">
        <ele>68.099998474121</ele>
        <time>2022-05-08T09:01:53Z</time>
      </trkpt>
      <trkpt lat="44.78134" lon="0.26957">
        <ele>68.099998474121</ele>
        <time>2022-05-08T09:01:55Z</time>
      </trkpt>
      <trkpt lat="44.78147" lon="0.2693">
        <ele>64.599998474121</ele>
        <time>2022-05-08T09:01:59Z</time>
      </trkpt>
      <trkpt lat="44.78146" lon="0.26893">
        <ele>64.599998474121</ele>
        <time>2022-05-08T09:02:03Z</time>
      </trkpt>
      <trkpt lat="44.78141" lon="0.2686">
        <ele>64.599998474121</ele>
        <time>2022-05-08T09:02:07Z</time>
      </trkpt>
      <trkpt lat="44.78134" lon="0.26848">
        <ele>63.700000762939</ele>
        <time>2022-05-08T09:02:11Z</time>
      </trkpt>
      <trkpt lat="44.78143" lon="0.2685">
        <ele>64.849998474121</ele>
        <time>2022-05-08T09:02:19Z</time>
      </trkpt>
      <trkpt lat="44.78131" lon="0.26846">
        <ele>65.75</ele>
        <time>2022-05-08T09:02:41Z</time>
      </trkpt>
      <trkpt lat="44.78121" lon="0.26842">
        <ele>65.75</ele>
        <time>2022-05-08T09:02:47Z</time>
      </trkpt>
      <trkpt lat="44.78113" lon="0.26835">
        <ele>66.199996948242</ele>
        <time>2022-05-08T09:02:51Z</time>
      </trkpt>
      <trkpt lat="44.78104" lon="0.26833">
        <ele>66.199996948242</ele>
        <time>2022-05-08T09:02:55Z</time>
      </trkpt>
      <trkpt lat="44.78091" lon="0.26833">
        <ele>66.199996948242</ele>
        <time>2022-05-08T09:03:01Z</time>
      </trkpt>
      <trkpt lat="44.78073" lon="0.26831">
        <ele>66.849998474121</ele>
        <time>2022-05-08T09:03:09Z</time>
      </trkpt>
      <trkpt lat="44.78056" lon="0.26827">
        <ele>67.550003051758</ele>
        <time>2022-05-08T09:03:17Z</time>
      </trkpt>
      <trkpt lat="44.78043" lon="0.26826">
        <ele>67.550003051758</ele>
        <time>2022-05-08T09:03:25Z</time>
      </trkpt>
      <trkpt lat="44.78032" lon="0.26823">
        <ele>67.5</ele>
        <time>2022-05-08T09:03:31Z</time>
      </trkpt>
      <trkpt lat="44.78018" lon="0.26819">
        <ele>67.5</ele>
        <time>2022-05-08T09:03:39Z</time>
      </trkpt>
      <trkpt lat="44.78008" lon="0.26816">
        <ele>68.099998474121</ele>
        <time>2022-05-08T09:03:45Z</time>
      </trkpt>
    </trkseg>
  </trk>
</gpx>